<?xml version="1.0" encoding="UTF-8" standalone="no" ?>
<gpx xmlns="http://www.topografix.com/GPX/1/1" xmlns:xsi="http://www.w3.org/2001/XMLSchema-instance" xsi:schemaLocation="http://www.topografix.com/GPX/1/1 http://www.topografix.com/GPX/1/1/gpx.xsd" version="1.1" creator="VisuGPX - https://www.visugpx.com">
  <metadata>
    <name>randogps89-43</name>
    <desc><![CDATA[prépa séjour]]></desc>
  </metadata>
  <trk>
    <name><![CDATA[randogps89-43]]></name>
    <trkseg>
      <trkpt lat="48.09586" lon="3.50762">
        <ele>247.2</ele>
        <time>2016-10-09T08:01:48Z</time>
      </trkpt>
      <trkpt lat="48.09588" lon="3.50767">
        <ele>245.75</ele>
        <time>2016-10-09T08:01:58Z</time>
      </trkpt>
      <trkpt lat="48.0959" lon="3.50771">
        <ele>245.27</ele>
        <time>2016-10-09T08:02:06Z</time>
      </trkpt>
      <trkpt lat="48.0959" lon="3.50771">
        <ele>245.27</ele>
        <time>2016-10-09T08:02:17Z</time>
      </trkpt>
      <trkpt lat="48.09589" lon="3.50771">
        <ele>244.31</ele>
        <time>2016-10-09T08:02:31Z</time>
      </trkpt>
      <trkpt lat="48.09589" lon="3.50773">
        <ele>244.79</ele>
        <time>2016-10-09T08:02:47Z</time>
      </trkpt>
      <trkpt lat="48.09589" lon="3.50774">
        <ele>243.83</ele>
        <time>2016-10-09T08:03:00Z</time>
      </trkpt>
      <trkpt lat="48.09589" lon="3.50772">
        <ele>243.83</ele>
        <time>2016-10-09T08:03:12Z</time>
      </trkpt>
      <trkpt lat="48.0959" lon="3.50772">
        <ele>242.87</ele>
        <time>2016-10-09T08:03:23Z</time>
      </trkpt>
      <trkpt lat="48.0959" lon="3.50772">
        <ele>242.87</ele>
        <time>2016-10-09T08:03:35Z</time>
      </trkpt>
      <trkpt lat="48.0959" lon="3.50772">
        <ele>242.39</ele>
        <time>2016-10-09T08:03:45Z</time>
      </trkpt>
      <trkpt lat="48.0959" lon="3.50771">
        <ele>241.43</ele>
        <time>2016-10-09T08:04:00Z</time>
      </trkpt>
      <trkpt lat="48.09592" lon="3.50771">
        <ele>241.91</ele>
        <time>2016-10-09T08:04:11Z</time>
      </trkpt>
      <trkpt lat="48.09591" lon="3.50771">
        <ele>243.35</ele>
        <time>2016-10-09T08:04:27Z</time>
      </trkpt>
      <trkpt lat="48.09591" lon="3.50775">
        <ele>243.35</ele>
        <time>2016-10-09T08:04:35Z</time>
      </trkpt>
      <trkpt lat="48.09594" lon="3.50779">
        <ele>242.87</ele>
        <time>2016-10-09T08:04:44Z</time>
      </trkpt>
      <trkpt lat="48.09593" lon="3.5078">
        <ele>243.83</ele>
        <time>2016-10-09T08:04:57Z</time>
      </trkpt>
      <trkpt lat="48.09592" lon="3.50781">
        <ele>244.79</ele>
        <time>2016-10-09T08:05:07Z</time>
      </trkpt>
      <trkpt lat="48.09593" lon="3.50781">
        <ele>245.27</ele>
        <time>2016-10-09T08:05:24Z</time>
      </trkpt>
      <trkpt lat="48.09593" lon="3.50782">
        <ele>244.31</ele>
        <time>2016-10-09T08:05:34Z</time>
      </trkpt>
      <trkpt lat="48.09592" lon="3.50782">
        <ele>245.27</ele>
        <time>2016-10-09T08:05:48Z</time>
      </trkpt>
      <trkpt lat="48.09592" lon="3.50783">
        <ele>246.72</ele>
        <time>2016-10-09T08:05:58Z</time>
      </trkpt>
      <trkpt lat="48.09593" lon="3.50783">
        <ele>245.27</ele>
        <time>2016-10-09T08:06:13Z</time>
      </trkpt>
      <trkpt lat="48.09592" lon="3.50784">
        <ele>246.23</ele>
        <time>2016-10-09T08:06:23Z</time>
      </trkpt>
      <trkpt lat="48.09593" lon="3.50784">
        <ele>246.23</ele>
        <time>2016-10-09T08:06:37Z</time>
      </trkpt>
      <trkpt lat="48.09592" lon="3.50785">
        <ele>247.2</ele>
        <time>2016-10-09T08:06:50Z</time>
      </trkpt>
      <trkpt lat="48.09592" lon="3.50785">
        <ele>245.75</ele>
        <time>2016-10-09T08:06:59Z</time>
      </trkpt>
      <trkpt lat="48.09591" lon="3.50785">
        <ele>246.23</ele>
        <time>2016-10-09T08:07:06Z</time>
      </trkpt>
      <trkpt lat="48.09593" lon="3.50786">
        <ele>246.23</ele>
        <time>2016-10-09T08:07:17Z</time>
      </trkpt>
      <trkpt lat="48.09594" lon="3.50785">
        <ele>246.72</ele>
        <time>2016-10-09T08:07:26Z</time>
      </trkpt>
      <trkpt lat="48.09594" lon="3.50783">
        <ele>246.72</ele>
        <time>2016-10-09T08:07:35Z</time>
      </trkpt>
      <trkpt lat="48.09593" lon="3.50784">
        <ele>246.72</ele>
        <time>2016-10-09T08:07:45Z</time>
      </trkpt>
      <trkpt lat="48.09592" lon="3.50783">
        <ele>246.72</ele>
        <time>2016-10-09T08:07:51Z</time>
      </trkpt>
      <trkpt lat="48.09591" lon="3.50781">
        <ele>245.27</ele>
        <time>2016-10-09T08:07:59Z</time>
      </trkpt>
      <trkpt lat="48.0959" lon="3.5078">
        <ele>245.27</ele>
        <time>2016-10-09T08:08:09Z</time>
      </trkpt>
      <trkpt lat="48.0959" lon="3.5078">
        <ele>245.75</ele>
        <time>2016-10-09T08:08:20Z</time>
      </trkpt>
      <trkpt lat="48.09589" lon="3.5078">
        <ele>245.27</ele>
        <time>2016-10-09T08:08:33Z</time>
      </trkpt>
      <trkpt lat="48.09588" lon="3.50779">
        <ele>245.27</ele>
        <time>2016-10-09T08:08:43Z</time>
      </trkpt>
      <trkpt lat="48.09583" lon="3.5078">
        <ele>244.79</ele>
        <time>2016-10-09T08:08:54Z</time>
      </trkpt>
      <trkpt lat="48.09578" lon="3.50786">
        <ele>244.31</ele>
        <time>2016-10-09T08:09:04Z</time>
      </trkpt>
      <trkpt lat="48.09574" lon="3.50794">
        <ele>243.35</ele>
        <time>2016-10-09T08:09:12Z</time>
      </trkpt>
      <trkpt lat="48.09571" lon="3.50802">
        <ele>243.35</ele>
        <time>2016-10-09T08:09:20Z</time>
      </trkpt>
      <trkpt lat="48.0957" lon="3.50806">
        <ele>243.83</ele>
        <time>2016-10-09T08:09:24Z</time>
      </trkpt>
      <trkpt lat="48.09567" lon="3.50819">
        <ele>243.35</ele>
        <time>2016-10-09T08:09:34Z</time>
      </trkpt>
      <trkpt lat="48.09564" lon="3.50835">
        <ele>242.39</ele>
        <time>2016-10-09T08:09:44Z</time>
      </trkpt>
      <trkpt lat="48.09561" lon="3.5085">
        <ele>242.39</ele>
        <time>2016-10-09T08:09:54Z</time>
      </trkpt>
      <trkpt lat="48.09558" lon="3.50866">
        <ele>242.87</ele>
        <time>2016-10-09T08:10:04Z</time>
      </trkpt>
      <trkpt lat="48.09553" lon="3.50883">
        <ele>242.39</ele>
        <time>2016-10-09T08:10:14Z</time>
      </trkpt>
      <trkpt lat="48.09549" lon="3.509">
        <ele>242.87</ele>
        <time>2016-10-09T08:10:24Z</time>
      </trkpt>
      <trkpt lat="48.09545" lon="3.50914">
        <ele>241.91</ele>
        <time>2016-10-09T08:10:33Z</time>
      </trkpt>
      <trkpt lat="48.09541" lon="3.50931">
        <ele>243.35</ele>
        <time>2016-10-09T08:10:42Z</time>
      </trkpt>
      <trkpt lat="48.09536" lon="3.50951">
        <ele>243.35</ele>
        <time>2016-10-09T08:10:53Z</time>
      </trkpt>
      <trkpt lat="48.09532" lon="3.50968">
        <ele>244.79</ele>
        <time>2016-10-09T08:11:03Z</time>
      </trkpt>
      <trkpt lat="48.0953" lon="3.50972">
        <ele>245.75</ele>
        <time>2016-10-09T08:11:06Z</time>
      </trkpt>
      <trkpt lat="48.09537" lon="3.50981">
        <ele>246.23</ele>
        <time>2016-10-09T08:11:14Z</time>
      </trkpt>
      <trkpt lat="48.0955" lon="3.50989">
        <ele>244.79</ele>
        <time>2016-10-09T08:11:26Z</time>
      </trkpt>
      <trkpt lat="48.09561" lon="3.50994">
        <ele>243.35</ele>
        <time>2016-10-09T08:11:36Z</time>
      </trkpt>
      <trkpt lat="48.09565" lon="3.50996">
        <ele>242.87</ele>
        <time>2016-10-09T08:11:40Z</time>
      </trkpt>
      <trkpt lat="48.09567" lon="3.50999">
        <ele>242.39</ele>
        <time>2016-10-09T08:11:42Z</time>
      </trkpt>
      <trkpt lat="48.09566" lon="3.51014">
        <ele>240.47</ele>
        <time>2016-10-09T08:11:52Z</time>
      </trkpt>
      <trkpt lat="48.09565" lon="3.51017">
        <ele>239.99</ele>
        <time>2016-10-09T08:11:58Z</time>
      </trkpt>
      <trkpt lat="48.09565" lon="3.51022">
        <ele>239.99</ele>
        <time>2016-10-09T08:12:06Z</time>
      </trkpt>
      <trkpt lat="48.09564" lon="3.51023">
        <ele>239.99</ele>
        <time>2016-10-09T08:12:07Z</time>
      </trkpt>
      <trkpt lat="48.09563" lon="3.51029">
        <ele>239.02</ele>
        <time>2016-10-09T08:12:11Z</time>
      </trkpt>
      <trkpt lat="48.09562" lon="3.51032">
        <ele>239.02</ele>
        <time>2016-10-09T08:12:13Z</time>
      </trkpt>
      <trkpt lat="48.09556" lon="3.51032">
        <ele>239.02</ele>
        <time>2016-10-09T08:12:22Z</time>
      </trkpt>
      <trkpt lat="48.09554" lon="3.51031">
        <ele>239.02</ele>
        <time>2016-10-09T08:12:30Z</time>
      </trkpt>
      <trkpt lat="48.09553" lon="3.51029">
        <ele>238.06</ele>
        <time>2016-10-09T08:12:41Z</time>
      </trkpt>
      <trkpt lat="48.09551" lon="3.51029">
        <ele>237.1</ele>
        <time>2016-10-09T08:12:48Z</time>
      </trkpt>
      <trkpt lat="48.09548" lon="3.51027">
        <ele>237.1</ele>
        <time>2016-10-09T08:12:54Z</time>
      </trkpt>
      <trkpt lat="48.09543" lon="3.51024">
        <ele>237.58</ele>
        <time>2016-10-09T08:13:01Z</time>
      </trkpt>
      <trkpt lat="48.0954" lon="3.51024">
        <ele>238.54</ele>
        <time>2016-10-09T08:13:04Z</time>
      </trkpt>
      <trkpt lat="48.09537" lon="3.51023">
        <ele>239.02</ele>
        <time>2016-10-09T08:13:07Z</time>
      </trkpt>
      <trkpt lat="48.09527" lon="3.51029">
        <ele>239.02</ele>
        <time>2016-10-09T08:13:18Z</time>
      </trkpt>
      <trkpt lat="48.09519" lon="3.51034">
        <ele>239.02</ele>
        <time>2016-10-09T08:13:26Z</time>
      </trkpt>
      <trkpt lat="48.09516" lon="3.5104">
        <ele>238.54</ele>
        <time>2016-10-09T08:13:30Z</time>
      </trkpt>
      <trkpt lat="48.09512" lon="3.51057">
        <ele>237.58</ele>
        <time>2016-10-09T08:13:41Z</time>
      </trkpt>
      <trkpt lat="48.09508" lon="3.51075">
        <ele>238.06</ele>
        <time>2016-10-09T08:13:52Z</time>
      </trkpt>
      <trkpt lat="48.09504" lon="3.51093">
        <ele>238.06</ele>
        <time>2016-10-09T08:14:03Z</time>
      </trkpt>
      <trkpt lat="48.095" lon="3.5111">
        <ele>238.06</ele>
        <time>2016-10-09T08:14:13Z</time>
      </trkpt>
      <trkpt lat="48.09496" lon="3.51128">
        <ele>237.1</ele>
        <time>2016-10-09T08:14:24Z</time>
      </trkpt>
      <trkpt lat="48.09491" lon="3.51148">
        <ele>238.06</ele>
        <time>2016-10-09T08:14:35Z</time>
      </trkpt>
      <trkpt lat="48.09488" lon="3.51161">
        <ele>237.58</ele>
        <time>2016-10-09T08:14:43Z</time>
      </trkpt>
      <trkpt lat="48.09482" lon="3.51183">
        <ele>238.06</ele>
        <time>2016-10-09T08:14:55Z</time>
      </trkpt>
      <trkpt lat="48.09478" lon="3.51199">
        <ele>238.06</ele>
        <time>2016-10-09T08:15:04Z</time>
      </trkpt>
      <trkpt lat="48.09476" lon="3.51217">
        <ele>237.58</ele>
        <time>2016-10-09T08:15:14Z</time>
      </trkpt>
      <trkpt lat="48.09471" lon="3.51236">
        <ele>237.1</ele>
        <time>2016-10-09T08:15:26Z</time>
      </trkpt>
      <trkpt lat="48.09466" lon="3.51253">
        <ele>238.54</ele>
        <time>2016-10-09T08:15:35Z</time>
      </trkpt>
      <trkpt lat="48.09464" lon="3.51269">
        <ele>237.58</ele>
        <time>2016-10-09T08:15:44Z</time>
      </trkpt>
      <trkpt lat="48.09463" lon="3.51273">
        <ele>236.14</ele>
        <time>2016-10-09T08:15:48Z</time>
      </trkpt>
      <trkpt lat="48.0946" lon="3.51288">
        <ele>237.58</ele>
        <time>2016-10-09T08:15:56Z</time>
      </trkpt>
      <trkpt lat="48.09456" lon="3.51302">
        <ele>238.06</ele>
        <time>2016-10-09T08:16:04Z</time>
      </trkpt>
      <trkpt lat="48.09452" lon="3.51321">
        <ele>236.14</ele>
        <time>2016-10-09T08:16:15Z</time>
      </trkpt>
      <trkpt lat="48.09448" lon="3.51342">
        <ele>235.18</ele>
        <time>2016-10-09T08:16:27Z</time>
      </trkpt>
      <trkpt lat="48.09444" lon="3.51358">
        <ele>233.74</ele>
        <time>2016-10-09T08:16:36Z</time>
      </trkpt>
      <trkpt lat="48.0944" lon="3.51375">
        <ele>233.26</ele>
        <time>2016-10-09T08:16:47Z</time>
      </trkpt>
      <trkpt lat="48.09437" lon="3.5139">
        <ele>233.26</ele>
        <time>2016-10-09T08:16:56Z</time>
      </trkpt>
      <trkpt lat="48.09439" lon="3.514">
        <ele>233.26</ele>
        <time>2016-10-09T08:17:03Z</time>
      </trkpt>
      <trkpt lat="48.0944" lon="3.51402">
        <ele>233.74</ele>
        <time>2016-10-09T08:17:05Z</time>
      </trkpt>
      <trkpt lat="48.09449" lon="3.51408">
        <ele>232.78</ele>
        <time>2016-10-09T08:17:14Z</time>
      </trkpt>
      <trkpt lat="48.09459" lon="3.51412">
        <ele>232.3</ele>
        <time>2016-10-09T08:17:25Z</time>
      </trkpt>
      <trkpt lat="48.09467" lon="3.51414">
        <ele>232.3</ele>
        <time>2016-10-09T08:17:33Z</time>
      </trkpt>
      <trkpt lat="48.09476" lon="3.51417">
        <ele>232.3</ele>
        <time>2016-10-09T08:17:42Z</time>
      </trkpt>
      <trkpt lat="48.09487" lon="3.51422">
        <ele>232.3</ele>
        <time>2016-10-09T08:17:51Z</time>
      </trkpt>
      <trkpt lat="48.095" lon="3.51426">
        <ele>231.81</ele>
        <time>2016-10-09T08:18:02Z</time>
      </trkpt>
      <trkpt lat="48.09511" lon="3.51429">
        <ele>231.33</ele>
        <time>2016-10-09T08:18:11Z</time>
      </trkpt>
      <trkpt lat="48.09522" lon="3.51434">
        <ele>231.81</ele>
        <time>2016-10-09T08:18:21Z</time>
      </trkpt>
      <trkpt lat="48.09533" lon="3.51439">
        <ele>231.81</ele>
        <time>2016-10-09T08:18:31Z</time>
      </trkpt>
      <trkpt lat="48.09547" lon="3.51442">
        <ele>232.3</ele>
        <time>2016-10-09T08:18:42Z</time>
      </trkpt>
      <trkpt lat="48.09557" lon="3.51446">
        <ele>232.78</ele>
        <time>2016-10-09T08:18:51Z</time>
      </trkpt>
      <trkpt lat="48.0957" lon="3.5145">
        <ele>233.74</ele>
        <time>2016-10-09T08:19:02Z</time>
      </trkpt>
      <trkpt lat="48.09579" lon="3.51453">
        <ele>234.22</ele>
        <time>2016-10-09T08:19:11Z</time>
      </trkpt>
      <trkpt lat="48.09591" lon="3.51456">
        <ele>234.7</ele>
        <time>2016-10-09T08:19:20Z</time>
      </trkpt>
      <trkpt lat="48.09603" lon="3.51462">
        <ele>235.18</ele>
        <time>2016-10-09T08:19:31Z</time>
      </trkpt>
      <trkpt lat="48.09616" lon="3.51466">
        <ele>235.18</ele>
        <time>2016-10-09T08:19:42Z</time>
      </trkpt>
      <trkpt lat="48.09627" lon="3.5147">
        <ele>234.7</ele>
        <time>2016-10-09T08:19:52Z</time>
      </trkpt>
      <trkpt lat="48.09636" lon="3.51473">
        <ele>234.22</ele>
        <time>2016-10-09T08:20:00Z</time>
      </trkpt>
      <trkpt lat="48.09648" lon="3.51478">
        <ele>234.7</ele>
        <time>2016-10-09T08:20:10Z</time>
      </trkpt>
      <trkpt lat="48.09654" lon="3.5148">
        <ele>234.7</ele>
        <time>2016-10-09T08:20:15Z</time>
      </trkpt>
      <trkpt lat="48.09662" lon="3.51482">
        <ele>234.7</ele>
        <time>2016-10-09T08:20:22Z</time>
      </trkpt>
      <trkpt lat="48.09674" lon="3.51486">
        <ele>233.74</ele>
        <time>2016-10-09T08:20:32Z</time>
      </trkpt>
      <trkpt lat="48.09684" lon="3.51491">
        <ele>233.26</ele>
        <time>2016-10-09T08:20:41Z</time>
      </trkpt>
      <trkpt lat="48.09693" lon="3.51494">
        <ele>233.26</ele>
        <time>2016-10-09T08:20:49Z</time>
      </trkpt>
      <trkpt lat="48.09704" lon="3.51497">
        <ele>233.74</ele>
        <time>2016-10-09T08:20:58Z</time>
      </trkpt>
      <trkpt lat="48.09712" lon="3.51501">
        <ele>233.74</ele>
        <time>2016-10-09T08:21:05Z</time>
      </trkpt>
      <trkpt lat="48.09725" lon="3.51503">
        <ele>234.22</ele>
        <time>2016-10-09T08:21:15Z</time>
      </trkpt>
      <trkpt lat="48.0974" lon="3.5151">
        <ele>235.66</ele>
        <time>2016-10-09T08:21:26Z</time>
      </trkpt>
      <trkpt lat="48.09753" lon="3.51513">
        <ele>237.1</ele>
        <time>2016-10-09T08:21:36Z</time>
      </trkpt>
      <trkpt lat="48.09767" lon="3.5152">
        <ele>237.1</ele>
        <time>2016-10-09T08:21:48Z</time>
      </trkpt>
      <trkpt lat="48.09781" lon="3.51523">
        <ele>238.06</ele>
        <time>2016-10-09T08:21:59Z</time>
      </trkpt>
      <trkpt lat="48.09789" lon="3.51527">
        <ele>237.1</ele>
        <time>2016-10-09T08:22:06Z</time>
      </trkpt>
      <trkpt lat="48.09802" lon="3.51532">
        <ele>236.14</ele>
        <time>2016-10-09T08:22:17Z</time>
      </trkpt>
      <trkpt lat="48.09814" lon="3.51536">
        <ele>236.14</ele>
        <time>2016-10-09T08:22:25Z</time>
      </trkpt>
      <trkpt lat="48.09828" lon="3.5154">
        <ele>236.14</ele>
        <time>2016-10-09T08:22:37Z</time>
      </trkpt>
      <trkpt lat="48.09838" lon="3.51544">
        <ele>236.14</ele>
        <time>2016-10-09T08:22:45Z</time>
      </trkpt>
      <trkpt lat="48.0985" lon="3.51549">
        <ele>235.66</ele>
        <time>2016-10-09T08:22:55Z</time>
      </trkpt>
      <trkpt lat="48.09861" lon="3.51553">
        <ele>235.18</ele>
        <time>2016-10-09T08:23:05Z</time>
      </trkpt>
      <trkpt lat="48.0987" lon="3.51558">
        <ele>233.74</ele>
        <time>2016-10-09T08:23:14Z</time>
      </trkpt>
      <trkpt lat="48.09874" lon="3.51563">
        <ele>233.74</ele>
        <time>2016-10-09T08:23:20Z</time>
      </trkpt>
      <trkpt lat="48.09874" lon="3.51565">
        <ele>233.74</ele>
        <time>2016-10-09T08:23:21Z</time>
      </trkpt>
      <trkpt lat="48.09878" lon="3.51576">
        <ele>232.78</ele>
        <time>2016-10-09T08:23:30Z</time>
      </trkpt>
      <trkpt lat="48.0988" lon="3.51583">
        <ele>231.33</ele>
        <time>2016-10-09T08:23:36Z</time>
      </trkpt>
      <trkpt lat="48.09884" lon="3.51599">
        <ele>228.45</ele>
        <time>2016-10-09T08:23:46Z</time>
      </trkpt>
      <trkpt lat="48.09885" lon="3.51616">
        <ele>227.49</ele>
        <time>2016-10-09T08:23:54Z</time>
      </trkpt>
      <trkpt lat="48.09886" lon="3.51633">
        <ele>226.05</ele>
        <time>2016-10-09T08:24:03Z</time>
      </trkpt>
      <trkpt lat="48.09889" lon="3.51646">
        <ele>226.05</ele>
        <time>2016-10-09T08:24:10Z</time>
      </trkpt>
      <trkpt lat="48.09892" lon="3.5166">
        <ele>227.01</ele>
        <time>2016-10-09T08:24:18Z</time>
      </trkpt>
      <trkpt lat="48.09897" lon="3.51677">
        <ele>227.01</ele>
        <time>2016-10-09T08:24:28Z</time>
      </trkpt>
      <trkpt lat="48.09898" lon="3.51684">
        <ele>227.01</ele>
        <time>2016-10-09T08:24:32Z</time>
      </trkpt>
      <trkpt lat="48.09901" lon="3.51697">
        <ele>227.01</ele>
        <time>2016-10-09T08:24:39Z</time>
      </trkpt>
      <trkpt lat="48.09905" lon="3.51713">
        <ele>226.53</ele>
        <time>2016-10-09T08:24:49Z</time>
      </trkpt>
      <trkpt lat="48.09908" lon="3.51725">
        <ele>226.05</ele>
        <time>2016-10-09T08:24:56Z</time>
      </trkpt>
      <trkpt lat="48.09911" lon="3.51739">
        <ele>226.05</ele>
        <time>2016-10-09T08:25:04Z</time>
      </trkpt>
      <trkpt lat="48.09915" lon="3.51748">
        <ele>226.53</ele>
        <time>2016-10-09T08:25:10Z</time>
      </trkpt>
      <trkpt lat="48.09916" lon="3.51752">
        <ele>226.53</ele>
        <time>2016-10-09T08:25:12Z</time>
      </trkpt>
      <trkpt lat="48.09919" lon="3.51766">
        <ele>225.09</ele>
        <time>2016-10-09T08:25:21Z</time>
      </trkpt>
      <trkpt lat="48.09922" lon="3.51776">
        <ele>225.09</ele>
        <time>2016-10-09T08:25:27Z</time>
      </trkpt>
      <trkpt lat="48.09925" lon="3.5179">
        <ele>224.12</ele>
        <time>2016-10-09T08:25:36Z</time>
      </trkpt>
      <trkpt lat="48.09925" lon="3.51793">
        <ele>224.12</ele>
        <time>2016-10-09T08:25:38Z</time>
      </trkpt>
      <trkpt lat="48.09928" lon="3.51809">
        <ele>223.64</ele>
        <time>2016-10-09T08:25:47Z</time>
      </trkpt>
      <trkpt lat="48.09932" lon="3.51823">
        <ele>222.2</ele>
        <time>2016-10-09T08:25:56Z</time>
      </trkpt>
      <trkpt lat="48.09935" lon="3.51837">
        <ele>221.24</ele>
        <time>2016-10-09T08:26:04Z</time>
      </trkpt>
      <trkpt lat="48.09939" lon="3.5185">
        <ele>221.24</ele>
        <time>2016-10-09T08:26:12Z</time>
      </trkpt>
      <trkpt lat="48.09943" lon="3.51861">
        <ele>220.28</ele>
        <time>2016-10-09T08:26:20Z</time>
      </trkpt>
      <trkpt lat="48.09946" lon="3.51872">
        <ele>220.76</ele>
        <time>2016-10-09T08:26:27Z</time>
      </trkpt>
      <trkpt lat="48.09949" lon="3.51886">
        <ele>219.8</ele>
        <time>2016-10-09T08:26:35Z</time>
      </trkpt>
      <trkpt lat="48.09952" lon="3.51897">
        <ele>219.32</ele>
        <time>2016-10-09T08:26:42Z</time>
      </trkpt>
      <trkpt lat="48.09955" lon="3.51908">
        <ele>218.84</ele>
        <time>2016-10-09T08:26:49Z</time>
      </trkpt>
      <trkpt lat="48.09957" lon="3.51921">
        <ele>218.36</ele>
        <time>2016-10-09T08:26:56Z</time>
      </trkpt>
      <trkpt lat="48.09961" lon="3.51932">
        <ele>217.88</ele>
        <time>2016-10-09T08:27:04Z</time>
      </trkpt>
      <trkpt lat="48.09964" lon="3.51946">
        <ele>218.36</ele>
        <time>2016-10-09T08:27:12Z</time>
      </trkpt>
      <trkpt lat="48.09966" lon="3.51959">
        <ele>218.84</ele>
        <time>2016-10-09T08:27:19Z</time>
      </trkpt>
      <trkpt lat="48.09968" lon="3.5197">
        <ele>219.32</ele>
        <time>2016-10-09T08:27:24Z</time>
      </trkpt>
      <trkpt lat="48.09972" lon="3.51984">
        <ele>220.28</ele>
        <time>2016-10-09T08:27:33Z</time>
      </trkpt>
      <trkpt lat="48.09975" lon="3.52">
        <ele>221.24</ele>
        <time>2016-10-09T08:27:42Z</time>
      </trkpt>
      <trkpt lat="48.09977" lon="3.52018">
        <ele>221.72</ele>
        <time>2016-10-09T08:27:51Z</time>
      </trkpt>
      <trkpt lat="48.09979" lon="3.52036">
        <ele>223.64</ele>
        <time>2016-10-09T08:28:00Z</time>
      </trkpt>
      <trkpt lat="48.09979" lon="3.52053">
        <ele>226.53</ele>
        <time>2016-10-09T08:28:08Z</time>
      </trkpt>
      <trkpt lat="48.09981" lon="3.52069">
        <ele>227.01</ele>
        <time>2016-10-09T08:28:17Z</time>
      </trkpt>
      <trkpt lat="48.09984" lon="3.52084">
        <ele>227.49</ele>
        <time>2016-10-09T08:28:25Z</time>
      </trkpt>
      <trkpt lat="48.09987" lon="3.52102">
        <ele>228.45</ele>
        <time>2016-10-09T08:28:34Z</time>
      </trkpt>
      <trkpt lat="48.09991" lon="3.52119">
        <ele>229.89</ele>
        <time>2016-10-09T08:28:44Z</time>
      </trkpt>
      <trkpt lat="48.09994" lon="3.52133">
        <ele>230.37</ele>
        <time>2016-10-09T08:28:52Z</time>
      </trkpt>
      <trkpt lat="48.09997" lon="3.52148">
        <ele>230.37</ele>
        <time>2016-10-09T08:29:01Z</time>
      </trkpt>
      <trkpt lat="48.10001" lon="3.52165">
        <ele>230.37</ele>
        <time>2016-10-09T08:29:11Z</time>
      </trkpt>
      <trkpt lat="48.10005" lon="3.52182">
        <ele>231.33</ele>
        <time>2016-10-09T08:29:21Z</time>
      </trkpt>
      <trkpt lat="48.10008" lon="3.52202">
        <ele>232.3</ele>
        <time>2016-10-09T08:29:32Z</time>
      </trkpt>
      <trkpt lat="48.10012" lon="3.52219">
        <ele>232.78</ele>
        <time>2016-10-09T08:29:42Z</time>
      </trkpt>
      <trkpt lat="48.10015" lon="3.52232">
        <ele>233.26</ele>
        <time>2016-10-09T08:29:51Z</time>
      </trkpt>
      <trkpt lat="48.10012" lon="3.52236">
        <ele>233.26</ele>
        <time>2016-10-09T08:29:59Z</time>
      </trkpt>
      <trkpt lat="48.10009" lon="3.52235">
        <ele>233.74</ele>
        <time>2016-10-09T08:30:06Z</time>
      </trkpt>
      <trkpt lat="48.10005" lon="3.52235">
        <ele>234.22</ele>
        <time>2016-10-09T08:30:15Z</time>
      </trkpt>
      <trkpt lat="48.10006" lon="3.52236">
        <ele>234.22</ele>
        <time>2016-10-09T08:30:23Z</time>
      </trkpt>
      <trkpt lat="48.10006" lon="3.52235">
        <ele>234.7</ele>
        <time>2016-10-09T08:30:30Z</time>
      </trkpt>
      <trkpt lat="48.10005" lon="3.52235">
        <ele>234.7</ele>
        <time>2016-10-09T08:30:39Z</time>
      </trkpt>
      <trkpt lat="48.10005" lon="3.52236">
        <ele>235.18</ele>
        <time>2016-10-09T08:30:46Z</time>
      </trkpt>
      <trkpt lat="48.10005" lon="3.52238">
        <ele>237.1</ele>
        <time>2016-10-09T08:30:55Z</time>
      </trkpt>
      <trkpt lat="48.10005" lon="3.52238">
        <ele>234.7</ele>
        <time>2016-10-09T08:31:03Z</time>
      </trkpt>
      <trkpt lat="48.10005" lon="3.52238">
        <ele>233.74</ele>
        <time>2016-10-09T08:31:12Z</time>
      </trkpt>
      <trkpt lat="48.10004" lon="3.52236">
        <ele>233.74</ele>
        <time>2016-10-09T08:31:20Z</time>
      </trkpt>
      <trkpt lat="48.10003" lon="3.52235">
        <ele>233.74</ele>
        <time>2016-10-09T08:31:29Z</time>
      </trkpt>
      <trkpt lat="48.10002" lon="3.52234">
        <ele>233.74</ele>
        <time>2016-10-09T08:31:41Z</time>
      </trkpt>
      <trkpt lat="48.10002" lon="3.52235">
        <ele>234.22</ele>
        <time>2016-10-09T08:31:53Z</time>
      </trkpt>
      <trkpt lat="48.10004" lon="3.52235">
        <ele>234.22</ele>
        <time>2016-10-09T08:32:07Z</time>
      </trkpt>
      <trkpt lat="48.10004" lon="3.52235">
        <ele>236.62</ele>
        <time>2016-10-09T08:32:20Z</time>
      </trkpt>
      <trkpt lat="48.10004" lon="3.52234">
        <ele>236.62</ele>
        <time>2016-10-09T08:32:32Z</time>
      </trkpt>
      <trkpt lat="48.10001" lon="3.52234">
        <ele>237.58</ele>
        <time>2016-10-09T08:32:46Z</time>
      </trkpt>
      <trkpt lat="48.10001" lon="3.52236">
        <ele>237.1</ele>
        <time>2016-10-09T08:32:52Z</time>
      </trkpt>
      <trkpt lat="48.10002" lon="3.52235">
        <ele>237.1</ele>
        <time>2016-10-09T08:33:01Z</time>
      </trkpt>
      <trkpt lat="48.10002" lon="3.52235">
        <ele>236.14</ele>
        <time>2016-10-09T08:33:13Z</time>
      </trkpt>
      <trkpt lat="48.10003" lon="3.52237">
        <ele>235.66</ele>
        <time>2016-10-09T08:33:24Z</time>
      </trkpt>
      <trkpt lat="48.10002" lon="3.52239">
        <ele>236.62</ele>
        <time>2016-10-09T08:33:40Z</time>
      </trkpt>
      <trkpt lat="48.10001" lon="3.52237">
        <ele>236.62</ele>
        <time>2016-10-09T08:33:51Z</time>
      </trkpt>
      <trkpt lat="48.10001" lon="3.52236">
        <ele>234.7</ele>
        <time>2016-10-09T08:34:09Z</time>
      </trkpt>
      <trkpt lat="48.10001" lon="3.52237">
        <ele>234.22</ele>
        <time>2016-10-09T08:34:14Z</time>
      </trkpt>
      <trkpt lat="48.10003" lon="3.52237">
        <ele>233.26</ele>
        <time>2016-10-09T08:34:22Z</time>
      </trkpt>
      <trkpt lat="48.10005" lon="3.52236">
        <ele>233.26</ele>
        <time>2016-10-09T08:34:30Z</time>
      </trkpt>
      <trkpt lat="48.10007" lon="3.52236">
        <ele>233.26</ele>
        <time>2016-10-09T08:34:37Z</time>
      </trkpt>
      <trkpt lat="48.10007" lon="3.52237">
        <ele>232.78</ele>
        <time>2016-10-09T08:34:42Z</time>
      </trkpt>
      <trkpt lat="48.10009" lon="3.52237">
        <ele>232.3</ele>
        <time>2016-10-09T08:34:51Z</time>
      </trkpt>
      <trkpt lat="48.10011" lon="3.52237">
        <ele>231.81</ele>
        <time>2016-10-09T08:34:58Z</time>
      </trkpt>
      <trkpt lat="48.10013" lon="3.52235">
        <ele>232.3</ele>
        <time>2016-10-09T08:35:06Z</time>
      </trkpt>
      <trkpt lat="48.10016" lon="3.52236">
        <ele>232.3</ele>
        <time>2016-10-09T08:35:12Z</time>
      </trkpt>
      <trkpt lat="48.1002" lon="3.52239">
        <ele>232.3</ele>
        <time>2016-10-09T08:35:18Z</time>
      </trkpt>
      <trkpt lat="48.10024" lon="3.52249">
        <ele>232.78</ele>
        <time>2016-10-09T08:35:27Z</time>
      </trkpt>
      <trkpt lat="48.10026" lon="3.52254">
        <ele>232.3</ele>
        <time>2016-10-09T08:35:34Z</time>
      </trkpt>
      <trkpt lat="48.10031" lon="3.52267">
        <ele>230.37</ele>
        <time>2016-10-09T08:35:43Z</time>
      </trkpt>
      <trkpt lat="48.10036" lon="3.52279">
        <ele>228.45</ele>
        <time>2016-10-09T08:35:53Z</time>
      </trkpt>
      <trkpt lat="48.10041" lon="3.52298">
        <ele>228.45</ele>
        <time>2016-10-09T08:36:04Z</time>
      </trkpt>
      <trkpt lat="48.10047" lon="3.52318">
        <ele>228.93</ele>
        <time>2016-10-09T08:36:14Z</time>
      </trkpt>
      <trkpt lat="48.10053" lon="3.52334">
        <ele>228.45</ele>
        <time>2016-10-09T08:36:24Z</time>
      </trkpt>
      <trkpt lat="48.10057" lon="3.52347">
        <ele>227.97</ele>
        <time>2016-10-09T08:36:32Z</time>
      </trkpt>
      <trkpt lat="48.10061" lon="3.52357">
        <ele>227.01</ele>
        <time>2016-10-09T08:36:39Z</time>
      </trkpt>
      <trkpt lat="48.10066" lon="3.52373">
        <ele>226.05</ele>
        <time>2016-10-09T08:36:47Z</time>
      </trkpt>
      <trkpt lat="48.10071" lon="3.52387">
        <ele>224.61</ele>
        <time>2016-10-09T08:36:55Z</time>
      </trkpt>
      <trkpt lat="48.10075" lon="3.52396">
        <ele>225.09</ele>
        <time>2016-10-09T08:37:00Z</time>
      </trkpt>
      <trkpt lat="48.10079" lon="3.52415">
        <ele>224.61</ele>
        <time>2016-10-09T08:37:10Z</time>
      </trkpt>
      <trkpt lat="48.10084" lon="3.52431">
        <ele>225.09</ele>
        <time>2016-10-09T08:37:19Z</time>
      </trkpt>
      <trkpt lat="48.10087" lon="3.52446">
        <ele>225.09</ele>
        <time>2016-10-09T08:37:27Z</time>
      </trkpt>
      <trkpt lat="48.10089" lon="3.52457">
        <ele>225.57</ele>
        <time>2016-10-09T08:37:33Z</time>
      </trkpt>
      <trkpt lat="48.1009" lon="3.52472">
        <ele>226.05</ele>
        <time>2016-10-09T08:37:40Z</time>
      </trkpt>
      <trkpt lat="48.10091" lon="3.52481">
        <ele>226.05</ele>
        <time>2016-10-09T08:37:44Z</time>
      </trkpt>
      <trkpt lat="48.10091" lon="3.52499">
        <ele>226.53</ele>
        <time>2016-10-09T08:37:54Z</time>
      </trkpt>
      <trkpt lat="48.10092" lon="3.52503">
        <ele>226.53</ele>
        <time>2016-10-09T08:37:56Z</time>
      </trkpt>
      <trkpt lat="48.10092" lon="3.52524">
        <ele>227.01</ele>
        <time>2016-10-09T08:38:08Z</time>
      </trkpt>
      <trkpt lat="48.10093" lon="3.52539">
        <ele>227.49</ele>
        <time>2016-10-09T08:38:15Z</time>
      </trkpt>
      <trkpt lat="48.10096" lon="3.5255">
        <ele>227.97</ele>
        <time>2016-10-09T08:38:22Z</time>
      </trkpt>
      <trkpt lat="48.10101" lon="3.52569">
        <ele>228.45</ele>
        <time>2016-10-09T08:38:32Z</time>
      </trkpt>
      <trkpt lat="48.10105" lon="3.52585">
        <ele>227.97</ele>
        <time>2016-10-09T08:38:42Z</time>
      </trkpt>
      <trkpt lat="48.1011" lon="3.52603">
        <ele>228.45</ele>
        <time>2016-10-09T08:38:52Z</time>
      </trkpt>
      <trkpt lat="48.10111" lon="3.52607">
        <ele>228.45</ele>
        <time>2016-10-09T08:38:54Z</time>
      </trkpt>
      <trkpt lat="48.10116" lon="3.52623">
        <ele>227.97</ele>
        <time>2016-10-09T08:39:04Z</time>
      </trkpt>
      <trkpt lat="48.10117" lon="3.52625">
        <ele>227.97</ele>
        <time>2016-10-09T08:39:05Z</time>
      </trkpt>
      <trkpt lat="48.1012" lon="3.52641">
        <ele>229.89</ele>
        <time>2016-10-09T08:39:14Z</time>
      </trkpt>
      <trkpt lat="48.10124" lon="3.52654">
        <ele>230.37</ele>
        <time>2016-10-09T08:39:22Z</time>
      </trkpt>
      <trkpt lat="48.10127" lon="3.52671">
        <ele>231.33</ele>
        <time>2016-10-09T08:39:31Z</time>
      </trkpt>
      <trkpt lat="48.1013" lon="3.52689">
        <ele>232.78</ele>
        <time>2016-10-09T08:39:41Z</time>
      </trkpt>
      <trkpt lat="48.10134" lon="3.52704">
        <ele>232.78</ele>
        <time>2016-10-09T08:39:50Z</time>
      </trkpt>
      <trkpt lat="48.10137" lon="3.52719">
        <ele>233.26</ele>
        <time>2016-10-09T08:39:59Z</time>
      </trkpt>
      <trkpt lat="48.10139" lon="3.52736">
        <ele>233.26</ele>
        <time>2016-10-09T08:40:09Z</time>
      </trkpt>
      <trkpt lat="48.10142" lon="3.52753">
        <ele>232.78</ele>
        <time>2016-10-09T08:40:19Z</time>
      </trkpt>
      <trkpt lat="48.10144" lon="3.5277">
        <ele>233.74</ele>
        <time>2016-10-09T08:40:29Z</time>
      </trkpt>
      <trkpt lat="48.10145" lon="3.52787">
        <ele>233.26</ele>
        <time>2016-10-09T08:40:38Z</time>
      </trkpt>
      <trkpt lat="48.10147" lon="3.52804">
        <ele>233.74</ele>
        <time>2016-10-09T08:40:48Z</time>
      </trkpt>
      <trkpt lat="48.10149" lon="3.52815">
        <ele>234.7</ele>
        <time>2016-10-09T08:40:55Z</time>
      </trkpt>
      <trkpt lat="48.10152" lon="3.52834">
        <ele>234.7</ele>
        <time>2016-10-09T08:41:06Z</time>
      </trkpt>
      <trkpt lat="48.10155" lon="3.52854">
        <ele>232.78</ele>
        <time>2016-10-09T08:41:17Z</time>
      </trkpt>
      <trkpt lat="48.10158" lon="3.52873">
        <ele>232.3</ele>
        <time>2016-10-09T08:41:28Z</time>
      </trkpt>
      <trkpt lat="48.10159" lon="3.52892">
        <ele>232.3</ele>
        <time>2016-10-09T08:41:39Z</time>
      </trkpt>
      <trkpt lat="48.10159" lon="3.52899">
        <ele>232.78</ele>
        <time>2016-10-09T08:41:43Z</time>
      </trkpt>
      <trkpt lat="48.10161" lon="3.52916">
        <ele>232.3</ele>
        <time>2016-10-09T08:41:54Z</time>
      </trkpt>
      <trkpt lat="48.10163" lon="3.52928">
        <ele>231.33</ele>
        <time>2016-10-09T08:42:03Z</time>
      </trkpt>
      <trkpt lat="48.10164" lon="3.52945">
        <ele>231.81</ele>
        <time>2016-10-09T08:42:12Z</time>
      </trkpt>
      <trkpt lat="48.10168" lon="3.52962">
        <ele>232.3</ele>
        <time>2016-10-09T08:42:22Z</time>
      </trkpt>
      <trkpt lat="48.10168" lon="3.52963">
        <ele>232.3</ele>
        <time>2016-10-09T08:42:23Z</time>
      </trkpt>
      <trkpt lat="48.10173" lon="3.52984">
        <ele>231.81</ele>
        <time>2016-10-09T08:42:35Z</time>
      </trkpt>
      <trkpt lat="48.10178" lon="3.53">
        <ele>232.3</ele>
        <time>2016-10-09T08:42:45Z</time>
      </trkpt>
      <trkpt lat="48.10183" lon="3.53014">
        <ele>232.3</ele>
        <time>2016-10-09T08:42:53Z</time>
      </trkpt>
      <trkpt lat="48.10187" lon="3.5303">
        <ele>232.3</ele>
        <time>2016-10-09T08:43:03Z</time>
      </trkpt>
      <trkpt lat="48.10192" lon="3.53042">
        <ele>231.81</ele>
        <time>2016-10-09T08:43:11Z</time>
      </trkpt>
      <trkpt lat="48.10192" lon="3.53043">
        <ele>231.81</ele>
        <time>2016-10-09T08:43:12Z</time>
      </trkpt>
      <trkpt lat="48.10197" lon="3.53062">
        <ele>230.85</ele>
        <time>2016-10-09T08:43:23Z</time>
      </trkpt>
      <trkpt lat="48.10203" lon="3.53083">
        <ele>230.85</ele>
        <time>2016-10-09T08:43:34Z</time>
      </trkpt>
      <trkpt lat="48.10207" lon="3.53099">
        <ele>230.85</ele>
        <time>2016-10-09T08:43:43Z</time>
      </trkpt>
      <trkpt lat="48.10208" lon="3.5311">
        <ele>230.85</ele>
        <time>2016-10-09T08:43:49Z</time>
      </trkpt>
      <trkpt lat="48.10209" lon="3.53121">
        <ele>230.85</ele>
        <time>2016-10-09T08:43:55Z</time>
      </trkpt>
      <trkpt lat="48.10213" lon="3.53136">
        <ele>230.85</ele>
        <time>2016-10-09T08:44:04Z</time>
      </trkpt>
      <trkpt lat="48.10215" lon="3.53155">
        <ele>230.37</ele>
        <time>2016-10-09T08:44:13Z</time>
      </trkpt>
      <trkpt lat="48.10219" lon="3.53173">
        <ele>229.89</ele>
        <time>2016-10-09T08:44:22Z</time>
      </trkpt>
      <trkpt lat="48.10223" lon="3.53194">
        <ele>228.93</ele>
        <time>2016-10-09T08:44:32Z</time>
      </trkpt>
      <trkpt lat="48.10226" lon="3.53212">
        <ele>229.41</ele>
        <time>2016-10-09T08:44:41Z</time>
      </trkpt>
      <trkpt lat="48.1023" lon="3.53229">
        <ele>229.41</ele>
        <time>2016-10-09T08:44:50Z</time>
      </trkpt>
      <trkpt lat="48.10233" lon="3.53246">
        <ele>229.41</ele>
        <time>2016-10-09T08:44:59Z</time>
      </trkpt>
      <trkpt lat="48.10236" lon="3.5326">
        <ele>229.41</ele>
        <time>2016-10-09T08:45:07Z</time>
      </trkpt>
      <trkpt lat="48.10237" lon="3.5327">
        <ele>229.41</ele>
        <time>2016-10-09T08:45:12Z</time>
      </trkpt>
      <trkpt lat="48.1024" lon="3.53287">
        <ele>228.93</ele>
        <time>2016-10-09T08:45:20Z</time>
      </trkpt>
      <trkpt lat="48.10244" lon="3.53306">
        <ele>227.97</ele>
        <time>2016-10-09T08:45:30Z</time>
      </trkpt>
      <trkpt lat="48.10247" lon="3.53322">
        <ele>227.97</ele>
        <time>2016-10-09T08:45:38Z</time>
      </trkpt>
      <trkpt lat="48.10247" lon="3.53328">
        <ele>227.49</ele>
        <time>2016-10-09T08:45:41Z</time>
      </trkpt>
      <trkpt lat="48.1025" lon="3.53335">
        <ele>227.49</ele>
        <time>2016-10-09T08:45:45Z</time>
      </trkpt>
      <trkpt lat="48.10251" lon="3.53338">
        <ele>227.97</ele>
        <time>2016-10-09T08:45:47Z</time>
      </trkpt>
      <trkpt lat="48.10255" lon="3.5334">
        <ele>227.49</ele>
        <time>2016-10-09T08:45:51Z</time>
      </trkpt>
      <trkpt lat="48.10258" lon="3.53342">
        <ele>227.49</ele>
        <time>2016-10-09T08:45:54Z</time>
      </trkpt>
      <trkpt lat="48.10264" lon="3.53349">
        <ele>227.01</ele>
        <time>2016-10-09T08:46:02Z</time>
      </trkpt>
      <trkpt lat="48.10272" lon="3.53352">
        <ele>226.05</ele>
        <time>2016-10-09T08:46:10Z</time>
      </trkpt>
      <trkpt lat="48.10281" lon="3.53356">
        <ele>225.09</ele>
        <time>2016-10-09T08:46:17Z</time>
      </trkpt>
      <trkpt lat="48.10289" lon="3.5336">
        <ele>225.09</ele>
        <time>2016-10-09T08:46:26Z</time>
      </trkpt>
      <trkpt lat="48.10296" lon="3.53362">
        <ele>224.61</ele>
        <time>2016-10-09T08:46:33Z</time>
      </trkpt>
      <trkpt lat="48.10306" lon="3.53366">
        <ele>224.12</ele>
        <time>2016-10-09T08:46:40Z</time>
      </trkpt>
      <trkpt lat="48.10317" lon="3.53372">
        <ele>225.09</ele>
        <time>2016-10-09T08:46:47Z</time>
      </trkpt>
      <trkpt lat="48.10324" lon="3.53377">
        <ele>224.61</ele>
        <time>2016-10-09T08:46:55Z</time>
      </trkpt>
      <trkpt lat="48.10332" lon="3.53385">
        <ele>224.61</ele>
        <time>2016-10-09T08:47:04Z</time>
      </trkpt>
      <trkpt lat="48.10346" lon="3.5339">
        <ele>224.61</ele>
        <time>2016-10-09T08:47:14Z</time>
      </trkpt>
      <trkpt lat="48.10357" lon="3.5339">
        <ele>224.61</ele>
        <time>2016-10-09T08:47:22Z</time>
      </trkpt>
      <trkpt lat="48.10371" lon="3.53391">
        <ele>225.09</ele>
        <time>2016-10-09T08:47:31Z</time>
      </trkpt>
      <trkpt lat="48.10381" lon="3.53391">
        <ele>225.09</ele>
        <time>2016-10-09T08:47:39Z</time>
      </trkpt>
      <trkpt lat="48.10392" lon="3.53392">
        <ele>224.61</ele>
        <time>2016-10-09T08:47:48Z</time>
      </trkpt>
      <trkpt lat="48.10401" lon="3.53394">
        <ele>224.61</ele>
        <time>2016-10-09T08:47:55Z</time>
      </trkpt>
      <trkpt lat="48.10411" lon="3.53395">
        <ele>225.09</ele>
        <time>2016-10-09T08:48:04Z</time>
      </trkpt>
      <trkpt lat="48.10422" lon="3.53394">
        <ele>224.61</ele>
        <time>2016-10-09T08:48:14Z</time>
      </trkpt>
      <trkpt lat="48.10434" lon="3.53393">
        <ele>225.09</ele>
        <time>2016-10-09T08:48:24Z</time>
      </trkpt>
      <trkpt lat="48.1044" lon="3.53389">
        <ele>225.57</ele>
        <time>2016-10-09T08:48:31Z</time>
      </trkpt>
      <trkpt lat="48.10447" lon="3.53377">
        <ele>224.61</ele>
        <time>2016-10-09T08:48:40Z</time>
      </trkpt>
      <trkpt lat="48.10448" lon="3.53376">
        <ele>224.61</ele>
        <time>2016-10-09T08:48:41Z</time>
      </trkpt>
      <trkpt lat="48.10455" lon="3.53369">
        <ele>225.09</ele>
        <time>2016-10-09T08:48:49Z</time>
      </trkpt>
      <trkpt lat="48.10467" lon="3.53359">
        <ele>226.05</ele>
        <time>2016-10-09T08:49:00Z</time>
      </trkpt>
      <trkpt lat="48.10472" lon="3.53354">
        <ele>225.57</ele>
        <time>2016-10-09T08:49:05Z</time>
      </trkpt>
      <trkpt lat="48.10479" lon="3.53343">
        <ele>225.57</ele>
        <time>2016-10-09T08:49:14Z</time>
      </trkpt>
      <trkpt lat="48.1048" lon="3.53342">
        <ele>225.57</ele>
        <time>2016-10-09T08:49:15Z</time>
      </trkpt>
      <trkpt lat="48.10484" lon="3.53336">
        <ele>225.57</ele>
        <time>2016-10-09T08:49:20Z</time>
      </trkpt>
      <trkpt lat="48.10491" lon="3.53329">
        <ele>225.57</ele>
        <time>2016-10-09T08:49:27Z</time>
      </trkpt>
      <trkpt lat="48.10499" lon="3.53317">
        <ele>226.53</ele>
        <time>2016-10-09T08:49:36Z</time>
      </trkpt>
      <trkpt lat="48.10506" lon="3.53307">
        <ele>226.53</ele>
        <time>2016-10-09T08:49:45Z</time>
      </trkpt>
      <trkpt lat="48.10516" lon="3.53294">
        <ele>226.53</ele>
        <time>2016-10-09T08:49:56Z</time>
      </trkpt>
      <trkpt lat="48.1052" lon="3.53286">
        <ele>227.49</ele>
        <time>2016-10-09T08:50:02Z</time>
      </trkpt>
      <trkpt lat="48.10526" lon="3.53274">
        <ele>227.01</ele>
        <time>2016-10-09T08:50:10Z</time>
      </trkpt>
      <trkpt lat="48.10526" lon="3.53273">
        <ele>227.49</ele>
        <time>2016-10-09T08:50:11Z</time>
      </trkpt>
      <trkpt lat="48.10528" lon="3.53264">
        <ele>228.45</ele>
        <time>2016-10-09T08:50:19Z</time>
      </trkpt>
      <trkpt lat="48.10529" lon="3.53265">
        <ele>227.97</ele>
        <time>2016-10-09T08:50:29Z</time>
      </trkpt>
      <trkpt lat="48.10529" lon="3.53266">
        <ele>227.49</ele>
        <time>2016-10-09T08:50:38Z</time>
      </trkpt>
      <trkpt lat="48.1053" lon="3.53271">
        <ele>226.05</ele>
        <time>2016-10-09T08:50:49Z</time>
      </trkpt>
      <trkpt lat="48.10529" lon="3.53277">
        <ele>226.05</ele>
        <time>2016-10-09T08:50:57Z</time>
      </trkpt>
      <trkpt lat="48.10528" lon="3.53277">
        <ele>226.05</ele>
        <time>2016-10-09T08:51:05Z</time>
      </trkpt>
      <trkpt lat="48.10527" lon="3.53277">
        <ele>227.49</ele>
        <time>2016-10-09T08:51:17Z</time>
      </trkpt>
      <trkpt lat="48.10526" lon="3.53277">
        <ele>228.45</ele>
        <time>2016-10-09T08:51:25Z</time>
      </trkpt>
      <trkpt lat="48.10528" lon="3.53275">
        <ele>228.93</ele>
        <time>2016-10-09T08:51:39Z</time>
      </trkpt>
      <trkpt lat="48.10527" lon="3.53275">
        <ele>228.45</ele>
        <time>2016-10-09T08:51:49Z</time>
      </trkpt>
      <trkpt lat="48.10526" lon="3.53276">
        <ele>228.93</ele>
        <time>2016-10-09T08:52:01Z</time>
      </trkpt>
      <trkpt lat="48.10524" lon="3.53278">
        <ele>230.85</ele>
        <time>2016-10-09T08:52:14Z</time>
      </trkpt>
      <trkpt lat="48.10525" lon="3.53278">
        <ele>236.62</ele>
        <time>2016-10-09T08:52:28Z</time>
      </trkpt>
      <trkpt lat="48.10526" lon="3.53276">
        <ele>236.14</ele>
        <time>2016-10-09T08:52:43Z</time>
      </trkpt>
      <trkpt lat="48.10526" lon="3.53275">
        <ele>235.18</ele>
        <time>2016-10-09T08:52:57Z</time>
      </trkpt>
      <trkpt lat="48.10527" lon="3.53277">
        <ele>234.22</ele>
        <time>2016-10-09T08:53:11Z</time>
      </trkpt>
      <trkpt lat="48.10528" lon="3.53277">
        <ele>234.22</ele>
        <time>2016-10-09T08:53:23Z</time>
      </trkpt>
      <trkpt lat="48.10527" lon="3.53276">
        <ele>233.74</ele>
        <time>2016-10-09T08:53:34Z</time>
      </trkpt>
      <trkpt lat="48.10527" lon="3.53276">
        <ele>232.78</ele>
        <time>2016-10-09T08:53:42Z</time>
      </trkpt>
      <trkpt lat="48.10527" lon="3.53276">
        <ele>232.3</ele>
        <time>2016-10-09T08:53:51Z</time>
      </trkpt>
      <trkpt lat="48.10526" lon="3.53275">
        <ele>232.3</ele>
        <time>2016-10-09T08:54:05Z</time>
      </trkpt>
      <trkpt lat="48.10527" lon="3.53274">
        <ele>231.33</ele>
        <time>2016-10-09T08:54:13Z</time>
      </trkpt>
      <trkpt lat="48.10527" lon="3.53279">
        <ele>229.41</ele>
        <time>2016-10-09T08:54:25Z</time>
      </trkpt>
      <trkpt lat="48.10526" lon="3.53278">
        <ele>230.37</ele>
        <time>2016-10-09T08:54:39Z</time>
      </trkpt>
      <trkpt lat="48.10525" lon="3.53276">
        <ele>229.89</ele>
        <time>2016-10-09T08:54:48Z</time>
      </trkpt>
      <trkpt lat="48.10525" lon="3.53276">
        <ele>229.41</ele>
        <time>2016-10-09T08:55:04Z</time>
      </trkpt>
      <trkpt lat="48.10524" lon="3.53275">
        <ele>228.45</ele>
        <time>2016-10-09T08:55:13Z</time>
      </trkpt>
      <trkpt lat="48.10525" lon="3.53275">
        <ele>228.93</ele>
        <time>2016-10-09T08:55:24Z</time>
      </trkpt>
      <trkpt lat="48.10525" lon="3.53276">
        <ele>229.41</ele>
        <time>2016-10-09T08:55:33Z</time>
      </trkpt>
      <trkpt lat="48.10525" lon="3.53277">
        <ele>230.85</ele>
        <time>2016-10-09T08:55:45Z</time>
      </trkpt>
      <trkpt lat="48.10526" lon="3.53276">
        <ele>232.78</ele>
        <time>2016-10-09T08:55:58Z</time>
      </trkpt>
      <trkpt lat="48.10527" lon="3.53276">
        <ele>232.3</ele>
        <time>2016-10-09T08:56:07Z</time>
      </trkpt>
      <trkpt lat="48.10528" lon="3.53277">
        <ele>232.3</ele>
        <time>2016-10-09T08:56:21Z</time>
      </trkpt>
      <trkpt lat="48.10528" lon="3.53277">
        <ele>231.33</ele>
        <time>2016-10-09T08:56:32Z</time>
      </trkpt>
      <trkpt lat="48.10528" lon="3.53277">
        <ele>230.85</ele>
        <time>2016-10-09T08:56:42Z</time>
      </trkpt>
      <trkpt lat="48.10528" lon="3.53277">
        <ele>229.41</ele>
        <time>2016-10-09T08:56:53Z</time>
      </trkpt>
      <trkpt lat="48.10528" lon="3.53279">
        <ele>229.41</ele>
        <time>2016-10-09T08:57:05Z</time>
      </trkpt>
      <trkpt lat="48.10527" lon="3.53281">
        <ele>231.33</ele>
        <time>2016-10-09T08:57:17Z</time>
      </trkpt>
      <trkpt lat="48.10528" lon="3.5328">
        <ele>232.3</ele>
        <time>2016-10-09T08:57:33Z</time>
      </trkpt>
      <trkpt lat="48.10532" lon="3.53279">
        <ele>231.81</ele>
        <time>2016-10-09T08:57:45Z</time>
      </trkpt>
      <trkpt lat="48.10539" lon="3.53283">
        <ele>231.81</ele>
        <time>2016-10-09T08:57:55Z</time>
      </trkpt>
      <trkpt lat="48.10545" lon="3.53289">
        <ele>231.81</ele>
        <time>2016-10-09T08:58:03Z</time>
      </trkpt>
      <trkpt lat="48.10552" lon="3.53295">
        <ele>231.33</ele>
        <time>2016-10-09T08:58:12Z</time>
      </trkpt>
      <trkpt lat="48.10559" lon="3.53301">
        <ele>231.33</ele>
        <time>2016-10-09T08:58:20Z</time>
      </trkpt>
      <trkpt lat="48.10563" lon="3.53304">
        <ele>231.33</ele>
        <time>2016-10-09T08:58:25Z</time>
      </trkpt>
      <trkpt lat="48.10574" lon="3.53312">
        <ele>231.33</ele>
        <time>2016-10-09T08:58:35Z</time>
      </trkpt>
      <trkpt lat="48.10584" lon="3.53322">
        <ele>232.3</ele>
        <time>2016-10-09T08:58:45Z</time>
      </trkpt>
      <trkpt lat="48.1059" lon="3.53326">
        <ele>231.33</ele>
        <time>2016-10-09T08:58:51Z</time>
      </trkpt>
      <trkpt lat="48.10598" lon="3.53334">
        <ele>232.3</ele>
        <time>2016-10-09T08:59:00Z</time>
      </trkpt>
      <trkpt lat="48.10605" lon="3.53341">
        <ele>231.81</ele>
        <time>2016-10-09T08:59:08Z</time>
      </trkpt>
      <trkpt lat="48.10614" lon="3.53348">
        <ele>230.85</ele>
        <time>2016-10-09T08:59:15Z</time>
      </trkpt>
      <trkpt lat="48.10624" lon="3.53357">
        <ele>230.37</ele>
        <time>2016-10-09T08:59:24Z</time>
      </trkpt>
      <trkpt lat="48.10636" lon="3.53367">
        <ele>231.33</ele>
        <time>2016-10-09T08:59:35Z</time>
      </trkpt>
      <trkpt lat="48.10645" lon="3.53372">
        <ele>230.37</ele>
        <time>2016-10-09T08:59:43Z</time>
      </trkpt>
      <trkpt lat="48.10652" lon="3.53379">
        <ele>229.89</ele>
        <time>2016-10-09T08:59:51Z</time>
      </trkpt>
      <trkpt lat="48.10663" lon="3.53385">
        <ele>227.97</ele>
        <time>2016-10-09T09:00:00Z</time>
      </trkpt>
      <trkpt lat="48.10666" lon="3.53386">
        <ele>227.01</ele>
        <time>2016-10-09T09:00:02Z</time>
      </trkpt>
      <trkpt lat="48.10678" lon="3.53394">
        <ele>224.61</ele>
        <time>2016-10-09T09:00:13Z</time>
      </trkpt>
      <trkpt lat="48.10687" lon="3.534">
        <ele>223.16</ele>
        <time>2016-10-09T09:00:21Z</time>
      </trkpt>
      <trkpt lat="48.10699" lon="3.53405">
        <ele>223.64</ele>
        <time>2016-10-09T09:00:29Z</time>
      </trkpt>
      <trkpt lat="48.10711" lon="3.53412">
        <ele>223.64</ele>
        <time>2016-10-09T09:00:37Z</time>
      </trkpt>
      <trkpt lat="48.10719" lon="3.53416">
        <ele>224.12</ele>
        <time>2016-10-09T09:00:43Z</time>
      </trkpt>
      <trkpt lat="48.10731" lon="3.53423">
        <ele>222.68</ele>
        <time>2016-10-09T09:00:53Z</time>
      </trkpt>
      <trkpt lat="48.10744" lon="3.5343">
        <ele>223.16</ele>
        <time>2016-10-09T09:01:03Z</time>
      </trkpt>
      <trkpt lat="48.10757" lon="3.53435">
        <ele>224.61</ele>
        <time>2016-10-09T09:01:12Z</time>
      </trkpt>
      <trkpt lat="48.10766" lon="3.53441">
        <ele>224.61</ele>
        <time>2016-10-09T09:01:19Z</time>
      </trkpt>
      <trkpt lat="48.10774" lon="3.53448">
        <ele>222.68</ele>
        <time>2016-10-09T09:01:27Z</time>
      </trkpt>
      <trkpt lat="48.10787" lon="3.53458">
        <ele>222.68</ele>
        <time>2016-10-09T09:01:37Z</time>
      </trkpt>
      <trkpt lat="48.10796" lon="3.53466">
        <ele>218.36</ele>
        <time>2016-10-09T09:01:46Z</time>
      </trkpt>
      <trkpt lat="48.10805" lon="3.53474">
        <ele>215.95</ele>
        <time>2016-10-09T09:01:54Z</time>
      </trkpt>
      <trkpt lat="48.10813" lon="3.5348">
        <ele>212.11</ele>
        <time>2016-10-09T09:02:02Z</time>
      </trkpt>
      <trkpt lat="48.10823" lon="3.53489">
        <ele>210.19</ele>
        <time>2016-10-09T09:02:11Z</time>
      </trkpt>
      <trkpt lat="48.10833" lon="3.535">
        <ele>209.7</ele>
        <time>2016-10-09T09:02:21Z</time>
      </trkpt>
      <trkpt lat="48.1084" lon="3.53508">
        <ele>207.78</ele>
        <time>2016-10-09T09:02:28Z</time>
      </trkpt>
      <trkpt lat="48.10849" lon="3.53518">
        <ele>205.86</ele>
        <time>2016-10-09T09:02:37Z</time>
      </trkpt>
      <trkpt lat="48.10859" lon="3.53527">
        <ele>206.34</ele>
        <time>2016-10-09T09:02:46Z</time>
      </trkpt>
      <trkpt lat="48.10868" lon="3.53535">
        <ele>203.94</ele>
        <time>2016-10-09T09:02:54Z</time>
      </trkpt>
      <trkpt lat="48.10876" lon="3.53543">
        <ele>202.49</ele>
        <time>2016-10-09T09:03:02Z</time>
      </trkpt>
      <trkpt lat="48.10883" lon="3.53552">
        <ele>201.53</ele>
        <time>2016-10-09T09:03:10Z</time>
      </trkpt>
      <trkpt lat="48.1089" lon="3.53558">
        <ele>199.61</ele>
        <time>2016-10-09T09:03:17Z</time>
      </trkpt>
      <trkpt lat="48.10899" lon="3.53565">
        <ele>199.13</ele>
        <time>2016-10-09T09:03:26Z</time>
      </trkpt>
      <trkpt lat="48.10908" lon="3.53573">
        <ele>197.21</ele>
        <time>2016-10-09T09:03:34Z</time>
      </trkpt>
      <trkpt lat="48.10914" lon="3.53578">
        <ele>196.25</ele>
        <time>2016-10-09T09:03:42Z</time>
      </trkpt>
      <trkpt lat="48.10921" lon="3.53584">
        <ele>194.8</ele>
        <time>2016-10-09T09:03:49Z</time>
      </trkpt>
      <trkpt lat="48.1093" lon="3.53593">
        <ele>196.25</ele>
        <time>2016-10-09T09:03:58Z</time>
      </trkpt>
      <trkpt lat="48.10939" lon="3.53605">
        <ele>197.21</ele>
        <time>2016-10-09T09:04:08Z</time>
      </trkpt>
      <trkpt lat="48.10943" lon="3.53611">
        <ele>198.17</ele>
        <time>2016-10-09T09:04:12Z</time>
      </trkpt>
      <trkpt lat="48.10948" lon="3.53623">
        <ele>199.13</ele>
        <time>2016-10-09T09:04:19Z</time>
      </trkpt>
      <trkpt lat="48.10957" lon="3.53635">
        <ele>199.61</ele>
        <time>2016-10-09T09:04:28Z</time>
      </trkpt>
      <trkpt lat="48.10962" lon="3.53642">
        <ele>197.69</ele>
        <time>2016-10-09T09:04:34Z</time>
      </trkpt>
      <trkpt lat="48.1097" lon="3.53657">
        <ele>199.13</ele>
        <time>2016-10-09T09:04:43Z</time>
      </trkpt>
      <trkpt lat="48.10978" lon="3.53672">
        <ele>200.57</ele>
        <time>2016-10-09T09:04:52Z</time>
      </trkpt>
      <trkpt lat="48.10986" lon="3.53683">
        <ele>198.65</ele>
        <time>2016-10-09T09:05:01Z</time>
      </trkpt>
      <trkpt lat="48.10995" lon="3.53696">
        <ele>197.69</ele>
        <time>2016-10-09T09:05:12Z</time>
      </trkpt>
      <trkpt lat="48.11001" lon="3.53701">
        <ele>198.17</ele>
        <time>2016-10-09T09:05:17Z</time>
      </trkpt>
      <trkpt lat="48.11007" lon="3.53706">
        <ele>197.69</ele>
        <time>2016-10-09T09:05:23Z</time>
      </trkpt>
      <trkpt lat="48.11018" lon="3.53718">
        <ele>196.25</ele>
        <time>2016-10-09T09:05:34Z</time>
      </trkpt>
      <trkpt lat="48.11027" lon="3.53726">
        <ele>195.77</ele>
        <time>2016-10-09T09:05:43Z</time>
      </trkpt>
      <trkpt lat="48.11039" lon="3.53734">
        <ele>194.8</ele>
        <time>2016-10-09T09:05:54Z</time>
      </trkpt>
      <trkpt lat="48.11051" lon="3.53743">
        <ele>199.13</ele>
        <time>2016-10-09T09:06:04Z</time>
      </trkpt>
      <trkpt lat="48.1106" lon="3.53748">
        <ele>200.09</ele>
        <time>2016-10-09T09:06:13Z</time>
      </trkpt>
      <trkpt lat="48.11066" lon="3.53752">
        <ele>199.61</ele>
        <time>2016-10-09T09:06:20Z</time>
      </trkpt>
      <trkpt lat="48.11075" lon="3.53755">
        <ele>199.61</ele>
        <time>2016-10-09T09:06:28Z</time>
      </trkpt>
      <trkpt lat="48.11084" lon="3.5376">
        <ele>201.05</ele>
        <time>2016-10-09T09:06:36Z</time>
      </trkpt>
      <trkpt lat="48.11092" lon="3.53765">
        <ele>200.09</ele>
        <time>2016-10-09T09:06:44Z</time>
      </trkpt>
      <trkpt lat="48.11099" lon="3.53772">
        <ele>198.17</ele>
        <time>2016-10-09T09:06:52Z</time>
      </trkpt>
      <trkpt lat="48.11107" lon="3.5378">
        <ele>197.21</ele>
        <time>2016-10-09T09:07:00Z</time>
      </trkpt>
      <trkpt lat="48.11113" lon="3.53783">
        <ele>197.21</ele>
        <time>2016-10-09T09:07:04Z</time>
      </trkpt>
      <trkpt lat="48.11127" lon="3.53795">
        <ele>195.77</ele>
        <time>2016-10-09T09:07:16Z</time>
      </trkpt>
      <trkpt lat="48.11135" lon="3.53804">
        <ele>195.77</ele>
        <time>2016-10-09T09:07:25Z</time>
      </trkpt>
      <trkpt lat="48.11145" lon="3.53811">
        <ele>192.4</ele>
        <time>2016-10-09T09:07:35Z</time>
      </trkpt>
      <trkpt lat="48.11154" lon="3.53819">
        <ele>190.48</ele>
        <time>2016-10-09T09:07:44Z</time>
      </trkpt>
      <trkpt lat="48.11167" lon="3.53824">
        <ele>192.4</ele>
        <time>2016-10-09T09:07:53Z</time>
      </trkpt>
      <trkpt lat="48.11182" lon="3.53832">
        <ele>190.48</ele>
        <time>2016-10-09T09:08:06Z</time>
      </trkpt>
      <trkpt lat="48.11192" lon="3.53837">
        <ele>188.08</ele>
        <time>2016-10-09T09:08:16Z</time>
      </trkpt>
      <trkpt lat="48.11193" lon="3.53839">
        <ele>191.44</ele>
        <time>2016-10-09T09:08:25Z</time>
      </trkpt>
      <trkpt lat="48.11192" lon="3.53837">
        <ele>194.32</ele>
        <time>2016-10-09T09:08:35Z</time>
      </trkpt>
      <trkpt lat="48.11192" lon="3.53837">
        <ele>198.65</ele>
        <time>2016-10-09T09:08:48Z</time>
      </trkpt>
      <trkpt lat="48.11193" lon="3.53838">
        <ele>200.09</ele>
        <time>2016-10-09T09:08:57Z</time>
      </trkpt>
      <trkpt lat="48.11197" lon="3.53842">
        <ele>199.13</ele>
        <time>2016-10-09T09:09:03Z</time>
      </trkpt>
      <trkpt lat="48.11204" lon="3.53848">
        <ele>197.21</ele>
        <time>2016-10-09T09:09:11Z</time>
      </trkpt>
      <trkpt lat="48.11214" lon="3.53854">
        <ele>196.73</ele>
        <time>2016-10-09T09:09:20Z</time>
      </trkpt>
      <trkpt lat="48.11225" lon="3.53862">
        <ele>194.8</ele>
        <time>2016-10-09T09:09:30Z</time>
      </trkpt>
      <trkpt lat="48.11239" lon="3.53871">
        <ele>193.36</ele>
        <time>2016-10-09T09:09:41Z</time>
      </trkpt>
      <trkpt lat="48.11252" lon="3.53878">
        <ele>190.48</ele>
        <time>2016-10-09T09:09:53Z</time>
      </trkpt>
      <trkpt lat="48.11261" lon="3.53882">
        <ele>190.96</ele>
        <time>2016-10-09T09:10:01Z</time>
      </trkpt>
      <trkpt lat="48.11273" lon="3.53889">
        <ele>191.92</ele>
        <time>2016-10-09T09:10:11Z</time>
      </trkpt>
      <trkpt lat="48.11283" lon="3.53895">
        <ele>190</ele>
        <time>2016-10-09T09:10:20Z</time>
      </trkpt>
      <trkpt lat="48.11289" lon="3.53897">
        <ele>190.48</ele>
        <time>2016-10-09T09:10:28Z</time>
      </trkpt>
      <trkpt lat="48.11295" lon="3.53898">
        <ele>190.96</ele>
        <time>2016-10-09T09:10:37Z</time>
      </trkpt>
      <trkpt lat="48.11294" lon="3.539">
        <ele>190.48</ele>
        <time>2016-10-09T09:10:44Z</time>
      </trkpt>
      <trkpt lat="48.11296" lon="3.53901">
        <ele>191.44</ele>
        <time>2016-10-09T09:10:50Z</time>
      </trkpt>
      <trkpt lat="48.11296" lon="3.53899">
        <ele>191.44</ele>
        <time>2016-10-09T09:10:51Z</time>
      </trkpt>
      <trkpt lat="48.11296" lon="3.53887">
        <ele>193.84</ele>
        <time>2016-10-09T09:10:58Z</time>
      </trkpt>
      <trkpt lat="48.11294" lon="3.5388">
        <ele>195.28</ele>
        <time>2016-10-09T09:11:04Z</time>
      </trkpt>
      <trkpt lat="48.11294" lon="3.53874">
        <ele>195.77</ele>
        <time>2016-10-09T09:11:09Z</time>
      </trkpt>
      <trkpt lat="48.11293" lon="3.53871">
        <ele>195.28</ele>
        <time>2016-10-09T09:11:20Z</time>
      </trkpt>
      <trkpt lat="48.11296" lon="3.53867">
        <ele>196.73</ele>
        <time>2016-10-09T09:11:38Z</time>
      </trkpt>
      <trkpt lat="48.11294" lon="3.53873">
        <ele>196.73</ele>
        <time>2016-10-09T09:11:44Z</time>
      </trkpt>
      <trkpt lat="48.11293" lon="3.53891">
        <ele>198.65</ele>
        <time>2016-10-09T09:11:55Z</time>
      </trkpt>
      <trkpt lat="48.11291" lon="3.53899">
        <ele>199.13</ele>
        <time>2016-10-09T09:12:03Z</time>
      </trkpt>
      <trkpt lat="48.1129" lon="3.53901">
        <ele>198.65</ele>
        <time>2016-10-09T09:12:15Z</time>
      </trkpt>
      <trkpt lat="48.1129" lon="3.53901">
        <ele>197.69</ele>
        <time>2016-10-09T09:12:26Z</time>
      </trkpt>
      <trkpt lat="48.11291" lon="3.53903">
        <ele>197.69</ele>
        <time>2016-10-09T09:12:34Z</time>
      </trkpt>
      <trkpt lat="48.11292" lon="3.53903">
        <ele>199.61</ele>
        <time>2016-10-09T09:12:42Z</time>
      </trkpt>
      <trkpt lat="48.11291" lon="3.53901">
        <ele>200.57</ele>
        <time>2016-10-09T09:12:52Z</time>
      </trkpt>
      <trkpt lat="48.11292" lon="3.53901">
        <ele>201.05</ele>
        <time>2016-10-09T09:13:02Z</time>
      </trkpt>
      <trkpt lat="48.1129" lon="3.53901">
        <ele>199.13</ele>
        <time>2016-10-09T09:13:11Z</time>
      </trkpt>
      <trkpt lat="48.1129" lon="3.53903">
        <ele>200.09</ele>
        <time>2016-10-09T09:13:19Z</time>
      </trkpt>
      <trkpt lat="48.11291" lon="3.53902">
        <ele>199.13</ele>
        <time>2016-10-09T09:13:28Z</time>
      </trkpt>
      <trkpt lat="48.11291" lon="3.53903">
        <ele>200.57</ele>
        <time>2016-10-09T09:13:39Z</time>
      </trkpt>
      <trkpt lat="48.1129" lon="3.53903">
        <ele>202.98</ele>
        <time>2016-10-09T09:13:49Z</time>
      </trkpt>
      <trkpt lat="48.1129" lon="3.53901">
        <ele>201.53</ele>
        <time>2016-10-09T09:13:57Z</time>
      </trkpt>
      <trkpt lat="48.11291" lon="3.539">
        <ele>198.65</ele>
        <time>2016-10-09T09:14:10Z</time>
      </trkpt>
      <trkpt lat="48.11289" lon="3.53897">
        <ele>197.69</ele>
        <time>2016-10-09T09:14:23Z</time>
      </trkpt>
      <trkpt lat="48.11291" lon="3.53895">
        <ele>200.09</ele>
        <time>2016-10-09T09:14:35Z</time>
      </trkpt>
      <trkpt lat="48.11293" lon="3.53899">
        <ele>200.09</ele>
        <time>2016-10-09T09:14:47Z</time>
      </trkpt>
      <trkpt lat="48.11293" lon="3.53898">
        <ele>200.57</ele>
        <time>2016-10-09T09:14:57Z</time>
      </trkpt>
      <trkpt lat="48.11295" lon="3.539">
        <ele>201.05</ele>
        <time>2016-10-09T09:15:11Z</time>
      </trkpt>
      <trkpt lat="48.11292" lon="3.53903">
        <ele>201.05</ele>
        <time>2016-10-09T09:15:20Z</time>
      </trkpt>
      <trkpt lat="48.11291" lon="3.53903">
        <ele>201.53</ele>
        <time>2016-10-09T09:15:30Z</time>
      </trkpt>
      <trkpt lat="48.11291" lon="3.53904">
        <ele>200.57</ele>
        <time>2016-10-09T09:15:39Z</time>
      </trkpt>
      <trkpt lat="48.11292" lon="3.53902">
        <ele>199.61</ele>
        <time>2016-10-09T09:15:47Z</time>
      </trkpt>
      <trkpt lat="48.11292" lon="3.53902">
        <ele>199.61</ele>
        <time>2016-10-09T09:16:02Z</time>
      </trkpt>
      <trkpt lat="48.11294" lon="3.53905">
        <ele>199.13</ele>
        <time>2016-10-09T09:16:10Z</time>
      </trkpt>
      <trkpt lat="48.11304" lon="3.53908">
        <ele>198.17</ele>
        <time>2016-10-09T09:16:20Z</time>
      </trkpt>
      <trkpt lat="48.1131" lon="3.53911">
        <ele>198.17</ele>
        <time>2016-10-09T09:16:29Z</time>
      </trkpt>
      <trkpt lat="48.11315" lon="3.53914">
        <ele>195.28</ele>
        <time>2016-10-09T09:16:38Z</time>
      </trkpt>
      <trkpt lat="48.1132" lon="3.53916">
        <ele>193.36</ele>
        <time>2016-10-09T09:16:44Z</time>
      </trkpt>
      <trkpt lat="48.11332" lon="3.53922">
        <ele>190.96</ele>
        <time>2016-10-09T09:16:53Z</time>
      </trkpt>
      <trkpt lat="48.11338" lon="3.53925">
        <ele>187.59</ele>
        <time>2016-10-09T09:17:00Z</time>
      </trkpt>
      <trkpt lat="48.11345" lon="3.5393">
        <ele>184.71</ele>
        <time>2016-10-09T09:17:08Z</time>
      </trkpt>
      <trkpt lat="48.11356" lon="3.53937">
        <ele>184.23</ele>
        <time>2016-10-09T09:17:17Z</time>
      </trkpt>
      <trkpt lat="48.11362" lon="3.53941">
        <ele>184.23</ele>
        <time>2016-10-09T09:17:24Z</time>
      </trkpt>
      <trkpt lat="48.11373" lon="3.5395">
        <ele>189.04</ele>
        <time>2016-10-09T09:17:33Z</time>
      </trkpt>
      <trkpt lat="48.11378" lon="3.53958">
        <ele>189.52</ele>
        <time>2016-10-09T09:17:41Z</time>
      </trkpt>
      <trkpt lat="48.11382" lon="3.53964">
        <ele>188.56</ele>
        <time>2016-10-09T09:17:48Z</time>
      </trkpt>
      <trkpt lat="48.11386" lon="3.53969">
        <ele>188.56</ele>
        <time>2016-10-09T09:17:55Z</time>
      </trkpt>
      <trkpt lat="48.11393" lon="3.53974">
        <ele>185.19</ele>
        <time>2016-10-09T09:18:03Z</time>
      </trkpt>
      <trkpt lat="48.11399" lon="3.53979">
        <ele>184.71</ele>
        <time>2016-10-09T09:18:11Z</time>
      </trkpt>
      <trkpt lat="48.11404" lon="3.53984">
        <ele>187.11</ele>
        <time>2016-10-09T09:18:19Z</time>
      </trkpt>
      <trkpt lat="48.11414" lon="3.53992">
        <ele>187.59</ele>
        <time>2016-10-09T09:18:27Z</time>
      </trkpt>
      <trkpt lat="48.11419" lon="3.53997">
        <ele>190</ele>
        <time>2016-10-09T09:18:32Z</time>
      </trkpt>
      <trkpt lat="48.11427" lon="3.54006">
        <ele>192.88</ele>
        <time>2016-10-09T09:18:41Z</time>
      </trkpt>
      <trkpt lat="48.11433" lon="3.54013">
        <ele>194.32</ele>
        <time>2016-10-09T09:18:48Z</time>
      </trkpt>
      <trkpt lat="48.11439" lon="3.54023">
        <ele>198.17</ele>
        <time>2016-10-09T09:18:57Z</time>
      </trkpt>
      <trkpt lat="48.11445" lon="3.54032">
        <ele>198.65</ele>
        <time>2016-10-09T09:19:05Z</time>
      </trkpt>
      <trkpt lat="48.1145" lon="3.54043">
        <ele>201.53</ele>
        <time>2016-10-09T09:19:13Z</time>
      </trkpt>
      <trkpt lat="48.11454" lon="3.54054">
        <ele>204.42</ele>
        <time>2016-10-09T09:19:21Z</time>
      </trkpt>
      <trkpt lat="48.11457" lon="3.54063">
        <ele>205.38</ele>
        <time>2016-10-09T09:19:29Z</time>
      </trkpt>
      <trkpt lat="48.11463" lon="3.54071">
        <ele>205.86</ele>
        <time>2016-10-09T09:19:36Z</time>
      </trkpt>
      <trkpt lat="48.11473" lon="3.54085">
        <ele>208.26</ele>
        <time>2016-10-09T09:19:44Z</time>
      </trkpt>
      <trkpt lat="48.11477" lon="3.54092">
        <ele>207.78</ele>
        <time>2016-10-09T09:19:50Z</time>
      </trkpt>
      <trkpt lat="48.11482" lon="3.54099">
        <ele>209.22</ele>
        <time>2016-10-09T09:19:57Z</time>
      </trkpt>
      <trkpt lat="48.11486" lon="3.54108">
        <ele>208.74</ele>
        <time>2016-10-09T09:20:04Z</time>
      </trkpt>
      <trkpt lat="48.11489" lon="3.54113">
        <ele>209.22</ele>
        <time>2016-10-09T09:20:10Z</time>
      </trkpt>
      <trkpt lat="48.11495" lon="3.54123">
        <ele>209.22</ele>
        <time>2016-10-09T09:20:17Z</time>
      </trkpt>
      <trkpt lat="48.115" lon="3.54131">
        <ele>207.3</ele>
        <time>2016-10-09T09:20:24Z</time>
      </trkpt>
      <trkpt lat="48.11507" lon="3.54143">
        <ele>208.74</ele>
        <time>2016-10-09T09:20:33Z</time>
      </trkpt>
      <trkpt lat="48.11513" lon="3.5415">
        <ele>209.22</ele>
        <time>2016-10-09T09:20:40Z</time>
      </trkpt>
      <trkpt lat="48.1152" lon="3.54161">
        <ele>212.11</ele>
        <time>2016-10-09T09:20:48Z</time>
      </trkpt>
      <trkpt lat="48.11526" lon="3.54171">
        <ele>216.43</ele>
        <time>2016-10-09T09:20:57Z</time>
      </trkpt>
      <trkpt lat="48.1153" lon="3.54175">
        <ele>216.91</ele>
        <time>2016-10-09T09:21:02Z</time>
      </trkpt>
      <trkpt lat="48.11536" lon="3.54184">
        <ele>218.84</ele>
        <time>2016-10-09T09:21:09Z</time>
      </trkpt>
      <trkpt lat="48.11541" lon="3.54188">
        <ele>220.76</ele>
        <time>2016-10-09T09:21:16Z</time>
      </trkpt>
      <trkpt lat="48.11546" lon="3.54192">
        <ele>222.2</ele>
        <time>2016-10-09T09:21:23Z</time>
      </trkpt>
      <trkpt lat="48.11554" lon="3.54201">
        <ele>225.57</ele>
        <time>2016-10-09T09:21:31Z</time>
      </trkpt>
      <trkpt lat="48.11559" lon="3.54203">
        <ele>226.05</ele>
        <time>2016-10-09T09:21:38Z</time>
      </trkpt>
      <trkpt lat="48.11562" lon="3.54204">
        <ele>225.57</ele>
        <time>2016-10-09T09:21:45Z</time>
      </trkpt>
      <trkpt lat="48.11568" lon="3.54203">
        <ele>226.05</ele>
        <time>2016-10-09T09:21:53Z</time>
      </trkpt>
      <trkpt lat="48.11571" lon="3.54203">
        <ele>225.57</ele>
        <time>2016-10-09T09:21:57Z</time>
      </trkpt>
      <trkpt lat="48.11583" lon="3.54202">
        <ele>226.53</ele>
        <time>2016-10-09T09:22:06Z</time>
      </trkpt>
      <trkpt lat="48.11586" lon="3.54201">
        <ele>224.12</ele>
        <time>2016-10-09T09:22:13Z</time>
      </trkpt>
      <trkpt lat="48.11593" lon="3.54197">
        <ele>223.16</ele>
        <time>2016-10-09T09:22:20Z</time>
      </trkpt>
      <trkpt lat="48.11603" lon="3.54194">
        <ele>223.64</ele>
        <time>2016-10-09T09:22:28Z</time>
      </trkpt>
      <trkpt lat="48.11613" lon="3.54192">
        <ele>223.64</ele>
        <time>2016-10-09T09:22:36Z</time>
      </trkpt>
      <trkpt lat="48.11622" lon="3.54191">
        <ele>225.09</ele>
        <time>2016-10-09T09:22:43Z</time>
      </trkpt>
      <trkpt lat="48.11628" lon="3.54189">
        <ele>224.12</ele>
        <time>2016-10-09T09:22:51Z</time>
      </trkpt>
      <trkpt lat="48.11635" lon="3.54186">
        <ele>225.09</ele>
        <time>2016-10-09T09:22:59Z</time>
      </trkpt>
      <trkpt lat="48.11643" lon="3.54184">
        <ele>226.53</ele>
        <time>2016-10-09T09:23:06Z</time>
      </trkpt>
      <trkpt lat="48.11649" lon="3.54181">
        <ele>227.97</ele>
        <time>2016-10-09T09:23:15Z</time>
      </trkpt>
      <trkpt lat="48.11657" lon="3.54179">
        <ele>228.45</ele>
        <time>2016-10-09T09:23:23Z</time>
      </trkpt>
      <trkpt lat="48.11667" lon="3.54177">
        <ele>229.41</ele>
        <time>2016-10-09T09:23:31Z</time>
      </trkpt>
      <trkpt lat="48.11679" lon="3.54176">
        <ele>231.33</ele>
        <time>2016-10-09T09:23:40Z</time>
      </trkpt>
      <trkpt lat="48.11692" lon="3.54173">
        <ele>231.81</ele>
        <time>2016-10-09T09:23:50Z</time>
      </trkpt>
      <trkpt lat="48.11703" lon="3.54172">
        <ele>232.3</ele>
        <time>2016-10-09T09:23:58Z</time>
      </trkpt>
      <trkpt lat="48.11711" lon="3.54172">
        <ele>234.22</ele>
        <time>2016-10-09T09:24:05Z</time>
      </trkpt>
      <trkpt lat="48.11727" lon="3.54171">
        <ele>239.51</ele>
        <time>2016-10-09T09:24:16Z</time>
      </trkpt>
      <trkpt lat="48.11737" lon="3.54167">
        <ele>239.51</ele>
        <time>2016-10-09T09:24:24Z</time>
      </trkpt>
      <trkpt lat="48.11744" lon="3.54164">
        <ele>241.91</ele>
        <time>2016-10-09T09:24:31Z</time>
      </trkpt>
      <trkpt lat="48.11755" lon="3.54162">
        <ele>242.87</ele>
        <time>2016-10-09T09:24:39Z</time>
      </trkpt>
      <trkpt lat="48.1176" lon="3.54159">
        <ele>241.91</ele>
        <time>2016-10-09T09:24:47Z</time>
      </trkpt>
      <trkpt lat="48.11772" lon="3.54159">
        <ele>240.95</ele>
        <time>2016-10-09T09:24:56Z</time>
      </trkpt>
      <trkpt lat="48.11778" lon="3.5416">
        <ele>241.43</ele>
        <time>2016-10-09T09:25:04Z</time>
      </trkpt>
      <trkpt lat="48.11786" lon="3.54162">
        <ele>242.39</ele>
        <time>2016-10-09T09:25:10Z</time>
      </trkpt>
      <trkpt lat="48.11792" lon="3.54165">
        <ele>242.87</ele>
        <time>2016-10-09T09:25:17Z</time>
      </trkpt>
      <trkpt lat="48.11804" lon="3.5417">
        <ele>243.35</ele>
        <time>2016-10-09T09:25:28Z</time>
      </trkpt>
      <trkpt lat="48.11813" lon="3.54173">
        <ele>242.87</ele>
        <time>2016-10-09T09:25:38Z</time>
      </trkpt>
      <trkpt lat="48.11819" lon="3.54176">
        <ele>242.39</ele>
        <time>2016-10-09T09:25:45Z</time>
      </trkpt>
      <trkpt lat="48.11828" lon="3.54179">
        <ele>242.87</ele>
        <time>2016-10-09T09:25:54Z</time>
      </trkpt>
      <trkpt lat="48.11829" lon="3.5418">
        <ele>242.87</ele>
        <time>2016-10-09T09:26:03Z</time>
      </trkpt>
      <trkpt lat="48.11832" lon="3.54181">
        <ele>245.27</ele>
        <time>2016-10-09T09:26:17Z</time>
      </trkpt>
      <trkpt lat="48.1183" lon="3.54183">
        <ele>244.31</ele>
        <time>2016-10-09T09:26:28Z</time>
      </trkpt>
      <trkpt lat="48.1183" lon="3.54181">
        <ele>244.31</ele>
        <time>2016-10-09T09:26:40Z</time>
      </trkpt>
      <trkpt lat="48.1183" lon="3.54181">
        <ele>243.83</ele>
        <time>2016-10-09T09:26:51Z</time>
      </trkpt>
      <trkpt lat="48.11831" lon="3.54181">
        <ele>243.35</ele>
        <time>2016-10-09T09:26:57Z</time>
      </trkpt>
      <trkpt lat="48.11839" lon="3.54188">
        <ele>242.87</ele>
        <time>2016-10-09T09:27:07Z</time>
      </trkpt>
      <trkpt lat="48.11842" lon="3.5419">
        <ele>242.87</ele>
        <time>2016-10-09T09:27:10Z</time>
      </trkpt>
      <trkpt lat="48.11846" lon="3.54191">
        <ele>242.87</ele>
        <time>2016-10-09T09:27:14Z</time>
      </trkpt>
      <trkpt lat="48.11856" lon="3.54197">
        <ele>241.43</ele>
        <time>2016-10-09T09:27:26Z</time>
      </trkpt>
      <trkpt lat="48.11864" lon="3.54201">
        <ele>240.47</ele>
        <time>2016-10-09T09:27:35Z</time>
      </trkpt>
      <trkpt lat="48.1187" lon="3.54205">
        <ele>239.51</ele>
        <time>2016-10-09T09:27:41Z</time>
      </trkpt>
      <trkpt lat="48.11874" lon="3.54207">
        <ele>239.51</ele>
        <time>2016-10-09T09:27:45Z</time>
      </trkpt>
      <trkpt lat="48.11885" lon="3.54213">
        <ele>239.99</ele>
        <time>2016-10-09T09:27:55Z</time>
      </trkpt>
      <trkpt lat="48.11898" lon="3.54221">
        <ele>239.51</ele>
        <time>2016-10-09T09:28:07Z</time>
      </trkpt>
      <trkpt lat="48.11912" lon="3.54228">
        <ele>239.51</ele>
        <time>2016-10-09T09:28:19Z</time>
      </trkpt>
      <trkpt lat="48.11926" lon="3.54233">
        <ele>239.02</ele>
        <time>2016-10-09T09:28:31Z</time>
      </trkpt>
      <trkpt lat="48.11935" lon="3.54231">
        <ele>239.99</ele>
        <time>2016-10-09T09:28:40Z</time>
      </trkpt>
      <trkpt lat="48.11936" lon="3.54229">
        <ele>239.51</ele>
        <time>2016-10-09T09:28:42Z</time>
      </trkpt>
      <trkpt lat="48.11938" lon="3.54223">
        <ele>238.54</ele>
        <time>2016-10-09T09:28:47Z</time>
      </trkpt>
      <trkpt lat="48.11942" lon="3.54206">
        <ele>236.14</ele>
        <time>2016-10-09T09:28:58Z</time>
      </trkpt>
      <trkpt lat="48.11943" lon="3.5419">
        <ele>235.66</ele>
        <time>2016-10-09T09:29:08Z</time>
      </trkpt>
      <trkpt lat="48.11944" lon="3.54167">
        <ele>235.66</ele>
        <time>2016-10-09T09:29:21Z</time>
      </trkpt>
      <trkpt lat="48.11944" lon="3.5415">
        <ele>235.66</ele>
        <time>2016-10-09T09:29:30Z</time>
      </trkpt>
      <trkpt lat="48.11943" lon="3.54131">
        <ele>235.66</ele>
        <time>2016-10-09T09:29:40Z</time>
      </trkpt>
      <trkpt lat="48.11943" lon="3.54115">
        <ele>235.66</ele>
        <time>2016-10-09T09:29:49Z</time>
      </trkpt>
      <trkpt lat="48.11943" lon="3.54104">
        <ele>235.18</ele>
        <time>2016-10-09T09:29:56Z</time>
      </trkpt>
      <trkpt lat="48.11944" lon="3.54087">
        <ele>235.18</ele>
        <time>2016-10-09T09:30:05Z</time>
      </trkpt>
      <trkpt lat="48.11945" lon="3.54071">
        <ele>234.7</ele>
        <time>2016-10-09T09:30:14Z</time>
      </trkpt>
      <trkpt lat="48.11945" lon="3.54055">
        <ele>235.18</ele>
        <time>2016-10-09T09:30:23Z</time>
      </trkpt>
      <trkpt lat="48.11946" lon="3.54034">
        <ele>235.18</ele>
        <time>2016-10-09T09:30:34Z</time>
      </trkpt>
      <trkpt lat="48.11949" lon="3.54012">
        <ele>234.7</ele>
        <time>2016-10-09T09:30:47Z</time>
      </trkpt>
      <trkpt lat="48.11951" lon="3.54">
        <ele>234.7</ele>
        <time>2016-10-09T09:30:55Z</time>
      </trkpt>
      <trkpt lat="48.11952" lon="3.53979">
        <ele>236.14</ele>
        <time>2016-10-09T09:31:05Z</time>
      </trkpt>
      <trkpt lat="48.11953" lon="3.53956">
        <ele>236.62</ele>
        <time>2016-10-09T09:31:17Z</time>
      </trkpt>
      <trkpt lat="48.11954" lon="3.53929">
        <ele>237.58</ele>
        <time>2016-10-09T09:31:30Z</time>
      </trkpt>
      <trkpt lat="48.11957" lon="3.5391">
        <ele>237.58</ele>
        <time>2016-10-09T09:31:41Z</time>
      </trkpt>
      <trkpt lat="48.1196" lon="3.5389">
        <ele>237.58</ele>
        <time>2016-10-09T09:31:52Z</time>
      </trkpt>
      <trkpt lat="48.11963" lon="3.53872">
        <ele>238.06</ele>
        <time>2016-10-09T09:32:02Z</time>
      </trkpt>
      <trkpt lat="48.11967" lon="3.53848">
        <ele>239.51</ele>
        <time>2016-10-09T09:32:15Z</time>
      </trkpt>
      <trkpt lat="48.11969" lon="3.53827">
        <ele>239.02</ele>
        <time>2016-10-09T09:32:26Z</time>
      </trkpt>
      <trkpt lat="48.11973" lon="3.5381">
        <ele>237.1</ele>
        <time>2016-10-09T09:32:36Z</time>
      </trkpt>
      <trkpt lat="48.11978" lon="3.53791">
        <ele>236.62</ele>
        <time>2016-10-09T09:32:47Z</time>
      </trkpt>
      <trkpt lat="48.1198" lon="3.53772">
        <ele>236.14</ele>
        <time>2016-10-09T09:32:57Z</time>
      </trkpt>
      <trkpt lat="48.11983" lon="3.53747">
        <ele>237.58</ele>
        <time>2016-10-09T09:33:10Z</time>
      </trkpt>
      <trkpt lat="48.11986" lon="3.53726">
        <ele>236.14</ele>
        <time>2016-10-09T09:33:21Z</time>
      </trkpt>
      <trkpt lat="48.1199" lon="3.53706">
        <ele>236.14</ele>
        <time>2016-10-09T09:33:32Z</time>
      </trkpt>
      <trkpt lat="48.11993" lon="3.5368">
        <ele>237.1</ele>
        <time>2016-10-09T09:33:46Z</time>
      </trkpt>
      <trkpt lat="48.11999" lon="3.53657">
        <ele>237.1</ele>
        <time>2016-10-09T09:33:59Z</time>
      </trkpt>
      <trkpt lat="48.12003" lon="3.53635">
        <ele>238.06</ele>
        <time>2016-10-09T09:34:11Z</time>
      </trkpt>
      <trkpt lat="48.12011" lon="3.53609">
        <ele>236.14</ele>
        <time>2016-10-09T09:34:26Z</time>
      </trkpt>
      <trkpt lat="48.12014" lon="3.53592">
        <ele>236.14</ele>
        <time>2016-10-09T09:34:36Z</time>
      </trkpt>
      <trkpt lat="48.12018" lon="3.53571">
        <ele>236.14</ele>
        <time>2016-10-09T09:34:47Z</time>
      </trkpt>
      <trkpt lat="48.12022" lon="3.53555">
        <ele>236.14</ele>
        <time>2016-10-09T09:34:57Z</time>
      </trkpt>
      <trkpt lat="48.12023" lon="3.53548">
        <ele>236.62</ele>
        <time>2016-10-09T09:35:03Z</time>
      </trkpt>
      <trkpt lat="48.12024" lon="3.53543">
        <ele>236.62</ele>
        <time>2016-10-09T09:35:06Z</time>
      </trkpt>
      <trkpt lat="48.12028" lon="3.53528">
        <ele>235.66</ele>
        <time>2016-10-09T09:35:16Z</time>
      </trkpt>
      <trkpt lat="48.12032" lon="3.53509">
        <ele>235.66</ele>
        <time>2016-10-09T09:35:26Z</time>
      </trkpt>
      <trkpt lat="48.12037" lon="3.5349">
        <ele>235.18</ele>
        <time>2016-10-09T09:35:38Z</time>
      </trkpt>
      <trkpt lat="48.12041" lon="3.5347">
        <ele>235.18</ele>
        <time>2016-10-09T09:35:49Z</time>
      </trkpt>
      <trkpt lat="48.12046" lon="3.53451">
        <ele>235.18</ele>
        <time>2016-10-09T09:36:00Z</time>
      </trkpt>
      <trkpt lat="48.12051" lon="3.53432">
        <ele>236.14</ele>
        <time>2016-10-09T09:36:10Z</time>
      </trkpt>
      <trkpt lat="48.12057" lon="3.53416">
        <ele>236.14</ele>
        <time>2016-10-09T09:36:20Z</time>
      </trkpt>
      <trkpt lat="48.12062" lon="3.53399">
        <ele>236.62</ele>
        <time>2016-10-09T09:36:30Z</time>
      </trkpt>
      <trkpt lat="48.12068" lon="3.53381">
        <ele>237.58</ele>
        <time>2016-10-09T09:36:41Z</time>
      </trkpt>
      <trkpt lat="48.12074" lon="3.53362">
        <ele>237.58</ele>
        <time>2016-10-09T09:36:52Z</time>
      </trkpt>
      <trkpt lat="48.1208" lon="3.53344">
        <ele>237.58</ele>
        <time>2016-10-09T09:37:03Z</time>
      </trkpt>
      <trkpt lat="48.12087" lon="3.53328">
        <ele>238.54</ele>
        <time>2016-10-09T09:37:13Z</time>
      </trkpt>
      <trkpt lat="48.12094" lon="3.53311">
        <ele>239.02</ele>
        <time>2016-10-09T09:37:24Z</time>
      </trkpt>
      <trkpt lat="48.12099" lon="3.53297">
        <ele>239.02</ele>
        <time>2016-10-09T09:37:33Z</time>
      </trkpt>
      <trkpt lat="48.12105" lon="3.53287">
        <ele>239.51</ele>
        <time>2016-10-09T09:37:41Z</time>
      </trkpt>
      <trkpt lat="48.12109" lon="3.53274">
        <ele>239.02</ele>
        <time>2016-10-09T09:37:50Z</time>
      </trkpt>
      <trkpt lat="48.12117" lon="3.53257">
        <ele>239.02</ele>
        <time>2016-10-09T09:38:02Z</time>
      </trkpt>
      <trkpt lat="48.12124" lon="3.5324">
        <ele>239.02</ele>
        <time>2016-10-09T09:38:12Z</time>
      </trkpt>
      <trkpt lat="48.12125" lon="3.53237">
        <ele>239.02</ele>
        <time>2016-10-09T09:38:14Z</time>
      </trkpt>
      <trkpt lat="48.12131" lon="3.53221">
        <ele>239.02</ele>
        <time>2016-10-09T09:38:25Z</time>
      </trkpt>
      <trkpt lat="48.12131" lon="3.53218">
        <ele>239.51</ele>
        <time>2016-10-09T09:38:31Z</time>
      </trkpt>
      <trkpt lat="48.12132" lon="3.53219">
        <ele>239.51</ele>
        <time>2016-10-09T09:38:38Z</time>
      </trkpt>
      <trkpt lat="48.12132" lon="3.53218">
        <ele>239.02</ele>
        <time>2016-10-09T09:38:47Z</time>
      </trkpt>
      <trkpt lat="48.12132" lon="3.53216">
        <ele>239.51</ele>
        <time>2016-10-09T09:38:54Z</time>
      </trkpt>
      <trkpt lat="48.12132" lon="3.53218">
        <ele>238.54</ele>
        <time>2016-10-09T09:39:07Z</time>
      </trkpt>
      <trkpt lat="48.12132" lon="3.53217">
        <ele>239.02</ele>
        <time>2016-10-09T09:39:18Z</time>
      </trkpt>
      <trkpt lat="48.12132" lon="3.53218">
        <ele>239.02</ele>
        <time>2016-10-09T09:39:26Z</time>
      </trkpt>
      <trkpt lat="48.12133" lon="3.53217">
        <ele>238.54</ele>
        <time>2016-10-09T09:39:33Z</time>
      </trkpt>
      <trkpt lat="48.12133" lon="3.53218">
        <ele>238.54</ele>
        <time>2016-10-09T09:39:49Z</time>
      </trkpt>
      <trkpt lat="48.12132" lon="3.53216">
        <ele>238.54</ele>
        <time>2016-10-09T09:39:59Z</time>
      </trkpt>
      <trkpt lat="48.12131" lon="3.53216">
        <ele>239.02</ele>
        <time>2016-10-09T09:40:07Z</time>
      </trkpt>
      <trkpt lat="48.12132" lon="3.53216">
        <ele>239.51</ele>
        <time>2016-10-09T09:40:16Z</time>
      </trkpt>
      <trkpt lat="48.12132" lon="3.53216">
        <ele>238.54</ele>
        <time>2016-10-09T09:40:28Z</time>
      </trkpt>
      <trkpt lat="48.12132" lon="3.53216">
        <ele>238.54</ele>
        <time>2016-10-09T09:40:37Z</time>
      </trkpt>
      <trkpt lat="48.12133" lon="3.53218">
        <ele>239.02</ele>
        <time>2016-10-09T09:40:49Z</time>
      </trkpt>
      <trkpt lat="48.12132" lon="3.53218">
        <ele>239.02</ele>
        <time>2016-10-09T09:40:56Z</time>
      </trkpt>
      <trkpt lat="48.12132" lon="3.53217">
        <ele>239.02</ele>
        <time>2016-10-09T09:41:04Z</time>
      </trkpt>
      <trkpt lat="48.12132" lon="3.53216">
        <ele>239.51</ele>
        <time>2016-10-09T09:41:15Z</time>
      </trkpt>
      <trkpt lat="48.12131" lon="3.53214">
        <ele>240.47</ele>
        <time>2016-10-09T09:41:25Z</time>
      </trkpt>
      <trkpt lat="48.12131" lon="3.53214">
        <ele>239.99</ele>
        <time>2016-10-09T09:41:38Z</time>
      </trkpt>
      <trkpt lat="48.12132" lon="3.53215">
        <ele>239.02</ele>
        <time>2016-10-09T09:41:51Z</time>
      </trkpt>
      <trkpt lat="48.12132" lon="3.53215">
        <ele>238.54</ele>
        <time>2016-10-09T09:42:02Z</time>
      </trkpt>
      <trkpt lat="48.12132" lon="3.53216">
        <ele>239.51</ele>
        <time>2016-10-09T09:42:16Z</time>
      </trkpt>
      <trkpt lat="48.12135" lon="3.53209">
        <ele>238.54</ele>
        <time>2016-10-09T09:42:24Z</time>
      </trkpt>
      <trkpt lat="48.12139" lon="3.53197">
        <ele>237.1</ele>
        <time>2016-10-09T09:42:33Z</time>
      </trkpt>
      <trkpt lat="48.12144" lon="3.53184">
        <ele>235.18</ele>
        <time>2016-10-09T09:42:42Z</time>
      </trkpt>
      <trkpt lat="48.12147" lon="3.53172">
        <ele>235.66</ele>
        <time>2016-10-09T09:42:49Z</time>
      </trkpt>
      <trkpt lat="48.12153" lon="3.53164">
        <ele>236.14</ele>
        <time>2016-10-09T09:42:55Z</time>
      </trkpt>
      <trkpt lat="48.1216" lon="3.53147">
        <ele>237.1</ele>
        <time>2016-10-09T09:43:06Z</time>
      </trkpt>
      <trkpt lat="48.12164" lon="3.53135">
        <ele>237.1</ele>
        <time>2016-10-09T09:43:15Z</time>
      </trkpt>
      <trkpt lat="48.1217" lon="3.5312">
        <ele>237.58</ele>
        <time>2016-10-09T09:43:25Z</time>
      </trkpt>
      <trkpt lat="48.12176" lon="3.53101">
        <ele>237.58</ele>
        <time>2016-10-09T09:43:36Z</time>
      </trkpt>
      <trkpt lat="48.12182" lon="3.53084">
        <ele>236.62</ele>
        <time>2016-10-09T09:43:46Z</time>
      </trkpt>
      <trkpt lat="48.12184" lon="3.53076">
        <ele>236.14</ele>
        <time>2016-10-09T09:43:53Z</time>
      </trkpt>
      <trkpt lat="48.12191" lon="3.53057">
        <ele>236.14</ele>
        <time>2016-10-09T09:44:04Z</time>
      </trkpt>
      <trkpt lat="48.12194" lon="3.53039">
        <ele>234.7</ele>
        <time>2016-10-09T09:44:14Z</time>
      </trkpt>
      <trkpt lat="48.12197" lon="3.53022">
        <ele>234.22</ele>
        <time>2016-10-09T09:44:24Z</time>
      </trkpt>
      <trkpt lat="48.12201" lon="3.53005">
        <ele>233.26</ele>
        <time>2016-10-09T09:44:33Z</time>
      </trkpt>
      <trkpt lat="48.12207" lon="3.52988">
        <ele>231.33</ele>
        <time>2016-10-09T09:44:43Z</time>
      </trkpt>
      <trkpt lat="48.12211" lon="3.52974">
        <ele>228.93</ele>
        <time>2016-10-09T09:44:51Z</time>
      </trkpt>
      <trkpt lat="48.12214" lon="3.52959">
        <ele>225.57</ele>
        <time>2016-10-09T09:45:00Z</time>
      </trkpt>
      <trkpt lat="48.12219" lon="3.52944">
        <ele>222.68</ele>
        <time>2016-10-09T09:45:10Z</time>
      </trkpt>
      <trkpt lat="48.12223" lon="3.52927">
        <ele>218.84</ele>
        <time>2016-10-09T09:45:20Z</time>
      </trkpt>
      <trkpt lat="48.12227" lon="3.52911">
        <ele>215.95</ele>
        <time>2016-10-09T09:45:29Z</time>
      </trkpt>
      <trkpt lat="48.12231" lon="3.52893">
        <ele>213.07</ele>
        <time>2016-10-09T09:45:40Z</time>
      </trkpt>
      <trkpt lat="48.12237" lon="3.52877">
        <ele>211.63</ele>
        <time>2016-10-09T09:45:50Z</time>
      </trkpt>
      <trkpt lat="48.12243" lon="3.52866">
        <ele>210.67</ele>
        <time>2016-10-09T09:45:58Z</time>
      </trkpt>
      <trkpt lat="48.12248" lon="3.52853">
        <ele>209.7</ele>
        <time>2016-10-09T09:46:07Z</time>
      </trkpt>
      <trkpt lat="48.12257" lon="3.52839">
        <ele>213.55</ele>
        <time>2016-10-09T09:46:16Z</time>
      </trkpt>
      <trkpt lat="48.12269" lon="3.5282">
        <ele>219.32</ele>
        <time>2016-10-09T09:46:27Z</time>
      </trkpt>
      <trkpt lat="48.12276" lon="3.52799">
        <ele>221.24</ele>
        <time>2016-10-09T09:46:38Z</time>
      </trkpt>
      <trkpt lat="48.12283" lon="3.5278">
        <ele>221.24</ele>
        <time>2016-10-09T09:46:49Z</time>
      </trkpt>
      <trkpt lat="48.12291" lon="3.52763">
        <ele>220.76</ele>
        <time>2016-10-09T09:47:00Z</time>
      </trkpt>
      <trkpt lat="48.12293" lon="3.52757">
        <ele>221.24</ele>
        <time>2016-10-09T09:47:04Z</time>
      </trkpt>
      <trkpt lat="48.12304" lon="3.52739">
        <ele>221.24</ele>
        <time>2016-10-09T09:47:17Z</time>
      </trkpt>
      <trkpt lat="48.1231" lon="3.52726">
        <ele>221.72</ele>
        <time>2016-10-09T09:47:25Z</time>
      </trkpt>
      <trkpt lat="48.12319" lon="3.52713">
        <ele>221.72</ele>
        <time>2016-10-09T09:47:35Z</time>
      </trkpt>
      <trkpt lat="48.12326" lon="3.52701">
        <ele>222.68</ele>
        <time>2016-10-09T09:47:44Z</time>
      </trkpt>
      <trkpt lat="48.12334" lon="3.52688">
        <ele>224.12</ele>
        <time>2016-10-09T09:47:54Z</time>
      </trkpt>
      <trkpt lat="48.12343" lon="3.52675">
        <ele>224.61</ele>
        <time>2016-10-09T09:48:04Z</time>
      </trkpt>
      <trkpt lat="48.12348" lon="3.52668">
        <ele>224.12</ele>
        <time>2016-10-09T09:48:11Z</time>
      </trkpt>
      <trkpt lat="48.12354" lon="3.52657">
        <ele>222.68</ele>
        <time>2016-10-09T09:48:21Z</time>
      </trkpt>
      <trkpt lat="48.12359" lon="3.52643">
        <ele>221.24</ele>
        <time>2016-10-09T09:48:31Z</time>
      </trkpt>
      <trkpt lat="48.1236" lon="3.52642">
        <ele>221.24</ele>
        <time>2016-10-09T09:48:32Z</time>
      </trkpt>
      <trkpt lat="48.12366" lon="3.5263">
        <ele>221.72</ele>
        <time>2016-10-09T09:48:41Z</time>
      </trkpt>
      <trkpt lat="48.12374" lon="3.52616">
        <ele>225.09</ele>
        <time>2016-10-09T09:48:51Z</time>
      </trkpt>
      <trkpt lat="48.1238" lon="3.52605">
        <ele>227.01</ele>
        <time>2016-10-09T09:48:59Z</time>
      </trkpt>
      <trkpt lat="48.12384" lon="3.52597">
        <ele>228.45</ele>
        <time>2016-10-09T09:49:05Z</time>
      </trkpt>
      <trkpt lat="48.12391" lon="3.52581">
        <ele>229.89</ele>
        <time>2016-10-09T09:49:16Z</time>
      </trkpt>
      <trkpt lat="48.12397" lon="3.52568">
        <ele>230.85</ele>
        <time>2016-10-09T09:49:25Z</time>
      </trkpt>
      <trkpt lat="48.12403" lon="3.52555">
        <ele>232.3</ele>
        <time>2016-10-09T09:49:34Z</time>
      </trkpt>
      <trkpt lat="48.1241" lon="3.52541">
        <ele>233.74</ele>
        <time>2016-10-09T09:49:43Z</time>
      </trkpt>
      <trkpt lat="48.12416" lon="3.52527">
        <ele>235.18</ele>
        <time>2016-10-09T09:49:52Z</time>
      </trkpt>
      <trkpt lat="48.12421" lon="3.52513">
        <ele>236.14</ele>
        <time>2016-10-09T09:50:01Z</time>
      </trkpt>
      <trkpt lat="48.12426" lon="3.52497">
        <ele>236.62</ele>
        <time>2016-10-09T09:50:11Z</time>
      </trkpt>
      <trkpt lat="48.1243" lon="3.52484">
        <ele>236.14</ele>
        <time>2016-10-09T09:50:20Z</time>
      </trkpt>
      <trkpt lat="48.12434" lon="3.52471">
        <ele>234.7</ele>
        <time>2016-10-09T09:50:29Z</time>
      </trkpt>
      <trkpt lat="48.1244" lon="3.52452">
        <ele>233.74</ele>
        <time>2016-10-09T09:50:41Z</time>
      </trkpt>
      <trkpt lat="48.12446" lon="3.52431">
        <ele>233.74</ele>
        <time>2016-10-09T09:50:54Z</time>
      </trkpt>
      <trkpt lat="48.12452" lon="3.52413">
        <ele>232.78</ele>
        <time>2016-10-09T09:51:05Z</time>
      </trkpt>
      <trkpt lat="48.12459" lon="3.52393">
        <ele>230.85</ele>
        <time>2016-10-09T09:51:18Z</time>
      </trkpt>
      <trkpt lat="48.12465" lon="3.52374">
        <ele>228.93</ele>
        <time>2016-10-09T09:51:29Z</time>
      </trkpt>
      <trkpt lat="48.12471" lon="3.52352">
        <ele>227.97</ele>
        <time>2016-10-09T09:51:42Z</time>
      </trkpt>
      <trkpt lat="48.12475" lon="3.52334">
        <ele>227.49</ele>
        <time>2016-10-09T09:51:52Z</time>
      </trkpt>
      <trkpt lat="48.12481" lon="3.52318">
        <ele>226.53</ele>
        <time>2016-10-09T09:52:02Z</time>
      </trkpt>
      <trkpt lat="48.12486" lon="3.52297">
        <ele>226.53</ele>
        <time>2016-10-09T09:52:14Z</time>
      </trkpt>
      <trkpt lat="48.12491" lon="3.52278">
        <ele>226.53</ele>
        <time>2016-10-09T09:52:25Z</time>
      </trkpt>
      <trkpt lat="48.12496" lon="3.52259">
        <ele>226.53</ele>
        <time>2016-10-09T09:52:36Z</time>
      </trkpt>
      <trkpt lat="48.12503" lon="3.52238">
        <ele>225.57</ele>
        <time>2016-10-09T09:52:49Z</time>
      </trkpt>
      <trkpt lat="48.12509" lon="3.52218">
        <ele>225.09</ele>
        <time>2016-10-09T09:53:01Z</time>
      </trkpt>
      <trkpt lat="48.12513" lon="3.522">
        <ele>225.57</ele>
        <time>2016-10-09T09:53:11Z</time>
      </trkpt>
      <trkpt lat="48.12522" lon="3.52177">
        <ele>225.09</ele>
        <time>2016-10-09T09:53:26Z</time>
      </trkpt>
      <trkpt lat="48.12529" lon="3.52158">
        <ele>224.61</ele>
        <time>2016-10-09T09:53:37Z</time>
      </trkpt>
      <trkpt lat="48.12536" lon="3.52141">
        <ele>224.61</ele>
        <time>2016-10-09T09:53:48Z</time>
      </trkpt>
      <trkpt lat="48.12543" lon="3.52123">
        <ele>224.12</ele>
        <time>2016-10-09T09:53:59Z</time>
      </trkpt>
      <trkpt lat="48.12549" lon="3.52109">
        <ele>223.16</ele>
        <time>2016-10-09T09:54:09Z</time>
      </trkpt>
      <trkpt lat="48.12556" lon="3.52091">
        <ele>222.2</ele>
        <time>2016-10-09T09:54:20Z</time>
      </trkpt>
      <trkpt lat="48.12563" lon="3.52071">
        <ele>221.72</ele>
        <time>2016-10-09T09:54:32Z</time>
      </trkpt>
      <trkpt lat="48.1257" lon="3.5205">
        <ele>220.76</ele>
        <time>2016-10-09T09:54:44Z</time>
      </trkpt>
      <trkpt lat="48.1258" lon="3.52029">
        <ele>219.8</ele>
        <time>2016-10-09T09:54:57Z</time>
      </trkpt>
      <trkpt lat="48.12587" lon="3.52008">
        <ele>218.84</ele>
        <time>2016-10-09T09:55:10Z</time>
      </trkpt>
      <trkpt lat="48.12593" lon="3.51993">
        <ele>217.88</ele>
        <time>2016-10-09T09:55:20Z</time>
      </trkpt>
      <trkpt lat="48.12598" lon="3.51976">
        <ele>216.91</ele>
        <time>2016-10-09T09:55:30Z</time>
      </trkpt>
      <trkpt lat="48.12602" lon="3.5196">
        <ele>216.91</ele>
        <time>2016-10-09T09:55:39Z</time>
      </trkpt>
      <trkpt lat="48.12607" lon="3.51949">
        <ele>217.4</ele>
        <time>2016-10-09T09:55:46Z</time>
      </trkpt>
      <trkpt lat="48.12615" lon="3.51933">
        <ele>217.4</ele>
        <time>2016-10-09T09:55:57Z</time>
      </trkpt>
      <trkpt lat="48.12618" lon="3.51925">
        <ele>216.91</ele>
        <time>2016-10-09T09:56:04Z</time>
      </trkpt>
      <trkpt lat="48.1262" lon="3.51921">
        <ele>217.4</ele>
        <time>2016-10-09T09:56:10Z</time>
      </trkpt>
      <trkpt lat="48.12621" lon="3.51919">
        <ele>216.43</ele>
        <time>2016-10-09T09:56:16Z</time>
      </trkpt>
      <trkpt lat="48.1262" lon="3.5192">
        <ele>216.91</ele>
        <time>2016-10-09T09:56:32Z</time>
      </trkpt>
      <trkpt lat="48.12621" lon="3.51919">
        <ele>217.4</ele>
        <time>2016-10-09T09:56:46Z</time>
      </trkpt>
      <trkpt lat="48.12621" lon="3.51917">
        <ele>217.4</ele>
        <time>2016-10-09T09:56:57Z</time>
      </trkpt>
      <trkpt lat="48.12622" lon="3.51917">
        <ele>217.4</ele>
        <time>2016-10-09T09:57:06Z</time>
      </trkpt>
      <trkpt lat="48.12622" lon="3.51916">
        <ele>218.36</ele>
        <time>2016-10-09T09:57:16Z</time>
      </trkpt>
      <trkpt lat="48.12622" lon="3.51916">
        <ele>218.36</ele>
        <time>2016-10-09T09:57:28Z</time>
      </trkpt>
      <trkpt lat="48.12622" lon="3.51916">
        <ele>218.84</ele>
        <time>2016-10-09T09:57:43Z</time>
      </trkpt>
      <trkpt lat="48.12622" lon="3.51915">
        <ele>218.36</ele>
        <time>2016-10-09T09:57:57Z</time>
      </trkpt>
      <trkpt lat="48.1262" lon="3.51916">
        <ele>217.88</ele>
        <time>2016-10-09T09:58:06Z</time>
      </trkpt>
      <trkpt lat="48.12618" lon="3.51918">
        <ele>216.43</ele>
        <time>2016-10-09T09:58:14Z</time>
      </trkpt>
      <trkpt lat="48.12618" lon="3.51918">
        <ele>216.91</ele>
        <time>2016-10-09T09:58:26Z</time>
      </trkpt>
      <trkpt lat="48.12619" lon="3.51919">
        <ele>216.43</ele>
        <time>2016-10-09T09:58:38Z</time>
      </trkpt>
      <trkpt lat="48.12618" lon="3.51918">
        <ele>216.91</ele>
        <time>2016-10-09T09:58:47Z</time>
      </trkpt>
      <trkpt lat="48.12618" lon="3.51918">
        <ele>217.4</ele>
        <time>2016-10-09T09:58:57Z</time>
      </trkpt>
      <trkpt lat="48.12618" lon="3.51917">
        <ele>216.91</ele>
        <time>2016-10-09T09:59:04Z</time>
      </trkpt>
      <trkpt lat="48.12623" lon="3.51911">
        <ele>216.91</ele>
        <time>2016-10-09T09:59:12Z</time>
      </trkpt>
      <trkpt lat="48.12625" lon="3.51906">
        <ele>216.43</ele>
        <time>2016-10-09T09:59:18Z</time>
      </trkpt>
      <trkpt lat="48.12631" lon="3.51893">
        <ele>217.88</ele>
        <time>2016-10-09T09:59:29Z</time>
      </trkpt>
      <trkpt lat="48.12633" lon="3.51888">
        <ele>219.32</ele>
        <time>2016-10-09T09:59:37Z</time>
      </trkpt>
      <trkpt lat="48.12634" lon="3.51881">
        <ele>219.8</ele>
        <time>2016-10-09T09:59:44Z</time>
      </trkpt>
      <trkpt lat="48.1264" lon="3.51868">
        <ele>219.8</ele>
        <time>2016-10-09T09:59:55Z</time>
      </trkpt>
      <trkpt lat="48.12645" lon="3.51853">
        <ele>219.32</ele>
        <time>2016-10-09T10:00:06Z</time>
      </trkpt>
      <trkpt lat="48.12649" lon="3.51845">
        <ele>219.8</ele>
        <time>2016-10-09T10:00:12Z</time>
      </trkpt>
      <trkpt lat="48.12655" lon="3.51829">
        <ele>220.76</ele>
        <time>2016-10-09T10:00:22Z</time>
      </trkpt>
      <trkpt lat="48.12656" lon="3.51825">
        <ele>220.28</ele>
        <time>2016-10-09T10:00:25Z</time>
      </trkpt>
      <trkpt lat="48.12662" lon="3.51811">
        <ele>218.36</ele>
        <time>2016-10-09T10:00:35Z</time>
      </trkpt>
      <trkpt lat="48.12671" lon="3.51799">
        <ele>218.84</ele>
        <time>2016-10-09T10:00:45Z</time>
      </trkpt>
      <trkpt lat="48.12681" lon="3.5179">
        <ele>219.8</ele>
        <time>2016-10-09T10:00:54Z</time>
      </trkpt>
      <trkpt lat="48.12693" lon="3.51783">
        <ele>218.84</ele>
        <time>2016-10-09T10:01:05Z</time>
      </trkpt>
      <trkpt lat="48.12698" lon="3.51778">
        <ele>218.84</ele>
        <time>2016-10-09T10:01:11Z</time>
      </trkpt>
      <trkpt lat="48.1271" lon="3.51764">
        <ele>220.76</ele>
        <time>2016-10-09T10:01:23Z</time>
      </trkpt>
      <trkpt lat="48.12723" lon="3.5175">
        <ele>222.68</ele>
        <time>2016-10-09T10:01:35Z</time>
      </trkpt>
      <trkpt lat="48.1273" lon="3.51736">
        <ele>223.16</ele>
        <time>2016-10-09T10:01:44Z</time>
      </trkpt>
      <trkpt lat="48.12737" lon="3.51722">
        <ele>223.16</ele>
        <time>2016-10-09T10:01:54Z</time>
      </trkpt>
      <trkpt lat="48.12742" lon="3.51705">
        <ele>222.68</ele>
        <time>2016-10-09T10:02:04Z</time>
      </trkpt>
      <trkpt lat="48.12749" lon="3.51687">
        <ele>221.24</ele>
        <time>2016-10-09T10:02:15Z</time>
      </trkpt>
      <trkpt lat="48.12757" lon="3.51665">
        <ele>221.72</ele>
        <time>2016-10-09T10:02:28Z</time>
      </trkpt>
      <trkpt lat="48.12765" lon="3.51643">
        <ele>220.76</ele>
        <time>2016-10-09T10:02:40Z</time>
      </trkpt>
      <trkpt lat="48.12771" lon="3.51624">
        <ele>221.24</ele>
        <time>2016-10-09T10:02:51Z</time>
      </trkpt>
      <trkpt lat="48.12776" lon="3.51604">
        <ele>220.76</ele>
        <time>2016-10-09T10:03:02Z</time>
      </trkpt>
      <trkpt lat="48.1278" lon="3.51579">
        <ele>220.28</ele>
        <time>2016-10-09T10:03:15Z</time>
      </trkpt>
      <trkpt lat="48.12786" lon="3.51554">
        <ele>218.36</ele>
        <time>2016-10-09T10:03:28Z</time>
      </trkpt>
      <trkpt lat="48.12787" lon="3.51547">
        <ele>218.36</ele>
        <time>2016-10-09T10:03:34Z</time>
      </trkpt>
      <trkpt lat="48.12791" lon="3.51524">
        <ele>217.4</ele>
        <time>2016-10-09T10:03:46Z</time>
      </trkpt>
      <trkpt lat="48.12796" lon="3.51499">
        <ele>216.43</ele>
        <time>2016-10-09T10:03:59Z</time>
      </trkpt>
      <trkpt lat="48.12801" lon="3.51475">
        <ele>215.95</ele>
        <time>2016-10-09T10:04:11Z</time>
      </trkpt>
      <trkpt lat="48.12805" lon="3.51449">
        <ele>214.99</ele>
        <time>2016-10-09T10:04:24Z</time>
      </trkpt>
      <trkpt lat="48.12809" lon="3.51425">
        <ele>214.51</ele>
        <time>2016-10-09T10:04:36Z</time>
      </trkpt>
      <trkpt lat="48.12812" lon="3.51407">
        <ele>214.51</ele>
        <time>2016-10-09T10:04:46Z</time>
      </trkpt>
      <trkpt lat="48.12814" lon="3.51397">
        <ele>214.03</ele>
        <time>2016-10-09T10:04:54Z</time>
      </trkpt>
      <trkpt lat="48.12815" lon="3.51387">
        <ele>214.03</ele>
        <time>2016-10-09T10:05:01Z</time>
      </trkpt>
      <trkpt lat="48.12817" lon="3.51382">
        <ele>214.03</ele>
        <time>2016-10-09T10:05:07Z</time>
      </trkpt>
      <trkpt lat="48.12821" lon="3.51366">
        <ele>213.55</ele>
        <time>2016-10-09T10:05:16Z</time>
      </trkpt>
      <trkpt lat="48.12825" lon="3.51343">
        <ele>213.55</ele>
        <time>2016-10-09T10:05:28Z</time>
      </trkpt>
      <trkpt lat="48.1283" lon="3.51318">
        <ele>213.07</ele>
        <time>2016-10-09T10:05:41Z</time>
      </trkpt>
      <trkpt lat="48.12835" lon="3.51292">
        <ele>212.11</ele>
        <time>2016-10-09T10:05:54Z</time>
      </trkpt>
      <trkpt lat="48.12838" lon="3.51272">
        <ele>212.11</ele>
        <time>2016-10-09T10:06:05Z</time>
      </trkpt>
      <trkpt lat="48.1284" lon="3.5125">
        <ele>211.63</ele>
        <time>2016-10-09T10:06:16Z</time>
      </trkpt>
      <trkpt lat="48.12844" lon="3.51224">
        <ele>211.63</ele>
        <time>2016-10-09T10:06:30Z</time>
      </trkpt>
      <trkpt lat="48.12848" lon="3.51197">
        <ele>211.63</ele>
        <time>2016-10-09T10:06:44Z</time>
      </trkpt>
      <trkpt lat="48.12851" lon="3.51172">
        <ele>211.15</ele>
        <time>2016-10-09T10:06:57Z</time>
      </trkpt>
      <trkpt lat="48.12853" lon="3.51154">
        <ele>211.63</ele>
        <time>2016-10-09T10:07:07Z</time>
      </trkpt>
      <trkpt lat="48.12856" lon="3.5113">
        <ele>211.15</ele>
        <time>2016-10-09T10:07:19Z</time>
      </trkpt>
      <trkpt lat="48.12862" lon="3.51108">
        <ele>211.63</ele>
        <time>2016-10-09T10:07:32Z</time>
      </trkpt>
      <trkpt lat="48.12866" lon="3.51087">
        <ele>210.19</ele>
        <time>2016-10-09T10:07:43Z</time>
      </trkpt>
      <trkpt lat="48.12872" lon="3.51063">
        <ele>211.15</ele>
        <time>2016-10-09T10:07:56Z</time>
      </trkpt>
      <trkpt lat="48.1288" lon="3.51035">
        <ele>213.07</ele>
        <time>2016-10-09T10:08:11Z</time>
      </trkpt>
      <trkpt lat="48.12884" lon="3.51018">
        <ele>212.59</ele>
        <time>2016-10-09T10:08:20Z</time>
      </trkpt>
      <trkpt lat="48.12887" lon="3.51001">
        <ele>214.51</ele>
        <time>2016-10-09T10:08:29Z</time>
      </trkpt>
      <trkpt lat="48.12893" lon="3.50982">
        <ele>214.51</ele>
        <time>2016-10-09T10:08:40Z</time>
      </trkpt>
      <trkpt lat="48.12899" lon="3.50964">
        <ele>214.51</ele>
        <time>2016-10-09T10:08:51Z</time>
      </trkpt>
      <trkpt lat="48.12901" lon="3.50949">
        <ele>215.47</ele>
        <time>2016-10-09T10:08:59Z</time>
      </trkpt>
      <trkpt lat="48.12906" lon="3.50934">
        <ele>215.47</ele>
        <time>2016-10-09T10:09:08Z</time>
      </trkpt>
      <trkpt lat="48.12911" lon="3.50915">
        <ele>215.95</ele>
        <time>2016-10-09T10:09:19Z</time>
      </trkpt>
      <trkpt lat="48.12915" lon="3.50901">
        <ele>216.43</ele>
        <time>2016-10-09T10:09:28Z</time>
      </trkpt>
      <trkpt lat="48.12918" lon="3.50883">
        <ele>217.88</ele>
        <time>2016-10-09T10:09:38Z</time>
      </trkpt>
      <trkpt lat="48.12921" lon="3.50875">
        <ele>218.36</ele>
        <time>2016-10-09T10:09:43Z</time>
      </trkpt>
      <trkpt lat="48.12925" lon="3.50857">
        <ele>218.36</ele>
        <time>2016-10-09T10:09:54Z</time>
      </trkpt>
      <trkpt lat="48.1293" lon="3.50836">
        <ele>218.36</ele>
        <time>2016-10-09T10:10:06Z</time>
      </trkpt>
      <trkpt lat="48.12934" lon="3.50821">
        <ele>219.32</ele>
        <time>2016-10-09T10:10:16Z</time>
      </trkpt>
      <trkpt lat="48.12938" lon="3.50804">
        <ele>218.84</ele>
        <time>2016-10-09T10:10:26Z</time>
      </trkpt>
      <trkpt lat="48.12942" lon="3.50793">
        <ele>219.32</ele>
        <time>2016-10-09T10:10:35Z</time>
      </trkpt>
      <trkpt lat="48.12943" lon="3.50785">
        <ele>219.32</ele>
        <time>2016-10-09T10:10:42Z</time>
      </trkpt>
      <trkpt lat="48.12946" lon="3.5077">
        <ele>219.32</ele>
        <time>2016-10-09T10:10:51Z</time>
      </trkpt>
      <trkpt lat="48.12952" lon="3.50752">
        <ele>218.84</ele>
        <time>2016-10-09T10:11:02Z</time>
      </trkpt>
      <trkpt lat="48.12954" lon="3.50728">
        <ele>218.84</ele>
        <time>2016-10-09T10:11:15Z</time>
      </trkpt>
      <trkpt lat="48.12956" lon="3.50709">
        <ele>218.36</ele>
        <time>2016-10-09T10:11:26Z</time>
      </trkpt>
      <trkpt lat="48.12957" lon="3.50695">
        <ele>219.32</ele>
        <time>2016-10-09T10:11:35Z</time>
      </trkpt>
      <trkpt lat="48.12958" lon="3.50674">
        <ele>218.36</ele>
        <time>2016-10-09T10:11:47Z</time>
      </trkpt>
      <trkpt lat="48.1296" lon="3.50654">
        <ele>218.36</ele>
        <time>2016-10-09T10:11:58Z</time>
      </trkpt>
      <trkpt lat="48.12962" lon="3.50634">
        <ele>217.4</ele>
        <time>2016-10-09T10:12:09Z</time>
      </trkpt>
      <trkpt lat="48.12963" lon="3.50614">
        <ele>216.91</ele>
        <time>2016-10-09T10:12:20Z</time>
      </trkpt>
      <trkpt lat="48.12966" lon="3.50595">
        <ele>217.4</ele>
        <time>2016-10-09T10:12:30Z</time>
      </trkpt>
      <trkpt lat="48.12967" lon="3.50571">
        <ele>217.4</ele>
        <time>2016-10-09T10:12:42Z</time>
      </trkpt>
      <trkpt lat="48.12969" lon="3.5055">
        <ele>216.91</ele>
        <time>2016-10-09T10:12:53Z</time>
      </trkpt>
      <trkpt lat="48.12973" lon="3.50531">
        <ele>216.91</ele>
        <time>2016-10-09T10:13:04Z</time>
      </trkpt>
      <trkpt lat="48.12975" lon="3.50509">
        <ele>215.95</ele>
        <time>2016-10-09T10:13:16Z</time>
      </trkpt>
      <trkpt lat="48.12977" lon="3.50493">
        <ele>214.51</ele>
        <time>2016-10-09T10:13:25Z</time>
      </trkpt>
      <trkpt lat="48.12981" lon="3.50469">
        <ele>214.03</ele>
        <time>2016-10-09T10:13:38Z</time>
      </trkpt>
      <trkpt lat="48.12983" lon="3.50444">
        <ele>214.03</ele>
        <time>2016-10-09T10:13:51Z</time>
      </trkpt>
      <trkpt lat="48.12985" lon="3.50424">
        <ele>213.07</ele>
        <time>2016-10-09T10:14:02Z</time>
      </trkpt>
      <trkpt lat="48.12986" lon="3.50417">
        <ele>212.59</ele>
        <time>2016-10-09T10:14:06Z</time>
      </trkpt>
      <trkpt lat="48.12988" lon="3.50393">
        <ele>211.15</ele>
        <time>2016-10-09T10:14:19Z</time>
      </trkpt>
      <trkpt lat="48.1299" lon="3.50376">
        <ele>211.15</ele>
        <time>2016-10-09T10:14:28Z</time>
      </trkpt>
      <trkpt lat="48.12992" lon="3.50359">
        <ele>211.15</ele>
        <time>2016-10-09T10:14:37Z</time>
      </trkpt>
      <trkpt lat="48.12993" lon="3.50333">
        <ele>210.19</ele>
        <time>2016-10-09T10:14:51Z</time>
      </trkpt>
      <trkpt lat="48.12995" lon="3.5031">
        <ele>208.26</ele>
        <time>2016-10-09T10:15:03Z</time>
      </trkpt>
      <trkpt lat="48.12999" lon="3.50292">
        <ele>207.3</ele>
        <time>2016-10-09T10:15:13Z</time>
      </trkpt>
      <trkpt lat="48.13005" lon="3.50273">
        <ele>206.82</ele>
        <time>2016-10-09T10:15:25Z</time>
      </trkpt>
      <trkpt lat="48.13011" lon="3.50252">
        <ele>205.38</ele>
        <time>2016-10-09T10:15:37Z</time>
      </trkpt>
      <trkpt lat="48.13011" lon="3.50236">
        <ele>204.9</ele>
        <time>2016-10-09T10:15:46Z</time>
      </trkpt>
      <trkpt lat="48.13012" lon="3.50217">
        <ele>203.46</ele>
        <time>2016-10-09T10:15:56Z</time>
      </trkpt>
      <trkpt lat="48.13013" lon="3.50202">
        <ele>201.53</ele>
        <time>2016-10-09T10:16:05Z</time>
      </trkpt>
      <trkpt lat="48.13012" lon="3.50196">
        <ele>201.05</ele>
        <time>2016-10-09T10:16:09Z</time>
      </trkpt>
      <trkpt lat="48.13011" lon="3.50178">
        <ele>199.61</ele>
        <time>2016-10-09T10:16:19Z</time>
      </trkpt>
      <trkpt lat="48.13011" lon="3.50164">
        <ele>197.21</ele>
        <time>2016-10-09T10:16:28Z</time>
      </trkpt>
      <trkpt lat="48.13009" lon="3.50153">
        <ele>195.77</ele>
        <time>2016-10-09T10:16:35Z</time>
      </trkpt>
      <trkpt lat="48.13006" lon="3.50135">
        <ele>194.32</ele>
        <time>2016-10-09T10:16:46Z</time>
      </trkpt>
      <trkpt lat="48.13004" lon="3.50116">
        <ele>192.4</ele>
        <time>2016-10-09T10:16:57Z</time>
      </trkpt>
      <trkpt lat="48.13003" lon="3.50097">
        <ele>190.96</ele>
        <time>2016-10-09T10:17:08Z</time>
      </trkpt>
      <trkpt lat="48.13" lon="3.5008">
        <ele>189.52</ele>
        <time>2016-10-09T10:17:18Z</time>
      </trkpt>
      <trkpt lat="48.12999" lon="3.50063">
        <ele>187.11</ele>
        <time>2016-10-09T10:17:29Z</time>
      </trkpt>
      <trkpt lat="48.12997" lon="3.50047">
        <ele>185.67</ele>
        <time>2016-10-09T10:17:39Z</time>
      </trkpt>
      <trkpt lat="48.12995" lon="3.50032">
        <ele>184.23</ele>
        <time>2016-10-09T10:17:48Z</time>
      </trkpt>
      <trkpt lat="48.12996" lon="3.50018">
        <ele>181.83</ele>
        <time>2016-10-09T10:17:57Z</time>
      </trkpt>
      <trkpt lat="48.12998" lon="3.50006">
        <ele>180.38</ele>
        <time>2016-10-09T10:18:04Z</time>
      </trkpt>
      <trkpt lat="48.13" lon="3.49995">
        <ele>180.38</ele>
        <time>2016-10-09T10:18:11Z</time>
      </trkpt>
      <trkpt lat="48.13008" lon="3.49976">
        <ele>179.9</ele>
        <time>2016-10-09T10:18:24Z</time>
      </trkpt>
      <trkpt lat="48.13014" lon="3.49957">
        <ele>178.94</ele>
        <time>2016-10-09T10:18:36Z</time>
      </trkpt>
      <trkpt lat="48.13018" lon="3.49941">
        <ele>178.94</ele>
        <time>2016-10-09T10:18:45Z</time>
      </trkpt>
      <trkpt lat="48.13019" lon="3.49925">
        <ele>177.98</ele>
        <time>2016-10-09T10:18:53Z</time>
      </trkpt>
      <trkpt lat="48.13022" lon="3.4991">
        <ele>176.54</ele>
        <time>2016-10-09T10:19:03Z</time>
      </trkpt>
      <trkpt lat="48.13025" lon="3.49898">
        <ele>175.1</ele>
        <time>2016-10-09T10:19:10Z</time>
      </trkpt>
      <trkpt lat="48.13029" lon="3.49882">
        <ele>172.69</ele>
        <time>2016-10-09T10:19:21Z</time>
      </trkpt>
      <trkpt lat="48.13032" lon="3.49866">
        <ele>170.77</ele>
        <time>2016-10-09T10:19:30Z</time>
      </trkpt>
      <trkpt lat="48.13035" lon="3.4985">
        <ele>168.85</ele>
        <time>2016-10-09T10:19:40Z</time>
      </trkpt>
      <trkpt lat="48.13034" lon="3.49836">
        <ele>169.81</ele>
        <time>2016-10-09T10:19:48Z</time>
      </trkpt>
      <trkpt lat="48.13035" lon="3.49826">
        <ele>169.81</ele>
        <time>2016-10-09T10:19:54Z</time>
      </trkpt>
      <trkpt lat="48.13036" lon="3.49808">
        <ele>169.33</ele>
        <time>2016-10-09T10:20:03Z</time>
      </trkpt>
      <trkpt lat="48.13038" lon="3.49788">
        <ele>168.37</ele>
        <time>2016-10-09T10:20:14Z</time>
      </trkpt>
      <trkpt lat="48.13039" lon="3.49772">
        <ele>168.37</ele>
        <time>2016-10-09T10:20:22Z</time>
      </trkpt>
      <trkpt lat="48.13043" lon="3.49754">
        <ele>167.89</ele>
        <time>2016-10-09T10:20:32Z</time>
      </trkpt>
      <trkpt lat="48.13046" lon="3.49738">
        <ele>166.45</ele>
        <time>2016-10-09T10:20:42Z</time>
      </trkpt>
      <trkpt lat="48.13048" lon="3.4972">
        <ele>165.96</ele>
        <time>2016-10-09T10:20:52Z</time>
      </trkpt>
      <trkpt lat="48.13049" lon="3.497">
        <ele>165</ele>
        <time>2016-10-09T10:21:03Z</time>
      </trkpt>
      <trkpt lat="48.13053" lon="3.49678">
        <ele>164.52</ele>
        <time>2016-10-09T10:21:15Z</time>
      </trkpt>
      <trkpt lat="48.13056" lon="3.49661">
        <ele>164.04</ele>
        <time>2016-10-09T10:21:25Z</time>
      </trkpt>
      <trkpt lat="48.1306" lon="3.49641">
        <ele>163.56</ele>
        <time>2016-10-09T10:21:36Z</time>
      </trkpt>
      <trkpt lat="48.13064" lon="3.49629">
        <ele>162.6</ele>
        <time>2016-10-09T10:21:44Z</time>
      </trkpt>
      <trkpt lat="48.13069" lon="3.49614">
        <ele>161.16</ele>
        <time>2016-10-09T10:21:53Z</time>
      </trkpt>
      <trkpt lat="48.13074" lon="3.49596">
        <ele>160.2</ele>
        <time>2016-10-09T10:22:03Z</time>
      </trkpt>
      <trkpt lat="48.13078" lon="3.49578">
        <ele>161.16</ele>
        <time>2016-10-09T10:22:13Z</time>
      </trkpt>
      <trkpt lat="48.13083" lon="3.49561">
        <ele>160.68</ele>
        <time>2016-10-09T10:22:23Z</time>
      </trkpt>
      <trkpt lat="48.13089" lon="3.49541">
        <ele>159.24</ele>
        <time>2016-10-09T10:22:35Z</time>
      </trkpt>
      <trkpt lat="48.13094" lon="3.49523">
        <ele>159.24</ele>
        <time>2016-10-09T10:22:45Z</time>
      </trkpt>
      <trkpt lat="48.13099" lon="3.495">
        <ele>159.72</ele>
        <time>2016-10-09T10:22:57Z</time>
      </trkpt>
      <trkpt lat="48.13107" lon="3.49479">
        <ele>158.75</ele>
        <time>2016-10-09T10:23:10Z</time>
      </trkpt>
      <trkpt lat="48.13112" lon="3.49462">
        <ele>158.27</ele>
        <time>2016-10-09T10:23:20Z</time>
      </trkpt>
      <trkpt lat="48.13115" lon="3.49443">
        <ele>157.79</ele>
        <time>2016-10-09T10:23:31Z</time>
      </trkpt>
      <trkpt lat="48.13118" lon="3.49419">
        <ele>156.83</ele>
        <time>2016-10-09T10:23:44Z</time>
      </trkpt>
      <trkpt lat="48.13119" lon="3.49401">
        <ele>157.31</ele>
        <time>2016-10-09T10:23:54Z</time>
      </trkpt>
      <trkpt lat="48.1312" lon="3.49387">
        <ele>155.87</ele>
        <time>2016-10-09T10:24:02Z</time>
      </trkpt>
      <trkpt lat="48.13121" lon="3.49382">
        <ele>155.87</ele>
        <time>2016-10-09T10:24:05Z</time>
      </trkpt>
      <trkpt lat="48.13122" lon="3.49366">
        <ele>155.39</ele>
        <time>2016-10-09T10:24:14Z</time>
      </trkpt>
      <trkpt lat="48.13127" lon="3.49351">
        <ele>154.91</ele>
        <time>2016-10-09T10:24:24Z</time>
      </trkpt>
      <trkpt lat="48.13132" lon="3.49332">
        <ele>154.43</ele>
        <time>2016-10-09T10:24:35Z</time>
      </trkpt>
      <trkpt lat="48.13136" lon="3.49315">
        <ele>153.47</ele>
        <time>2016-10-09T10:24:45Z</time>
      </trkpt>
      <trkpt lat="48.13139" lon="3.49303">
        <ele>152.99</ele>
        <time>2016-10-09T10:24:53Z</time>
      </trkpt>
      <trkpt lat="48.13142" lon="3.49285">
        <ele>152.51</ele>
        <time>2016-10-09T10:25:03Z</time>
      </trkpt>
      <trkpt lat="48.13147" lon="3.49263">
        <ele>153.47</ele>
        <time>2016-10-09T10:25:15Z</time>
      </trkpt>
      <trkpt lat="48.13149" lon="3.49246">
        <ele>152.99</ele>
        <time>2016-10-09T10:25:24Z</time>
      </trkpt>
      <trkpt lat="48.1315" lon="3.4923">
        <ele>152.99</ele>
        <time>2016-10-09T10:25:33Z</time>
      </trkpt>
      <trkpt lat="48.13152" lon="3.4921">
        <ele>152.99</ele>
        <time>2016-10-09T10:25:44Z</time>
      </trkpt>
      <trkpt lat="48.13154" lon="3.4919">
        <ele>152.03</ele>
        <time>2016-10-09T10:25:56Z</time>
      </trkpt>
      <trkpt lat="48.13154" lon="3.49169">
        <ele>150.58</ele>
        <time>2016-10-09T10:26:08Z</time>
      </trkpt>
      <trkpt lat="48.13153" lon="3.49152">
        <ele>150.1</ele>
        <time>2016-10-09T10:26:18Z</time>
      </trkpt>
      <trkpt lat="48.13153" lon="3.49132">
        <ele>149.14</ele>
        <time>2016-10-09T10:26:29Z</time>
      </trkpt>
      <trkpt lat="48.13151" lon="3.49113">
        <ele>149.14</ele>
        <time>2016-10-09T10:26:39Z</time>
      </trkpt>
      <trkpt lat="48.13151" lon="3.49088">
        <ele>150.1</ele>
        <time>2016-10-09T10:26:51Z</time>
      </trkpt>
      <trkpt lat="48.13148" lon="3.4907">
        <ele>148.66</ele>
        <time>2016-10-09T10:27:02Z</time>
      </trkpt>
      <trkpt lat="48.13148" lon="3.49048">
        <ele>146.74</ele>
        <time>2016-10-09T10:27:13Z</time>
      </trkpt>
      <trkpt lat="48.13148" lon="3.49031">
        <ele>146.26</ele>
        <time>2016-10-09T10:27:22Z</time>
      </trkpt>
      <trkpt lat="48.13147" lon="3.49005">
        <ele>147.7</ele>
        <time>2016-10-09T10:27:35Z</time>
      </trkpt>
      <trkpt lat="48.13147" lon="3.48992">
        <ele>148.66</ele>
        <time>2016-10-09T10:27:41Z</time>
      </trkpt>
      <trkpt lat="48.13148" lon="3.48991">
        <ele>149.14</ele>
        <time>2016-10-09T10:27:43Z</time>
      </trkpt>
      <trkpt lat="48.13149" lon="3.48995">
        <ele>148.66</ele>
        <time>2016-10-09T10:27:46Z</time>
      </trkpt>
      <trkpt lat="48.13152" lon="3.48992">
        <ele>147.7</ele>
        <time>2016-10-09T10:27:53Z</time>
      </trkpt>
      <trkpt lat="48.13156" lon="3.48989">
        <ele>146.74</ele>
        <time>2016-10-09T10:27:58Z</time>
      </trkpt>
      <trkpt lat="48.13165" lon="3.48983">
        <ele>147.7</ele>
        <time>2016-10-09T10:28:08Z</time>
      </trkpt>
      <trkpt lat="48.13167" lon="3.4898">
        <ele>148.66</ele>
        <time>2016-10-09T10:28:17Z</time>
      </trkpt>
      <trkpt lat="48.13167" lon="3.4898">
        <ele>148.18</ele>
        <time>2016-10-09T10:28:27Z</time>
      </trkpt>
      <trkpt lat="48.13166" lon="3.4898">
        <ele>148.66</ele>
        <time>2016-10-09T10:28:41Z</time>
      </trkpt>
      <trkpt lat="48.13167" lon="3.4898">
        <ele>150.1</ele>
        <time>2016-10-09T10:28:50Z</time>
      </trkpt>
      <trkpt lat="48.13167" lon="3.4898">
        <ele>149.62</ele>
        <time>2016-10-09T10:29:01Z</time>
      </trkpt>
      <trkpt lat="48.13166" lon="3.48979">
        <ele>149.14</ele>
        <time>2016-10-09T10:29:16Z</time>
      </trkpt>
      <trkpt lat="48.13167" lon="3.48979">
        <ele>149.62</ele>
        <time>2016-10-09T10:29:27Z</time>
      </trkpt>
      <trkpt lat="48.13167" lon="3.48978">
        <ele>150.1</ele>
        <time>2016-10-09T10:29:41Z</time>
      </trkpt>
      <trkpt lat="48.13167" lon="3.48979">
        <ele>150.1</ele>
        <time>2016-10-09T10:29:50Z</time>
      </trkpt>
      <trkpt lat="48.13168" lon="3.48979">
        <ele>148.66</ele>
        <time>2016-10-09T10:30:00Z</time>
      </trkpt>
      <trkpt lat="48.13169" lon="3.4898">
        <ele>147.7</ele>
        <time>2016-10-09T10:30:11Z</time>
      </trkpt>
      <trkpt lat="48.13169" lon="3.48979">
        <ele>152.99</ele>
        <time>2016-10-09T11:30:21Z</time>
      </trkpt>
      <trkpt lat="48.13168" lon="3.48965">
        <ele>149.62</ele>
        <time>2016-10-09T11:30:31Z</time>
      </trkpt>
      <trkpt lat="48.13167" lon="3.48965">
        <ele>145.78</ele>
        <time>2016-10-09T11:30:46Z</time>
      </trkpt>
      <trkpt lat="48.13168" lon="3.48966">
        <ele>149.62</ele>
        <time>2016-10-09T11:31:00Z</time>
      </trkpt>
      <trkpt lat="48.13168" lon="3.48967">
        <ele>150.1</ele>
        <time>2016-10-09T11:31:11Z</time>
      </trkpt>
      <trkpt lat="48.13169" lon="3.48966">
        <ele>151.06</ele>
        <time>2016-10-09T11:31:24Z</time>
      </trkpt>
      <trkpt lat="48.1317" lon="3.48968">
        <ele>150.58</ele>
        <time>2016-10-09T11:31:34Z</time>
      </trkpt>
      <trkpt lat="48.1317" lon="3.4897">
        <ele>151.06</ele>
        <time>2016-10-09T11:31:44Z</time>
      </trkpt>
      <trkpt lat="48.1317" lon="3.4897">
        <ele>148.66</ele>
        <time>2016-10-09T11:31:58Z</time>
      </trkpt>
      <trkpt lat="48.13172" lon="3.48971">
        <ele>152.51</ele>
        <time>2016-10-09T11:32:09Z</time>
      </trkpt>
      <trkpt lat="48.13173" lon="3.48971">
        <ele>152.03</ele>
        <time>2016-10-09T11:32:20Z</time>
      </trkpt>
      <trkpt lat="48.13173" lon="3.48974">
        <ele>154.43</ele>
        <time>2016-10-09T11:32:34Z</time>
      </trkpt>
      <trkpt lat="48.13174" lon="3.48972">
        <ele>154.91</ele>
        <time>2016-10-09T11:32:50Z</time>
      </trkpt>
      <trkpt lat="48.13174" lon="3.48971">
        <ele>155.87</ele>
        <time>2016-10-09T11:33:12Z</time>
      </trkpt>
      <trkpt lat="48.13172" lon="3.48968">
        <ele>154.43</ele>
        <time>2016-10-09T11:33:25Z</time>
      </trkpt>
      <trkpt lat="48.13173" lon="3.48967">
        <ele>155.39</ele>
        <time>2016-10-09T11:33:44Z</time>
      </trkpt>
      <trkpt lat="48.13172" lon="3.48966">
        <ele>155.39</ele>
        <time>2016-10-09T11:34:04Z</time>
      </trkpt>
      <trkpt lat="48.1317" lon="3.48968">
        <ele>154.91</ele>
        <time>2016-10-09T11:34:25Z</time>
      </trkpt>
      <trkpt lat="48.13169" lon="3.48969">
        <ele>155.87</ele>
        <time>2016-10-09T11:34:41Z</time>
      </trkpt>
      <trkpt lat="48.13169" lon="3.4897">
        <ele>155.87</ele>
        <time>2016-10-09T11:34:43Z</time>
      </trkpt>
      <trkpt lat="48.1317" lon="3.48971">
        <ele>153.47</ele>
        <time>2016-10-09T11:34:50Z</time>
      </trkpt>
      <trkpt lat="48.13168" lon="3.48974">
        <ele>152.99</ele>
        <time>2016-10-09T11:34:58Z</time>
      </trkpt>
      <trkpt lat="48.1316" lon="3.48983">
        <ele>153.47</ele>
        <time>2016-10-09T11:35:06Z</time>
      </trkpt>
      <trkpt lat="48.13159" lon="3.48984">
        <ele>153.47</ele>
        <time>2016-10-09T11:35:07Z</time>
      </trkpt>
      <trkpt lat="48.13155" lon="3.48989">
        <ele>154.43</ele>
        <time>2016-10-09T11:35:11Z</time>
      </trkpt>
      <trkpt lat="48.13148" lon="3.48993">
        <ele>153.95</ele>
        <time>2016-10-09T11:35:19Z</time>
      </trkpt>
      <trkpt lat="48.13148" lon="3.48993">
        <ele>153.95</ele>
        <time>2016-10-09T11:35:20Z</time>
      </trkpt>
      <trkpt lat="48.13145" lon="3.48978">
        <ele>152.51</ele>
        <time>2016-10-09T11:35:27Z</time>
      </trkpt>
      <trkpt lat="48.13144" lon="3.48969">
        <ele>151.06</ele>
        <time>2016-10-09T11:35:33Z</time>
      </trkpt>
      <trkpt lat="48.13144" lon="3.48954">
        <ele>151.54</ele>
        <time>2016-10-09T11:35:42Z</time>
      </trkpt>
      <trkpt lat="48.13148" lon="3.48943">
        <ele>152.03</ele>
        <time>2016-10-09T11:35:49Z</time>
      </trkpt>
      <trkpt lat="48.13155" lon="3.48938">
        <ele>149.14</ele>
        <time>2016-10-09T11:35:56Z</time>
      </trkpt>
      <trkpt lat="48.1316" lon="3.48935">
        <ele>149.62</ele>
        <time>2016-10-09T11:36:01Z</time>
      </trkpt>
      <trkpt lat="48.13167" lon="3.4893">
        <ele>149.62</ele>
        <time>2016-10-09T11:36:07Z</time>
      </trkpt>
      <trkpt lat="48.13173" lon="3.48925">
        <ele>150.1</ele>
        <time>2016-10-09T11:36:13Z</time>
      </trkpt>
      <trkpt lat="48.13184" lon="3.48915">
        <ele>151.54</ele>
        <time>2016-10-09T11:36:24Z</time>
      </trkpt>
      <trkpt lat="48.13188" lon="3.48912">
        <ele>151.54</ele>
        <time>2016-10-09T11:36:29Z</time>
      </trkpt>
      <trkpt lat="48.1319" lon="3.48909">
        <ele>151.54</ele>
        <time>2016-10-09T11:36:32Z</time>
      </trkpt>
      <trkpt lat="48.132" lon="3.48903">
        <ele>151.54</ele>
        <time>2016-10-09T11:36:41Z</time>
      </trkpt>
      <trkpt lat="48.13209" lon="3.48898">
        <ele>151.54</ele>
        <time>2016-10-09T11:36:49Z</time>
      </trkpt>
      <trkpt lat="48.13211" lon="3.48896">
        <ele>151.54</ele>
        <time>2016-10-09T11:36:51Z</time>
      </trkpt>
      <trkpt lat="48.13218" lon="3.48882">
        <ele>151.54</ele>
        <time>2016-10-09T11:37:01Z</time>
      </trkpt>
      <trkpt lat="48.13222" lon="3.48872">
        <ele>150.58</ele>
        <time>2016-10-09T11:37:08Z</time>
      </trkpt>
      <trkpt lat="48.13225" lon="3.48861">
        <ele>151.54</ele>
        <time>2016-10-09T11:37:16Z</time>
      </trkpt>
      <trkpt lat="48.13228" lon="3.48848">
        <ele>151.54</ele>
        <time>2016-10-09T11:37:25Z</time>
      </trkpt>
      <trkpt lat="48.13229" lon="3.48847">
        <ele>152.03</ele>
        <time>2016-10-09T11:37:26Z</time>
      </trkpt>
      <trkpt lat="48.13235" lon="3.48836">
        <ele>152.51</ele>
        <time>2016-10-09T11:37:35Z</time>
      </trkpt>
      <trkpt lat="48.13239" lon="3.48825">
        <ele>152.99</ele>
        <time>2016-10-09T11:37:43Z</time>
      </trkpt>
      <trkpt lat="48.13245" lon="3.48815">
        <ele>152.99</ele>
        <time>2016-10-09T11:37:51Z</time>
      </trkpt>
      <trkpt lat="48.13249" lon="3.48805">
        <ele>152.99</ele>
        <time>2016-10-09T11:37:58Z</time>
      </trkpt>
      <trkpt lat="48.13255" lon="3.48795">
        <ele>152.51</ele>
        <time>2016-10-09T11:38:06Z</time>
      </trkpt>
      <trkpt lat="48.13259" lon="3.48784">
        <ele>150.58</ele>
        <time>2016-10-09T11:38:14Z</time>
      </trkpt>
      <trkpt lat="48.13264" lon="3.48774">
        <ele>149.62</ele>
        <time>2016-10-09T11:38:21Z</time>
      </trkpt>
      <trkpt lat="48.1327" lon="3.48762">
        <ele>149.14</ele>
        <time>2016-10-09T11:38:29Z</time>
      </trkpt>
      <trkpt lat="48.13268" lon="3.48755">
        <ele>149.62</ele>
        <time>2016-10-09T11:38:36Z</time>
      </trkpt>
      <trkpt lat="48.13265" lon="3.48754">
        <ele>149.62</ele>
        <time>2016-10-09T11:38:44Z</time>
      </trkpt>
      <trkpt lat="48.13264" lon="3.48754">
        <ele>149.62</ele>
        <time>2016-10-09T11:38:50Z</time>
      </trkpt>
      <trkpt lat="48.13261" lon="3.4875">
        <ele>148.66</ele>
        <time>2016-10-09T11:38:59Z</time>
      </trkpt>
      <trkpt lat="48.13258" lon="3.48748">
        <ele>145.78</ele>
        <time>2016-10-09T11:39:06Z</time>
      </trkpt>
      <trkpt lat="48.13249" lon="3.4874">
        <ele>144.82</ele>
        <time>2016-10-09T11:39:15Z</time>
      </trkpt>
      <trkpt lat="48.13239" lon="3.48733">
        <ele>144.34</ele>
        <time>2016-10-09T11:39:23Z</time>
      </trkpt>
      <trkpt lat="48.13229" lon="3.48729">
        <ele>145.3</ele>
        <time>2016-10-09T11:39:32Z</time>
      </trkpt>
      <trkpt lat="48.13221" lon="3.4873">
        <ele>145.3</ele>
        <time>2016-10-09T11:39:41Z</time>
      </trkpt>
      <trkpt lat="48.13218" lon="3.48725">
        <ele>143.37</ele>
        <time>2016-10-09T11:39:47Z</time>
      </trkpt>
      <trkpt lat="48.13208" lon="3.48722">
        <ele>141.93</ele>
        <time>2016-10-09T11:39:55Z</time>
      </trkpt>
      <trkpt lat="48.13203" lon="3.48723">
        <ele>140.97</ele>
        <time>2016-10-09T11:40:00Z</time>
      </trkpt>
      <trkpt lat="48.1319" lon="3.48719">
        <ele>140.49</ele>
        <time>2016-10-09T11:40:10Z</time>
      </trkpt>
      <trkpt lat="48.13184" lon="3.48712">
        <ele>140.97</ele>
        <time>2016-10-09T11:40:18Z</time>
      </trkpt>
      <trkpt lat="48.13179" lon="3.4871">
        <ele>143.37</ele>
        <time>2016-10-09T11:40:26Z</time>
      </trkpt>
      <trkpt lat="48.13176" lon="3.4871">
        <ele>144.82</ele>
        <time>2016-10-09T11:40:33Z</time>
      </trkpt>
      <trkpt lat="48.13176" lon="3.4871">
        <ele>145.78</ele>
        <time>2016-10-09T11:40:45Z</time>
      </trkpt>
      <trkpt lat="48.13175" lon="3.48709">
        <ele>147.22</ele>
        <time>2016-10-09T11:40:55Z</time>
      </trkpt>
      <trkpt lat="48.13174" lon="3.48707">
        <ele>148.18</ele>
        <time>2016-10-09T11:41:06Z</time>
      </trkpt>
      <trkpt lat="48.13174" lon="3.48708">
        <ele>147.7</ele>
        <time>2016-10-09T11:41:17Z</time>
      </trkpt>
      <trkpt lat="48.13173" lon="3.48708">
        <ele>147.7</ele>
        <time>2016-10-09T11:41:35Z</time>
      </trkpt>
      <trkpt lat="48.13172" lon="3.48709">
        <ele>147.7</ele>
        <time>2016-10-09T11:41:51Z</time>
      </trkpt>
      <trkpt lat="48.13173" lon="3.48708">
        <ele>148.18</ele>
        <time>2016-10-09T11:42:04Z</time>
      </trkpt>
      <trkpt lat="48.13173" lon="3.48709">
        <ele>149.62</ele>
        <time>2016-10-09T11:42:14Z</time>
      </trkpt>
      <trkpt lat="48.13172" lon="3.48709">
        <ele>149.62</ele>
        <time>2016-10-09T11:42:28Z</time>
      </trkpt>
      <trkpt lat="48.13172" lon="3.48709">
        <ele>148.18</ele>
        <time>2016-10-09T11:42:44Z</time>
      </trkpt>
      <trkpt lat="48.13172" lon="3.48709">
        <ele>149.14</ele>
        <time>2016-10-09T11:42:58Z</time>
      </trkpt>
      <trkpt lat="48.13173" lon="3.48708">
        <ele>151.54</ele>
        <time>2016-10-09T11:43:13Z</time>
      </trkpt>
      <trkpt lat="48.13175" lon="3.48706">
        <ele>149.62</ele>
        <time>2016-10-09T11:43:33Z</time>
      </trkpt>
      <trkpt lat="48.13176" lon="3.48706">
        <ele>148.18</ele>
        <time>2016-10-09T11:43:48Z</time>
      </trkpt>
      <trkpt lat="48.13174" lon="3.48706">
        <ele>148.18</ele>
        <time>2016-10-09T11:44:02Z</time>
      </trkpt>
      <trkpt lat="48.13171" lon="3.48707">
        <ele>150.58</ele>
        <time>2016-10-09T11:44:14Z</time>
      </trkpt>
      <trkpt lat="48.13171" lon="3.48707">
        <ele>150.1</ele>
        <time>2016-10-09T11:44:28Z</time>
      </trkpt>
      <trkpt lat="48.13171" lon="3.48706">
        <ele>147.7</ele>
        <time>2016-10-09T11:44:42Z</time>
      </trkpt>
      <trkpt lat="48.1317" lon="3.48709">
        <ele>148.18</ele>
        <time>2016-10-09T11:44:53Z</time>
      </trkpt>
      <trkpt lat="48.13169" lon="3.48711">
        <ele>148.66</ele>
        <time>2016-10-09T11:44:56Z</time>
      </trkpt>
      <trkpt lat="48.13163" lon="3.48718">
        <ele>147.7</ele>
        <time>2016-10-09T11:45:05Z</time>
      </trkpt>
      <trkpt lat="48.13155" lon="3.48722">
        <ele>146.26</ele>
        <time>2016-10-09T11:45:14Z</time>
      </trkpt>
      <trkpt lat="48.13151" lon="3.48722">
        <ele>145.78</ele>
        <time>2016-10-09T11:45:21Z</time>
      </trkpt>
      <trkpt lat="48.13145" lon="3.48724">
        <ele>144.82</ele>
        <time>2016-10-09T11:45:28Z</time>
      </trkpt>
      <trkpt lat="48.13144" lon="3.48726">
        <ele>144.82</ele>
        <time>2016-10-09T11:45:30Z</time>
      </trkpt>
      <trkpt lat="48.1314" lon="3.48731">
        <ele>143.85</ele>
        <time>2016-10-09T11:45:36Z</time>
      </trkpt>
      <trkpt lat="48.13135" lon="3.48736">
        <ele>142.41</ele>
        <time>2016-10-09T11:45:43Z</time>
      </trkpt>
      <trkpt lat="48.13132" lon="3.48744">
        <ele>143.85</ele>
        <time>2016-10-09T11:45:49Z</time>
      </trkpt>
      <trkpt lat="48.13127" lon="3.4875">
        <ele>144.34</ele>
        <time>2016-10-09T11:45:56Z</time>
      </trkpt>
      <trkpt lat="48.13122" lon="3.48754">
        <ele>142.89</ele>
        <time>2016-10-09T11:46:03Z</time>
      </trkpt>
      <trkpt lat="48.13119" lon="3.4876">
        <ele>141.93</ele>
        <time>2016-10-09T11:46:09Z</time>
      </trkpt>
      <trkpt lat="48.13117" lon="3.48768">
        <ele>143.37</ele>
        <time>2016-10-09T11:46:13Z</time>
      </trkpt>
      <trkpt lat="48.13111" lon="3.48777">
        <ele>142.41</ele>
        <time>2016-10-09T11:46:21Z</time>
      </trkpt>
      <trkpt lat="48.13107" lon="3.48783">
        <ele>141.45</ele>
        <time>2016-10-09T11:46:28Z</time>
      </trkpt>
      <trkpt lat="48.13102" lon="3.48797">
        <ele>141.93</ele>
        <time>2016-10-09T11:46:37Z</time>
      </trkpt>
      <trkpt lat="48.13097" lon="3.48806">
        <ele>141.93</ele>
        <time>2016-10-09T11:46:45Z</time>
      </trkpt>
      <trkpt lat="48.13091" lon="3.48813">
        <ele>142.41</ele>
        <time>2016-10-09T11:46:52Z</time>
      </trkpt>
      <trkpt lat="48.13086" lon="3.48824">
        <ele>144.34</ele>
        <time>2016-10-09T11:47:00Z</time>
      </trkpt>
      <trkpt lat="48.1308" lon="3.48835">
        <ele>146.26</ele>
        <time>2016-10-09T11:47:09Z</time>
      </trkpt>
      <trkpt lat="48.13075" lon="3.48846">
        <ele>148.66</ele>
        <time>2016-10-09T11:47:17Z</time>
      </trkpt>
      <trkpt lat="48.13069" lon="3.48854">
        <ele>148.18</ele>
        <time>2016-10-09T11:47:25Z</time>
      </trkpt>
      <trkpt lat="48.13064" lon="3.48861">
        <ele>147.7</ele>
        <time>2016-10-09T11:47:32Z</time>
      </trkpt>
      <trkpt lat="48.1306" lon="3.48867">
        <ele>148.18</ele>
        <time>2016-10-09T11:47:38Z</time>
      </trkpt>
      <trkpt lat="48.13058" lon="3.48868">
        <ele>148.66</ele>
        <time>2016-10-09T11:47:39Z</time>
      </trkpt>
      <trkpt lat="48.13056" lon="3.48869">
        <ele>149.14</ele>
        <time>2016-10-09T11:47:41Z</time>
      </trkpt>
      <trkpt lat="48.13053" lon="3.48867">
        <ele>150.1</ele>
        <time>2016-10-09T11:47:44Z</time>
      </trkpt>
      <trkpt lat="48.13046" lon="3.4886">
        <ele>151.54</ele>
        <time>2016-10-09T11:47:51Z</time>
      </trkpt>
      <trkpt lat="48.1304" lon="3.48852">
        <ele>153.95</ele>
        <time>2016-10-09T11:47:58Z</time>
      </trkpt>
      <trkpt lat="48.13034" lon="3.48845">
        <ele>155.39</ele>
        <time>2016-10-09T11:48:05Z</time>
      </trkpt>
      <trkpt lat="48.13027" lon="3.48836">
        <ele>156.83</ele>
        <time>2016-10-09T11:48:13Z</time>
      </trkpt>
      <trkpt lat="48.1302" lon="3.48825">
        <ele>157.79</ele>
        <time>2016-10-09T11:48:22Z</time>
      </trkpt>
      <trkpt lat="48.13015" lon="3.48817">
        <ele>159.24</ele>
        <time>2016-10-09T11:48:29Z</time>
      </trkpt>
      <trkpt lat="48.1301" lon="3.48816">
        <ele>160.68</ele>
        <time>2016-10-09T11:48:37Z</time>
      </trkpt>
      <trkpt lat="48.13008" lon="3.48818">
        <ele>160.68</ele>
        <time>2016-10-09T11:48:40Z</time>
      </trkpt>
      <trkpt lat="48.13005" lon="3.48811">
        <ele>161.64</ele>
        <time>2016-10-09T11:48:47Z</time>
      </trkpt>
      <trkpt lat="48.13" lon="3.48801">
        <ele>162.12</ele>
        <time>2016-10-09T11:48:57Z</time>
      </trkpt>
      <trkpt lat="48.12996" lon="3.48794">
        <ele>163.08</ele>
        <time>2016-10-09T11:49:04Z</time>
      </trkpt>
      <trkpt lat="48.12992" lon="3.48783">
        <ele>164.04</ele>
        <time>2016-10-09T11:49:12Z</time>
      </trkpt>
      <trkpt lat="48.1299" lon="3.48777">
        <ele>164.04</ele>
        <time>2016-10-09T11:49:16Z</time>
      </trkpt>
      <trkpt lat="48.12987" lon="3.48773">
        <ele>163.56</ele>
        <time>2016-10-09T11:49:20Z</time>
      </trkpt>
      <trkpt lat="48.12982" lon="3.48762">
        <ele>164.52</ele>
        <time>2016-10-09T11:49:29Z</time>
      </trkpt>
      <trkpt lat="48.12979" lon="3.48753">
        <ele>165.96</ele>
        <time>2016-10-09T11:49:37Z</time>
      </trkpt>
      <trkpt lat="48.12976" lon="3.48746">
        <ele>167.89</ele>
        <time>2016-10-09T11:49:43Z</time>
      </trkpt>
      <trkpt lat="48.12972" lon="3.48737">
        <ele>168.37</ele>
        <time>2016-10-09T11:49:50Z</time>
      </trkpt>
      <trkpt lat="48.12971" lon="3.48734">
        <ele>168.37</ele>
        <time>2016-10-09T11:49:52Z</time>
      </trkpt>
      <trkpt lat="48.12968" lon="3.48729">
        <ele>169.33</ele>
        <time>2016-10-09T11:49:57Z</time>
      </trkpt>
      <trkpt lat="48.12962" lon="3.48723">
        <ele>170.29</ele>
        <time>2016-10-09T11:50:05Z</time>
      </trkpt>
      <trkpt lat="48.12954" lon="3.48718">
        <ele>168.37</ele>
        <time>2016-10-09T11:50:14Z</time>
      </trkpt>
      <trkpt lat="48.12947" lon="3.48713">
        <ele>167.41</ele>
        <time>2016-10-09T11:50:21Z</time>
      </trkpt>
      <trkpt lat="48.12941" lon="3.4871">
        <ele>167.41</ele>
        <time>2016-10-09T11:50:28Z</time>
      </trkpt>
      <trkpt lat="48.12937" lon="3.48708">
        <ele>168.37</ele>
        <time>2016-10-09T11:50:36Z</time>
      </trkpt>
      <trkpt lat="48.12932" lon="3.48708">
        <ele>169.81</ele>
        <time>2016-10-09T11:50:43Z</time>
      </trkpt>
      <trkpt lat="48.12926" lon="3.48708">
        <ele>171.73</ele>
        <time>2016-10-09T11:50:50Z</time>
      </trkpt>
      <trkpt lat="48.12922" lon="3.48708">
        <ele>173.17</ele>
        <time>2016-10-09T11:50:57Z</time>
      </trkpt>
      <trkpt lat="48.12918" lon="3.48708">
        <ele>174.14</ele>
        <time>2016-10-09T11:51:03Z</time>
      </trkpt>
      <trkpt lat="48.12913" lon="3.48705">
        <ele>177.5</ele>
        <time>2016-10-09T11:51:10Z</time>
      </trkpt>
      <trkpt lat="48.12909" lon="3.48704">
        <ele>179.42</ele>
        <time>2016-10-09T11:51:16Z</time>
      </trkpt>
      <trkpt lat="48.12903" lon="3.48701">
        <ele>181.83</ele>
        <time>2016-10-09T11:51:24Z</time>
      </trkpt>
      <trkpt lat="48.12896" lon="3.48698">
        <ele>182.31</ele>
        <time>2016-10-09T11:51:31Z</time>
      </trkpt>
      <trkpt lat="48.12893" lon="3.48696">
        <ele>182.31</ele>
        <time>2016-10-09T11:51:35Z</time>
      </trkpt>
      <trkpt lat="48.12887" lon="3.48691">
        <ele>182.79</ele>
        <time>2016-10-09T11:51:42Z</time>
      </trkpt>
      <trkpt lat="48.1288" lon="3.48686">
        <ele>183.75</ele>
        <time>2016-10-09T11:51:50Z</time>
      </trkpt>
      <trkpt lat="48.12875" lon="3.4868">
        <ele>183.27</ele>
        <time>2016-10-09T11:51:57Z</time>
      </trkpt>
      <trkpt lat="48.1287" lon="3.48676">
        <ele>183.75</ele>
        <time>2016-10-09T11:52:04Z</time>
      </trkpt>
      <trkpt lat="48.12864" lon="3.48672">
        <ele>185.67</ele>
        <time>2016-10-09T11:52:12Z</time>
      </trkpt>
      <trkpt lat="48.12861" lon="3.4867">
        <ele>187.11</ele>
        <time>2016-10-09T11:52:16Z</time>
      </trkpt>
      <trkpt lat="48.12854" lon="3.48666">
        <ele>188.08</ele>
        <time>2016-10-09T11:52:24Z</time>
      </trkpt>
      <trkpt lat="48.12846" lon="3.48659">
        <ele>188.08</ele>
        <time>2016-10-09T11:52:32Z</time>
      </trkpt>
      <trkpt lat="48.12838" lon="3.48655">
        <ele>186.63</ele>
        <time>2016-10-09T11:52:39Z</time>
      </trkpt>
      <trkpt lat="48.12834" lon="3.48653">
        <ele>187.11</ele>
        <time>2016-10-09T11:52:44Z</time>
      </trkpt>
      <trkpt lat="48.12824" lon="3.48652">
        <ele>186.63</ele>
        <time>2016-10-09T11:52:52Z</time>
      </trkpt>
      <trkpt lat="48.12815" lon="3.4865">
        <ele>185.67</ele>
        <time>2016-10-09T11:52:59Z</time>
      </trkpt>
      <trkpt lat="48.12806" lon="3.4865">
        <ele>185.67</ele>
        <time>2016-10-09T11:53:07Z</time>
      </trkpt>
      <trkpt lat="48.12797" lon="3.48648">
        <ele>182.31</ele>
        <time>2016-10-09T11:53:15Z</time>
      </trkpt>
      <trkpt lat="48.12787" lon="3.48647">
        <ele>180.87</ele>
        <time>2016-10-09T11:53:24Z</time>
      </trkpt>
      <trkpt lat="48.12781" lon="3.48646">
        <ele>179.42</ele>
        <time>2016-10-09T11:53:30Z</time>
      </trkpt>
      <trkpt lat="48.12771" lon="3.48647">
        <ele>179.42</ele>
        <time>2016-10-09T11:53:39Z</time>
      </trkpt>
      <trkpt lat="48.12762" lon="3.4865">
        <ele>181.35</ele>
        <time>2016-10-09T11:53:47Z</time>
      </trkpt>
      <trkpt lat="48.12754" lon="3.48651">
        <ele>182.79</ele>
        <time>2016-10-09T11:53:55Z</time>
      </trkpt>
      <trkpt lat="48.12747" lon="3.48652">
        <ele>183.75</ele>
        <time>2016-10-09T11:54:02Z</time>
      </trkpt>
      <trkpt lat="48.12736" lon="3.48655">
        <ele>184.23</ele>
        <time>2016-10-09T11:54:11Z</time>
      </trkpt>
      <trkpt lat="48.12726" lon="3.48658">
        <ele>183.75</ele>
        <time>2016-10-09T11:54:21Z</time>
      </trkpt>
      <trkpt lat="48.12717" lon="3.48659">
        <ele>182.79</ele>
        <time>2016-10-09T11:54:28Z</time>
      </trkpt>
      <trkpt lat="48.12709" lon="3.48659">
        <ele>183.27</ele>
        <time>2016-10-09T11:54:36Z</time>
      </trkpt>
      <trkpt lat="48.12701" lon="3.4866">
        <ele>182.79</ele>
        <time>2016-10-09T11:54:43Z</time>
      </trkpt>
      <trkpt lat="48.12693" lon="3.4866">
        <ele>181.83</ele>
        <time>2016-10-09T11:54:50Z</time>
      </trkpt>
      <trkpt lat="48.12686" lon="3.4866">
        <ele>181.83</ele>
        <time>2016-10-09T11:54:57Z</time>
      </trkpt>
      <trkpt lat="48.12679" lon="3.48661">
        <ele>183.27</ele>
        <time>2016-10-09T11:55:05Z</time>
      </trkpt>
      <trkpt lat="48.12672" lon="3.48664">
        <ele>184.71</ele>
        <time>2016-10-09T11:55:12Z</time>
      </trkpt>
      <trkpt lat="48.12665" lon="3.48665">
        <ele>184.71</ele>
        <time>2016-10-09T11:55:19Z</time>
      </trkpt>
      <trkpt lat="48.12657" lon="3.48667">
        <ele>186.15</ele>
        <time>2016-10-09T11:55:26Z</time>
      </trkpt>
      <trkpt lat="48.12648" lon="3.48668">
        <ele>186.63</ele>
        <time>2016-10-09T11:55:35Z</time>
      </trkpt>
      <trkpt lat="48.1264" lon="3.48668">
        <ele>185.67</ele>
        <time>2016-10-09T11:55:42Z</time>
      </trkpt>
      <trkpt lat="48.12631" lon="3.48666">
        <ele>186.15</ele>
        <time>2016-10-09T11:55:50Z</time>
      </trkpt>
      <trkpt lat="48.12623" lon="3.48666">
        <ele>187.11</ele>
        <time>2016-10-09T11:55:57Z</time>
      </trkpt>
      <trkpt lat="48.12616" lon="3.48666">
        <ele>189.04</ele>
        <time>2016-10-09T11:56:04Z</time>
      </trkpt>
      <trkpt lat="48.12605" lon="3.48665">
        <ele>189.04</ele>
        <time>2016-10-09T11:56:14Z</time>
      </trkpt>
      <trkpt lat="48.12599" lon="3.48663">
        <ele>189.04</ele>
        <time>2016-10-09T11:56:20Z</time>
      </trkpt>
      <trkpt lat="48.12591" lon="3.48663">
        <ele>190</ele>
        <time>2016-10-09T11:56:27Z</time>
      </trkpt>
      <trkpt lat="48.12584" lon="3.48661">
        <ele>190.48</ele>
        <time>2016-10-09T11:56:35Z</time>
      </trkpt>
      <trkpt lat="48.12576" lon="3.48659">
        <ele>190.48</ele>
        <time>2016-10-09T11:56:43Z</time>
      </trkpt>
      <trkpt lat="48.12569" lon="3.48657">
        <ele>189.52</ele>
        <time>2016-10-09T11:56:51Z</time>
      </trkpt>
      <trkpt lat="48.12562" lon="3.48656">
        <ele>188.56</ele>
        <time>2016-10-09T11:56:58Z</time>
      </trkpt>
      <trkpt lat="48.12555" lon="3.48654">
        <ele>188.56</ele>
        <time>2016-10-09T11:57:05Z</time>
      </trkpt>
      <trkpt lat="48.12554" lon="3.48653">
        <ele>188.56</ele>
        <time>2016-10-09T11:57:07Z</time>
      </trkpt>
      <trkpt lat="48.12545" lon="3.48651">
        <ele>190</ele>
        <time>2016-10-09T11:57:16Z</time>
      </trkpt>
      <trkpt lat="48.12537" lon="3.48648">
        <ele>192.4</ele>
        <time>2016-10-09T11:57:24Z</time>
      </trkpt>
      <trkpt lat="48.1253" lon="3.48646">
        <ele>194.32</ele>
        <time>2016-10-09T11:57:32Z</time>
      </trkpt>
      <trkpt lat="48.12526" lon="3.48644">
        <ele>194.32</ele>
        <time>2016-10-09T11:57:36Z</time>
      </trkpt>
      <trkpt lat="48.12518" lon="3.4864">
        <ele>193.84</ele>
        <time>2016-10-09T11:57:44Z</time>
      </trkpt>
      <trkpt lat="48.12512" lon="3.48636">
        <ele>194.32</ele>
        <time>2016-10-09T11:57:52Z</time>
      </trkpt>
      <trkpt lat="48.12505" lon="3.48633">
        <ele>194.8</ele>
        <time>2016-10-09T11:57:59Z</time>
      </trkpt>
      <trkpt lat="48.12499" lon="3.48631">
        <ele>194.8</ele>
        <time>2016-10-09T11:58:06Z</time>
      </trkpt>
      <trkpt lat="48.12493" lon="3.48627">
        <ele>195.28</ele>
        <time>2016-10-09T11:58:13Z</time>
      </trkpt>
      <trkpt lat="48.12492" lon="3.48626">
        <ele>195.28</ele>
        <time>2016-10-09T11:58:14Z</time>
      </trkpt>
      <trkpt lat="48.12484" lon="3.48621">
        <ele>197.21</ele>
        <time>2016-10-09T11:58:23Z</time>
      </trkpt>
      <trkpt lat="48.12476" lon="3.48615">
        <ele>197.69</ele>
        <time>2016-10-09T11:58:32Z</time>
      </trkpt>
      <trkpt lat="48.12472" lon="3.48613">
        <ele>198.65</ele>
        <time>2016-10-09T11:58:36Z</time>
      </trkpt>
      <trkpt lat="48.12464" lon="3.48607">
        <ele>199.61</ele>
        <time>2016-10-09T11:58:44Z</time>
      </trkpt>
      <trkpt lat="48.12457" lon="3.48601">
        <ele>200.57</ele>
        <time>2016-10-09T11:58:52Z</time>
      </trkpt>
      <trkpt lat="48.12452" lon="3.48596">
        <ele>201.05</ele>
        <time>2016-10-09T11:58:58Z</time>
      </trkpt>
      <trkpt lat="48.12444" lon="3.48588">
        <ele>201.53</ele>
        <time>2016-10-09T11:59:07Z</time>
      </trkpt>
      <trkpt lat="48.12439" lon="3.48582">
        <ele>200.57</ele>
        <time>2016-10-09T11:59:14Z</time>
      </trkpt>
      <trkpt lat="48.12434" lon="3.48576">
        <ele>201.05</ele>
        <time>2016-10-09T11:59:20Z</time>
      </trkpt>
      <trkpt lat="48.12427" lon="3.48568">
        <ele>200.57</ele>
        <time>2016-10-09T11:59:28Z</time>
      </trkpt>
      <trkpt lat="48.12421" lon="3.4856">
        <ele>201.53</ele>
        <time>2016-10-09T11:59:36Z</time>
      </trkpt>
      <trkpt lat="48.12414" lon="3.48551">
        <ele>201.05</ele>
        <time>2016-10-09T11:59:44Z</time>
      </trkpt>
      <trkpt lat="48.12408" lon="3.48542">
        <ele>201.05</ele>
        <time>2016-10-09T11:59:51Z</time>
      </trkpt>
      <trkpt lat="48.12402" lon="3.48533">
        <ele>201.05</ele>
        <time>2016-10-09T11:59:59Z</time>
      </trkpt>
      <trkpt lat="48.12395" lon="3.48524">
        <ele>201.05</ele>
        <time>2016-10-09T12:00:07Z</time>
      </trkpt>
      <trkpt lat="48.1239" lon="3.48515">
        <ele>200.57</ele>
        <time>2016-10-09T12:00:14Z</time>
      </trkpt>
      <trkpt lat="48.12383" lon="3.48505">
        <ele>201.53</ele>
        <time>2016-10-09T12:00:22Z</time>
      </trkpt>
      <trkpt lat="48.12378" lon="3.48495">
        <ele>202.01</ele>
        <time>2016-10-09T12:00:30Z</time>
      </trkpt>
      <trkpt lat="48.12372" lon="3.48484">
        <ele>203.46</ele>
        <time>2016-10-09T12:00:38Z</time>
      </trkpt>
      <trkpt lat="48.12367" lon="3.48476">
        <ele>203.94</ele>
        <time>2016-10-09T12:00:45Z</time>
      </trkpt>
      <trkpt lat="48.12361" lon="3.48465">
        <ele>202.98</ele>
        <time>2016-10-09T12:00:53Z</time>
      </trkpt>
      <trkpt lat="48.12356" lon="3.48455">
        <ele>203.46</ele>
        <time>2016-10-09T12:01:01Z</time>
      </trkpt>
      <trkpt lat="48.12349" lon="3.48456">
        <ele>203.94</ele>
        <time>2016-10-09T12:01:08Z</time>
      </trkpt>
      <trkpt lat="48.12343" lon="3.48464">
        <ele>202.49</ele>
        <time>2016-10-09T12:01:18Z</time>
      </trkpt>
      <trkpt lat="48.12335" lon="3.48471">
        <ele>202.49</ele>
        <time>2016-10-09T12:01:27Z</time>
      </trkpt>
      <trkpt lat="48.12329" lon="3.48477">
        <ele>203.94</ele>
        <time>2016-10-09T12:01:34Z</time>
      </trkpt>
      <trkpt lat="48.12321" lon="3.48483">
        <ele>203.94</ele>
        <time>2016-10-09T12:01:42Z</time>
      </trkpt>
      <trkpt lat="48.12313" lon="3.4849">
        <ele>202.49</ele>
        <time>2016-10-09T12:01:50Z</time>
      </trkpt>
      <trkpt lat="48.12305" lon="3.48496">
        <ele>201.53</ele>
        <time>2016-10-09T12:01:57Z</time>
      </trkpt>
      <trkpt lat="48.12298" lon="3.48503">
        <ele>199.61</ele>
        <time>2016-10-09T12:02:05Z</time>
      </trkpt>
      <trkpt lat="48.1229" lon="3.4851">
        <ele>197.69</ele>
        <time>2016-10-09T12:02:13Z</time>
      </trkpt>
      <trkpt lat="48.12281" lon="3.48518">
        <ele>196.73</ele>
        <time>2016-10-09T12:02:22Z</time>
      </trkpt>
      <trkpt lat="48.12273" lon="3.48526">
        <ele>196.73</ele>
        <time>2016-10-09T12:02:30Z</time>
      </trkpt>
      <trkpt lat="48.12265" lon="3.48534">
        <ele>197.21</ele>
        <time>2016-10-09T12:02:39Z</time>
      </trkpt>
      <trkpt lat="48.12258" lon="3.48541">
        <ele>197.21</ele>
        <time>2016-10-09T12:02:47Z</time>
      </trkpt>
      <trkpt lat="48.12251" lon="3.48547">
        <ele>196.73</ele>
        <time>2016-10-09T12:02:54Z</time>
      </trkpt>
      <trkpt lat="48.12243" lon="3.48553">
        <ele>198.17</ele>
        <time>2016-10-09T12:03:02Z</time>
      </trkpt>
      <trkpt lat="48.12236" lon="3.48558">
        <ele>196.73</ele>
        <time>2016-10-09T12:03:10Z</time>
      </trkpt>
      <trkpt lat="48.12228" lon="3.48565">
        <ele>195.28</ele>
        <time>2016-10-09T12:03:17Z</time>
      </trkpt>
      <trkpt lat="48.12219" lon="3.48573">
        <ele>193.84</ele>
        <time>2016-10-09T12:03:26Z</time>
      </trkpt>
      <trkpt lat="48.12212" lon="3.4858">
        <ele>194.8</ele>
        <time>2016-10-09T12:03:34Z</time>
      </trkpt>
      <trkpt lat="48.12206" lon="3.48586">
        <ele>194.8</ele>
        <time>2016-10-09T12:03:40Z</time>
      </trkpt>
      <trkpt lat="48.12199" lon="3.48592">
        <ele>194.8</ele>
        <time>2016-10-09T12:03:47Z</time>
      </trkpt>
      <trkpt lat="48.12192" lon="3.486">
        <ele>194.32</ele>
        <time>2016-10-09T12:03:55Z</time>
      </trkpt>
      <trkpt lat="48.12186" lon="3.48606">
        <ele>194.8</ele>
        <time>2016-10-09T12:04:02Z</time>
      </trkpt>
      <trkpt lat="48.12179" lon="3.48613">
        <ele>195.28</ele>
        <time>2016-10-09T12:04:10Z</time>
      </trkpt>
      <trkpt lat="48.12174" lon="3.48617">
        <ele>194.8</ele>
        <time>2016-10-09T12:04:15Z</time>
      </trkpt>
      <trkpt lat="48.12166" lon="3.48628">
        <ele>192.88</ele>
        <time>2016-10-09T12:04:25Z</time>
      </trkpt>
      <trkpt lat="48.12158" lon="3.48634">
        <ele>191.92</ele>
        <time>2016-10-09T12:04:33Z</time>
      </trkpt>
      <trkpt lat="48.12155" lon="3.48638">
        <ele>191.44</ele>
        <time>2016-10-09T12:04:38Z</time>
      </trkpt>
      <trkpt lat="48.1215" lon="3.48641">
        <ele>190.96</ele>
        <time>2016-10-09T12:04:43Z</time>
      </trkpt>
      <trkpt lat="48.12142" lon="3.48645">
        <ele>190.48</ele>
        <time>2016-10-09T12:04:51Z</time>
      </trkpt>
      <trkpt lat="48.12141" lon="3.48645">
        <ele>190.48</ele>
        <time>2016-10-09T12:04:52Z</time>
      </trkpt>
      <trkpt lat="48.12132" lon="3.48639">
        <ele>188.56</ele>
        <time>2016-10-09T12:05:01Z</time>
      </trkpt>
      <trkpt lat="48.12126" lon="3.48632">
        <ele>190.48</ele>
        <time>2016-10-09T12:05:08Z</time>
      </trkpt>
      <trkpt lat="48.12118" lon="3.48623">
        <ele>192.88</ele>
        <time>2016-10-09T12:05:17Z</time>
      </trkpt>
      <trkpt lat="48.1211" lon="3.48614">
        <ele>194.32</ele>
        <time>2016-10-09T12:05:25Z</time>
      </trkpt>
      <trkpt lat="48.12104" lon="3.48607">
        <ele>195.77</ele>
        <time>2016-10-09T12:05:32Z</time>
      </trkpt>
      <trkpt lat="48.12097" lon="3.48598">
        <ele>196.73</ele>
        <time>2016-10-09T12:05:41Z</time>
      </trkpt>
      <trkpt lat="48.12092" lon="3.48589">
        <ele>194.8</ele>
        <time>2016-10-09T12:05:48Z</time>
      </trkpt>
      <trkpt lat="48.12085" lon="3.48582">
        <ele>193.84</ele>
        <time>2016-10-09T12:05:55Z</time>
      </trkpt>
      <trkpt lat="48.12079" lon="3.48575">
        <ele>192.88</ele>
        <time>2016-10-09T12:06:03Z</time>
      </trkpt>
      <trkpt lat="48.12072" lon="3.48566">
        <ele>190.48</ele>
        <time>2016-10-09T12:06:11Z</time>
      </trkpt>
      <trkpt lat="48.12066" lon="3.48561">
        <ele>189.52</ele>
        <time>2016-10-09T12:06:19Z</time>
      </trkpt>
      <trkpt lat="48.12061" lon="3.48557">
        <ele>187.59</ele>
        <time>2016-10-09T12:06:25Z</time>
      </trkpt>
      <trkpt lat="48.12052" lon="3.4855">
        <ele>186.15</ele>
        <time>2016-10-09T12:06:34Z</time>
      </trkpt>
      <trkpt lat="48.12046" lon="3.48544">
        <ele>186.15</ele>
        <time>2016-10-09T12:06:41Z</time>
      </trkpt>
      <trkpt lat="48.1204" lon="3.48538">
        <ele>184.71</ele>
        <time>2016-10-09T12:06:48Z</time>
      </trkpt>
      <trkpt lat="48.12031" lon="3.48531">
        <ele>185.19</ele>
        <time>2016-10-09T12:06:57Z</time>
      </trkpt>
      <trkpt lat="48.12022" lon="3.48526">
        <ele>184.71</ele>
        <time>2016-10-09T12:07:05Z</time>
      </trkpt>
      <trkpt lat="48.12015" lon="3.48519">
        <ele>183.27</ele>
        <time>2016-10-09T12:07:13Z</time>
      </trkpt>
      <trkpt lat="48.12005" lon="3.48514">
        <ele>183.75</ele>
        <time>2016-10-09T12:07:22Z</time>
      </trkpt>
      <trkpt lat="48.11996" lon="3.48508">
        <ele>185.19</ele>
        <time>2016-10-09T12:07:30Z</time>
      </trkpt>
      <trkpt lat="48.11989" lon="3.48503">
        <ele>184.23</ele>
        <time>2016-10-09T12:07:37Z</time>
      </trkpt>
      <trkpt lat="48.11982" lon="3.48499">
        <ele>184.23</ele>
        <time>2016-10-09T12:07:44Z</time>
      </trkpt>
      <trkpt lat="48.11975" lon="3.48494">
        <ele>184.23</ele>
        <time>2016-10-09T12:07:52Z</time>
      </trkpt>
      <trkpt lat="48.11966" lon="3.48488">
        <ele>185.19</ele>
        <time>2016-10-09T12:08:00Z</time>
      </trkpt>
      <trkpt lat="48.1196" lon="3.48484">
        <ele>185.67</ele>
        <time>2016-10-09T12:08:07Z</time>
      </trkpt>
      <trkpt lat="48.11953" lon="3.48481">
        <ele>186.15</ele>
        <time>2016-10-09T12:08:15Z</time>
      </trkpt>
      <trkpt lat="48.11948" lon="3.48479">
        <ele>186.15</ele>
        <time>2016-10-09T12:08:19Z</time>
      </trkpt>
      <trkpt lat="48.11939" lon="3.4847">
        <ele>182.79</ele>
        <time>2016-10-09T12:08:28Z</time>
      </trkpt>
      <trkpt lat="48.1193" lon="3.48464">
        <ele>178.94</ele>
        <time>2016-10-09T12:08:37Z</time>
      </trkpt>
      <trkpt lat="48.11925" lon="3.48464">
        <ele>180.87</ele>
        <time>2016-10-09T12:08:42Z</time>
      </trkpt>
      <trkpt lat="48.11916" lon="3.48463">
        <ele>181.35</ele>
        <time>2016-10-09T12:08:50Z</time>
      </trkpt>
      <trkpt lat="48.11908" lon="3.48462">
        <ele>182.31</ele>
        <time>2016-10-09T12:08:58Z</time>
      </trkpt>
      <trkpt lat="48.11904" lon="3.48463">
        <ele>181.83</ele>
        <time>2016-10-09T12:09:02Z</time>
      </trkpt>
      <trkpt lat="48.11895" lon="3.48463">
        <ele>181.35</ele>
        <time>2016-10-09T12:09:10Z</time>
      </trkpt>
      <trkpt lat="48.11888" lon="3.48463">
        <ele>182.79</ele>
        <time>2016-10-09T12:09:17Z</time>
      </trkpt>
      <trkpt lat="48.11879" lon="3.48461">
        <ele>182.31</ele>
        <time>2016-10-09T12:09:26Z</time>
      </trkpt>
      <trkpt lat="48.11873" lon="3.48459">
        <ele>180.38</ele>
        <time>2016-10-09T12:09:33Z</time>
      </trkpt>
      <trkpt lat="48.11863" lon="3.4846">
        <ele>179.42</ele>
        <time>2016-10-09T12:09:41Z</time>
      </trkpt>
      <trkpt lat="48.11855" lon="3.48461">
        <ele>179.9</ele>
        <time>2016-10-09T12:09:49Z</time>
      </trkpt>
      <trkpt lat="48.11845" lon="3.48459">
        <ele>179.42</ele>
        <time>2016-10-09T12:09:57Z</time>
      </trkpt>
      <trkpt lat="48.11836" lon="3.4846">
        <ele>179.9</ele>
        <time>2016-10-09T12:10:06Z</time>
      </trkpt>
      <trkpt lat="48.11831" lon="3.48455">
        <ele>179.9</ele>
        <time>2016-10-09T12:10:13Z</time>
      </trkpt>
      <trkpt lat="48.11823" lon="3.48452">
        <ele>180.38</ele>
        <time>2016-10-09T12:10:21Z</time>
      </trkpt>
      <trkpt lat="48.11813" lon="3.4845">
        <ele>182.79</ele>
        <time>2016-10-09T12:10:29Z</time>
      </trkpt>
      <trkpt lat="48.11805" lon="3.48449">
        <ele>185.67</ele>
        <time>2016-10-09T12:10:36Z</time>
      </trkpt>
      <trkpt lat="48.11794" lon="3.4845">
        <ele>189.52</ele>
        <time>2016-10-09T12:10:44Z</time>
      </trkpt>
      <trkpt lat="48.11789" lon="3.48447">
        <ele>191.44</ele>
        <time>2016-10-09T12:10:50Z</time>
      </trkpt>
      <trkpt lat="48.11785" lon="3.48443">
        <ele>193.84</ele>
        <time>2016-10-09T12:11:00Z</time>
      </trkpt>
      <trkpt lat="48.1178" lon="3.48439">
        <ele>198.65</ele>
        <time>2016-10-09T12:11:10Z</time>
      </trkpt>
      <trkpt lat="48.11779" lon="3.48438">
        <ele>200.09</ele>
        <time>2016-10-09T12:11:28Z</time>
      </trkpt>
      <trkpt lat="48.11778" lon="3.48437">
        <ele>199.61</ele>
        <time>2016-10-09T12:11:43Z</time>
      </trkpt>
      <trkpt lat="48.11778" lon="3.48435">
        <ele>199.13</ele>
        <time>2016-10-09T12:12:01Z</time>
      </trkpt>
      <trkpt lat="48.11779" lon="3.48436">
        <ele>199.13</ele>
        <time>2016-10-09T12:12:20Z</time>
      </trkpt>
      <trkpt lat="48.11771" lon="3.48433">
        <ele>195.77</ele>
        <time>2016-10-09T12:12:29Z</time>
      </trkpt>
      <trkpt lat="48.11763" lon="3.4843">
        <ele>195.77</ele>
        <time>2016-10-09T12:12:40Z</time>
      </trkpt>
      <trkpt lat="48.11755" lon="3.48429">
        <ele>197.69</ele>
        <time>2016-10-09T12:12:48Z</time>
      </trkpt>
      <trkpt lat="48.11749" lon="3.48426">
        <ele>197.69</ele>
        <time>2016-10-09T12:12:55Z</time>
      </trkpt>
      <trkpt lat="48.11742" lon="3.48425">
        <ele>199.13</ele>
        <time>2016-10-09T12:13:05Z</time>
      </trkpt>
      <trkpt lat="48.11734" lon="3.48422">
        <ele>200.57</ele>
        <time>2016-10-09T12:13:13Z</time>
      </trkpt>
      <trkpt lat="48.11726" lon="3.4842">
        <ele>200.57</ele>
        <time>2016-10-09T12:13:21Z</time>
      </trkpt>
      <trkpt lat="48.1172" lon="3.48416">
        <ele>198.65</ele>
        <time>2016-10-09T12:13:27Z</time>
      </trkpt>
      <trkpt lat="48.11714" lon="3.48413">
        <ele>196.25</ele>
        <time>2016-10-09T12:13:34Z</time>
      </trkpt>
      <trkpt lat="48.11707" lon="3.48413">
        <ele>194.8</ele>
        <time>2016-10-09T12:13:41Z</time>
      </trkpt>
      <trkpt lat="48.117" lon="3.48408">
        <ele>194.8</ele>
        <time>2016-10-09T12:13:48Z</time>
      </trkpt>
      <trkpt lat="48.11693" lon="3.48406">
        <ele>195.28</ele>
        <time>2016-10-09T12:13:55Z</time>
      </trkpt>
      <trkpt lat="48.11685" lon="3.48403">
        <ele>196.25</ele>
        <time>2016-10-09T12:14:03Z</time>
      </trkpt>
      <trkpt lat="48.1168" lon="3.48402">
        <ele>196.25</ele>
        <time>2016-10-09T12:14:09Z</time>
      </trkpt>
      <trkpt lat="48.11679" lon="3.48402">
        <ele>196.25</ele>
        <time>2016-10-09T12:14:10Z</time>
      </trkpt>
      <trkpt lat="48.11678" lon="3.48405">
        <ele>197.21</ele>
        <time>2016-10-09T12:14:16Z</time>
      </trkpt>
      <trkpt lat="48.11676" lon="3.48408">
        <ele>198.17</ele>
        <time>2016-10-09T12:14:22Z</time>
      </trkpt>
      <trkpt lat="48.11672" lon="3.48414">
        <ele>199.61</ele>
        <time>2016-10-09T12:14:31Z</time>
      </trkpt>
      <trkpt lat="48.11672" lon="3.48418">
        <ele>200.57</ele>
        <time>2016-10-09T12:14:38Z</time>
      </trkpt>
      <trkpt lat="48.11669" lon="3.48421">
        <ele>201.53</ele>
        <time>2016-10-09T12:14:44Z</time>
      </trkpt>
      <trkpt lat="48.11665" lon="3.48421">
        <ele>201.05</ele>
        <time>2016-10-09T12:14:52Z</time>
      </trkpt>
      <trkpt lat="48.11664" lon="3.48423">
        <ele>199.61</ele>
        <time>2016-10-09T12:15:06Z</time>
      </trkpt>
      <trkpt lat="48.11663" lon="3.48422">
        <ele>199.61</ele>
        <time>2016-10-09T12:15:21Z</time>
      </trkpt>
      <trkpt lat="48.1166" lon="3.48422">
        <ele>200.09</ele>
        <time>2016-10-09T12:15:31Z</time>
      </trkpt>
      <trkpt lat="48.1166" lon="3.48422">
        <ele>200.57</ele>
        <time>2016-10-09T12:15:40Z</time>
      </trkpt>
      <trkpt lat="48.11662" lon="3.48421">
        <ele>201.05</ele>
        <time>2016-10-09T12:15:54Z</time>
      </trkpt>
      <trkpt lat="48.11668" lon="3.48423">
        <ele>201.53</ele>
        <time>2016-10-09T12:16:06Z</time>
      </trkpt>
      <trkpt lat="48.11672" lon="3.48424">
        <ele>202.49</ele>
        <time>2016-10-09T12:16:19Z</time>
      </trkpt>
      <trkpt lat="48.11671" lon="3.48422">
        <ele>202.98</ele>
        <time>2016-10-09T12:16:33Z</time>
      </trkpt>
      <trkpt lat="48.11672" lon="3.48422">
        <ele>203.94</ele>
        <time>2016-10-09T12:16:52Z</time>
      </trkpt>
      <trkpt lat="48.11676" lon="3.48426">
        <ele>205.38</ele>
        <time>2016-10-09T12:17:06Z</time>
      </trkpt>
      <trkpt lat="48.11672" lon="3.48424">
        <ele>204.42</ele>
        <time>2016-10-09T12:17:21Z</time>
      </trkpt>
      <trkpt lat="48.11668" lon="3.48423">
        <ele>203.46</ele>
        <time>2016-10-09T12:17:36Z</time>
      </trkpt>
      <trkpt lat="48.11669" lon="3.48423">
        <ele>205.38</ele>
        <time>2016-10-09T12:17:49Z</time>
      </trkpt>
      <trkpt lat="48.11663" lon="3.48424">
        <ele>201.53</ele>
        <time>2016-10-09T12:18:03Z</time>
      </trkpt>
      <trkpt lat="48.1166" lon="3.48435">
        <ele>201.05</ele>
        <time>2016-10-09T12:18:12Z</time>
      </trkpt>
      <trkpt lat="48.11652" lon="3.48446">
        <ele>198.65</ele>
        <time>2016-10-09T12:18:22Z</time>
      </trkpt>
      <trkpt lat="48.11649" lon="3.48449">
        <ele>198.17</ele>
        <time>2016-10-09T12:18:27Z</time>
      </trkpt>
      <trkpt lat="48.11643" lon="3.48456">
        <ele>196.73</ele>
        <time>2016-10-09T12:18:35Z</time>
      </trkpt>
      <trkpt lat="48.1164" lon="3.48462">
        <ele>196.25</ele>
        <time>2016-10-09T12:18:43Z</time>
      </trkpt>
      <trkpt lat="48.11638" lon="3.48471">
        <ele>195.77</ele>
        <time>2016-10-09T12:18:53Z</time>
      </trkpt>
      <trkpt lat="48.11635" lon="3.48471">
        <ele>199.13</ele>
        <time>2016-10-09T12:19:02Z</time>
      </trkpt>
      <trkpt lat="48.11635" lon="3.48473">
        <ele>201.05</ele>
        <time>2016-10-09T12:19:15Z</time>
      </trkpt>
      <trkpt lat="48.11635" lon="3.48469">
        <ele>202.49</ele>
        <time>2016-10-09T12:19:28Z</time>
      </trkpt>
      <trkpt lat="48.11633" lon="3.48463">
        <ele>203.94</ele>
        <time>2016-10-09T12:19:35Z</time>
      </trkpt>
      <trkpt lat="48.11631" lon="3.4846">
        <ele>204.42</ele>
        <time>2016-10-09T12:19:39Z</time>
      </trkpt>
      <trkpt lat="48.11627" lon="3.48454">
        <ele>203.46</ele>
        <time>2016-10-09T12:19:45Z</time>
      </trkpt>
      <trkpt lat="48.11622" lon="3.48448">
        <ele>202.98</ele>
        <time>2016-10-09T12:19:53Z</time>
      </trkpt>
      <trkpt lat="48.11617" lon="3.48441">
        <ele>202.49</ele>
        <time>2016-10-09T12:20:01Z</time>
      </trkpt>
      <trkpt lat="48.11613" lon="3.48435">
        <ele>202.49</ele>
        <time>2016-10-09T12:20:08Z</time>
      </trkpt>
      <trkpt lat="48.11612" lon="3.48434">
        <ele>202.49</ele>
        <time>2016-10-09T12:20:09Z</time>
      </trkpt>
      <trkpt lat="48.11607" lon="3.48426">
        <ele>203.94</ele>
        <time>2016-10-09T12:20:17Z</time>
      </trkpt>
      <trkpt lat="48.11606" lon="3.48425">
        <ele>203.46</ele>
        <time>2016-10-09T12:20:18Z</time>
      </trkpt>
      <trkpt lat="48.11601" lon="3.48418">
        <ele>203.94</ele>
        <time>2016-10-09T12:20:26Z</time>
      </trkpt>
      <trkpt lat="48.11596" lon="3.48412">
        <ele>203.46</ele>
        <time>2016-10-09T12:20:33Z</time>
      </trkpt>
      <trkpt lat="48.1159" lon="3.48404">
        <ele>203.94</ele>
        <time>2016-10-09T12:20:41Z</time>
      </trkpt>
      <trkpt lat="48.11587" lon="3.48399">
        <ele>204.42</ele>
        <time>2016-10-09T12:20:46Z</time>
      </trkpt>
      <trkpt lat="48.11576" lon="3.48388">
        <ele>205.38</ele>
        <time>2016-10-09T12:20:57Z</time>
      </trkpt>
      <trkpt lat="48.11569" lon="3.48379">
        <ele>205.38</ele>
        <time>2016-10-09T12:21:05Z</time>
      </trkpt>
      <trkpt lat="48.11561" lon="3.48369">
        <ele>204.9</ele>
        <time>2016-10-09T12:21:14Z</time>
      </trkpt>
      <trkpt lat="48.11554" lon="3.48361">
        <ele>205.38</ele>
        <time>2016-10-09T12:21:22Z</time>
      </trkpt>
      <trkpt lat="48.1155" lon="3.48355">
        <ele>205.38</ele>
        <time>2016-10-09T12:21:31Z</time>
      </trkpt>
      <trkpt lat="48.11545" lon="3.48349">
        <ele>205.38</ele>
        <time>2016-10-09T12:21:39Z</time>
      </trkpt>
      <trkpt lat="48.11537" lon="3.48337">
        <ele>203.46</ele>
        <time>2016-10-09T12:21:49Z</time>
      </trkpt>
      <trkpt lat="48.11533" lon="3.48331">
        <ele>202.98</ele>
        <time>2016-10-09T12:21:54Z</time>
      </trkpt>
      <trkpt lat="48.11528" lon="3.48324">
        <ele>203.46</ele>
        <time>2016-10-09T12:22:01Z</time>
      </trkpt>
      <trkpt lat="48.1152" lon="3.48314">
        <ele>203.46</ele>
        <time>2016-10-09T12:22:09Z</time>
      </trkpt>
      <trkpt lat="48.11512" lon="3.48304">
        <ele>203.46</ele>
        <time>2016-10-09T12:22:18Z</time>
      </trkpt>
      <trkpt lat="48.11507" lon="3.48296">
        <ele>203.94</ele>
        <time>2016-10-09T12:22:25Z</time>
      </trkpt>
      <trkpt lat="48.115" lon="3.48287">
        <ele>204.9</ele>
        <time>2016-10-09T12:22:33Z</time>
      </trkpt>
      <trkpt lat="48.11492" lon="3.48277">
        <ele>205.38</ele>
        <time>2016-10-09T12:22:41Z</time>
      </trkpt>
      <trkpt lat="48.11484" lon="3.48266">
        <ele>205.38</ele>
        <time>2016-10-09T12:22:51Z</time>
      </trkpt>
      <trkpt lat="48.11483" lon="3.48264">
        <ele>205.38</ele>
        <time>2016-10-09T12:22:53Z</time>
      </trkpt>
      <trkpt lat="48.11474" lon="3.48255">
        <ele>205.86</ele>
        <time>2016-10-09T12:23:03Z</time>
      </trkpt>
      <trkpt lat="48.11466" lon="3.48242">
        <ele>206.34</ele>
        <time>2016-10-09T12:23:13Z</time>
      </trkpt>
      <trkpt lat="48.11459" lon="3.48232">
        <ele>206.34</ele>
        <time>2016-10-09T12:23:22Z</time>
      </trkpt>
      <trkpt lat="48.11451" lon="3.48223">
        <ele>206.34</ele>
        <time>2016-10-09T12:23:30Z</time>
      </trkpt>
      <trkpt lat="48.11444" lon="3.48215">
        <ele>206.34</ele>
        <time>2016-10-09T12:23:38Z</time>
      </trkpt>
      <trkpt lat="48.11438" lon="3.48209">
        <ele>205.38</ele>
        <time>2016-10-09T12:23:45Z</time>
      </trkpt>
      <trkpt lat="48.11432" lon="3.48204">
        <ele>206.82</ele>
        <time>2016-10-09T12:23:52Z</time>
      </trkpt>
      <trkpt lat="48.11427" lon="3.48198">
        <ele>209.22</ele>
        <time>2016-10-09T12:23:59Z</time>
      </trkpt>
      <trkpt lat="48.11416" lon="3.48193">
        <ele>210.19</ele>
        <time>2016-10-09T12:24:08Z</time>
      </trkpt>
      <trkpt lat="48.11408" lon="3.48187">
        <ele>210.19</ele>
        <time>2016-10-09T12:24:16Z</time>
      </trkpt>
      <trkpt lat="48.11407" lon="3.48186">
        <ele>209.7</ele>
        <time>2016-10-09T12:24:17Z</time>
      </trkpt>
      <trkpt lat="48.114" lon="3.48179">
        <ele>209.7</ele>
        <time>2016-10-09T12:24:25Z</time>
      </trkpt>
      <trkpt lat="48.11393" lon="3.48174">
        <ele>210.67</ele>
        <time>2016-10-09T12:24:33Z</time>
      </trkpt>
      <trkpt lat="48.11387" lon="3.48171">
        <ele>210.19</ele>
        <time>2016-10-09T12:24:40Z</time>
      </trkpt>
      <trkpt lat="48.11379" lon="3.48166">
        <ele>209.22</ele>
        <time>2016-10-09T12:24:48Z</time>
      </trkpt>
      <trkpt lat="48.11372" lon="3.48163">
        <ele>208.26</ele>
        <time>2016-10-09T12:24:55Z</time>
      </trkpt>
      <trkpt lat="48.11365" lon="3.48161">
        <ele>208.74</ele>
        <time>2016-10-09T12:25:02Z</time>
      </trkpt>
      <trkpt lat="48.11359" lon="3.48157">
        <ele>210.19</ele>
        <time>2016-10-09T12:25:09Z</time>
      </trkpt>
      <trkpt lat="48.1135" lon="3.48155">
        <ele>214.51</ele>
        <time>2016-10-09T12:25:18Z</time>
      </trkpt>
      <trkpt lat="48.1134" lon="3.48152">
        <ele>216.91</ele>
        <time>2016-10-09T12:25:27Z</time>
      </trkpt>
      <trkpt lat="48.11331" lon="3.48148">
        <ele>218.36</ele>
        <time>2016-10-09T12:25:35Z</time>
      </trkpt>
      <trkpt lat="48.11321" lon="3.48146">
        <ele>221.24</ele>
        <time>2016-10-09T12:25:42Z</time>
      </trkpt>
      <trkpt lat="48.11315" lon="3.48142">
        <ele>223.16</ele>
        <time>2016-10-09T12:25:47Z</time>
      </trkpt>
      <trkpt lat="48.11306" lon="3.48138">
        <ele>227.01</ele>
        <time>2016-10-09T12:25:55Z</time>
      </trkpt>
      <trkpt lat="48.11302" lon="3.48132">
        <ele>229.41</ele>
        <time>2016-10-09T12:26:02Z</time>
      </trkpt>
      <trkpt lat="48.11304" lon="3.48124">
        <ele>228.45</ele>
        <time>2016-10-09T12:26:13Z</time>
      </trkpt>
      <trkpt lat="48.11304" lon="3.4812">
        <ele>222.68</ele>
        <time>2016-10-09T12:26:27Z</time>
      </trkpt>
      <trkpt lat="48.11305" lon="3.48121">
        <ele>220.28</ele>
        <time>2016-10-09T12:26:42Z</time>
      </trkpt>
      <trkpt lat="48.11304" lon="3.4812">
        <ele>219.32</ele>
        <time>2016-10-09T12:26:51Z</time>
      </trkpt>
      <trkpt lat="48.11305" lon="3.4812">
        <ele>217.88</ele>
        <time>2016-10-09T12:27:02Z</time>
      </trkpt>
      <trkpt lat="48.11304" lon="3.4812">
        <ele>217.4</ele>
        <time>2016-10-09T12:27:12Z</time>
      </trkpt>
      <trkpt lat="48.11301" lon="3.4812">
        <ele>216.43</ele>
        <time>2016-10-09T12:27:20Z</time>
      </trkpt>
      <trkpt lat="48.11296" lon="3.48122">
        <ele>215.95</ele>
        <time>2016-10-09T12:27:29Z</time>
      </trkpt>
      <trkpt lat="48.11296" lon="3.48119">
        <ele>216.43</ele>
        <time>2016-10-09T12:27:35Z</time>
      </trkpt>
      <trkpt lat="48.11296" lon="3.48117">
        <ele>216.91</ele>
        <time>2016-10-09T12:27:45Z</time>
      </trkpt>
      <trkpt lat="48.11295" lon="3.48118">
        <ele>215.47</ele>
        <time>2016-10-09T12:27:56Z</time>
      </trkpt>
      <trkpt lat="48.11295" lon="3.48119">
        <ele>216.43</ele>
        <time>2016-10-09T12:28:08Z</time>
      </trkpt>
      <trkpt lat="48.11294" lon="3.48118">
        <ele>217.88</ele>
        <time>2016-10-09T12:28:20Z</time>
      </trkpt>
      <trkpt lat="48.11291" lon="3.48117">
        <ele>216.91</ele>
        <time>2016-10-09T12:28:28Z</time>
      </trkpt>
      <trkpt lat="48.11284" lon="3.48117">
        <ele>217.4</ele>
        <time>2016-10-09T12:28:36Z</time>
      </trkpt>
      <trkpt lat="48.11276" lon="3.4812">
        <ele>220.28</ele>
        <time>2016-10-09T12:28:45Z</time>
      </trkpt>
      <trkpt lat="48.11269" lon="3.48122">
        <ele>223.64</ele>
        <time>2016-10-09T12:28:53Z</time>
      </trkpt>
      <trkpt lat="48.11264" lon="3.48125">
        <ele>224.12</ele>
        <time>2016-10-09T12:29:01Z</time>
      </trkpt>
      <trkpt lat="48.11257" lon="3.48125">
        <ele>225.57</ele>
        <time>2016-10-09T12:29:08Z</time>
      </trkpt>
      <trkpt lat="48.11249" lon="3.48128">
        <ele>225.09</ele>
        <time>2016-10-09T12:29:16Z</time>
      </trkpt>
      <trkpt lat="48.11241" lon="3.48131">
        <ele>224.61</ele>
        <time>2016-10-09T12:29:24Z</time>
      </trkpt>
      <trkpt lat="48.11231" lon="3.48136">
        <ele>225.09</ele>
        <time>2016-10-09T12:29:33Z</time>
      </trkpt>
      <trkpt lat="48.11223" lon="3.48141">
        <ele>225.09</ele>
        <time>2016-10-09T12:29:42Z</time>
      </trkpt>
      <trkpt lat="48.11215" lon="3.48148">
        <ele>225.09</ele>
        <time>2016-10-09T12:29:51Z</time>
      </trkpt>
      <trkpt lat="48.11208" lon="3.48152">
        <ele>224.61</ele>
        <time>2016-10-09T12:29:58Z</time>
      </trkpt>
      <trkpt lat="48.11199" lon="3.48156">
        <ele>224.12</ele>
        <time>2016-10-09T12:30:06Z</time>
      </trkpt>
      <trkpt lat="48.11187" lon="3.48158">
        <ele>222.2</ele>
        <time>2016-10-09T12:30:15Z</time>
      </trkpt>
      <trkpt lat="48.11178" lon="3.48159">
        <ele>221.24</ele>
        <time>2016-10-09T12:30:22Z</time>
      </trkpt>
      <trkpt lat="48.11168" lon="3.48155">
        <ele>221.24</ele>
        <time>2016-10-09T12:30:31Z</time>
      </trkpt>
      <trkpt lat="48.11161" lon="3.48155">
        <ele>221.72</ele>
        <time>2016-10-09T12:30:39Z</time>
      </trkpt>
      <trkpt lat="48.11157" lon="3.48154">
        <ele>223.16</ele>
        <time>2016-10-09T12:30:45Z</time>
      </trkpt>
      <trkpt lat="48.11148" lon="3.48153">
        <ele>221.72</ele>
        <time>2016-10-09T12:30:53Z</time>
      </trkpt>
      <trkpt lat="48.11141" lon="3.48154">
        <ele>219.8</ele>
        <time>2016-10-09T12:31:00Z</time>
      </trkpt>
      <trkpt lat="48.11134" lon="3.48153">
        <ele>217.88</ele>
        <time>2016-10-09T12:31:07Z</time>
      </trkpt>
      <trkpt lat="48.11124" lon="3.48156">
        <ele>217.4</ele>
        <time>2016-10-09T12:31:16Z</time>
      </trkpt>
      <trkpt lat="48.11113" lon="3.48159">
        <ele>217.4</ele>
        <time>2016-10-09T12:31:26Z</time>
      </trkpt>
      <trkpt lat="48.11105" lon="3.48162">
        <ele>218.36</ele>
        <time>2016-10-09T12:31:33Z</time>
      </trkpt>
      <trkpt lat="48.11095" lon="3.48165">
        <ele>219.32</ele>
        <time>2016-10-09T12:31:42Z</time>
      </trkpt>
      <trkpt lat="48.11087" lon="3.48167">
        <ele>218.84</ele>
        <time>2016-10-09T12:31:50Z</time>
      </trkpt>
      <trkpt lat="48.1108" lon="3.48168">
        <ele>219.32</ele>
        <time>2016-10-09T12:31:56Z</time>
      </trkpt>
      <trkpt lat="48.11069" lon="3.4817">
        <ele>220.28</ele>
        <time>2016-10-09T12:32:06Z</time>
      </trkpt>
      <trkpt lat="48.11061" lon="3.48171">
        <ele>221.24</ele>
        <time>2016-10-09T12:32:14Z</time>
      </trkpt>
      <trkpt lat="48.11053" lon="3.48172">
        <ele>220.76</ele>
        <time>2016-10-09T12:32:22Z</time>
      </trkpt>
      <trkpt lat="48.11046" lon="3.48174">
        <ele>221.72</ele>
        <time>2016-10-09T12:32:28Z</time>
      </trkpt>
      <trkpt lat="48.11036" lon="3.48175">
        <ele>222.2</ele>
        <time>2016-10-09T12:32:37Z</time>
      </trkpt>
      <trkpt lat="48.11031" lon="3.48176">
        <ele>222.68</ele>
        <time>2016-10-09T12:32:42Z</time>
      </trkpt>
      <trkpt lat="48.11019" lon="3.4818">
        <ele>220.76</ele>
        <time>2016-10-09T12:32:51Z</time>
      </trkpt>
      <trkpt lat="48.11009" lon="3.48183">
        <ele>219.32</ele>
        <time>2016-10-09T12:32:58Z</time>
      </trkpt>
      <trkpt lat="48.10998" lon="3.48189">
        <ele>216.91</ele>
        <time>2016-10-09T12:33:08Z</time>
      </trkpt>
      <trkpt lat="48.10998" lon="3.4819">
        <ele>216.91</ele>
        <time>2016-10-09T12:33:09Z</time>
      </trkpt>
      <trkpt lat="48.10996" lon="3.48193">
        <ele>216.43</ele>
        <time>2016-10-09T12:33:11Z</time>
      </trkpt>
      <trkpt lat="48.1099" lon="3.48203">
        <ele>216.91</ele>
        <time>2016-10-09T12:33:19Z</time>
      </trkpt>
      <trkpt lat="48.10984" lon="3.48214">
        <ele>215.95</ele>
        <time>2016-10-09T12:33:27Z</time>
      </trkpt>
      <trkpt lat="48.10977" lon="3.48225">
        <ele>215.47</ele>
        <time>2016-10-09T12:33:36Z</time>
      </trkpt>
      <trkpt lat="48.10971" lon="3.48237">
        <ele>215.47</ele>
        <time>2016-10-09T12:33:46Z</time>
      </trkpt>
      <trkpt lat="48.10966" lon="3.48247">
        <ele>214.99</ele>
        <time>2016-10-09T12:33:54Z</time>
      </trkpt>
      <trkpt lat="48.10962" lon="3.48258">
        <ele>212.59</ele>
        <time>2016-10-09T12:34:02Z</time>
      </trkpt>
      <trkpt lat="48.10958" lon="3.48267">
        <ele>211.63</ele>
        <time>2016-10-09T12:34:09Z</time>
      </trkpt>
      <trkpt lat="48.10954" lon="3.48279">
        <ele>211.63</ele>
        <time>2016-10-09T12:34:17Z</time>
      </trkpt>
      <trkpt lat="48.1095" lon="3.4829">
        <ele>212.11</ele>
        <time>2016-10-09T12:34:25Z</time>
      </trkpt>
      <trkpt lat="48.10949" lon="3.48294">
        <ele>212.11</ele>
        <time>2016-10-09T12:34:29Z</time>
      </trkpt>
      <trkpt lat="48.10944" lon="3.48309">
        <ele>214.03</ele>
        <time>2016-10-09T12:34:38Z</time>
      </trkpt>
      <trkpt lat="48.10938" lon="3.48322">
        <ele>214.03</ele>
        <time>2016-10-09T12:34:47Z</time>
      </trkpt>
      <trkpt lat="48.10933" lon="3.48334">
        <ele>214.51</ele>
        <time>2016-10-09T12:34:55Z</time>
      </trkpt>
      <trkpt lat="48.10926" lon="3.48345">
        <ele>213.07</ele>
        <time>2016-10-09T12:35:03Z</time>
      </trkpt>
      <trkpt lat="48.10919" lon="3.4836">
        <ele>212.59</ele>
        <time>2016-10-09T12:35:13Z</time>
      </trkpt>
      <trkpt lat="48.10916" lon="3.48371">
        <ele>213.55</ele>
        <time>2016-10-09T12:35:20Z</time>
      </trkpt>
      <trkpt lat="48.10909" lon="3.48381">
        <ele>212.11</ele>
        <time>2016-10-09T12:35:28Z</time>
      </trkpt>
      <trkpt lat="48.10904" lon="3.4839">
        <ele>211.63</ele>
        <time>2016-10-09T12:35:34Z</time>
      </trkpt>
      <trkpt lat="48.10897" lon="3.48399">
        <ele>210.67</ele>
        <time>2016-10-09T12:35:42Z</time>
      </trkpt>
      <trkpt lat="48.1089" lon="3.48408">
        <ele>210.19</ele>
        <time>2016-10-09T12:35:50Z</time>
      </trkpt>
      <trkpt lat="48.10884" lon="3.48416">
        <ele>211.15</ele>
        <time>2016-10-09T12:35:57Z</time>
      </trkpt>
      <trkpt lat="48.10877" lon="3.48424">
        <ele>212.11</ele>
        <time>2016-10-09T12:36:05Z</time>
      </trkpt>
      <trkpt lat="48.10869" lon="3.4843">
        <ele>212.59</ele>
        <time>2016-10-09T12:36:12Z</time>
      </trkpt>
      <trkpt lat="48.10862" lon="3.48436">
        <ele>212.59</ele>
        <time>2016-10-09T12:36:19Z</time>
      </trkpt>
      <trkpt lat="48.10858" lon="3.4844">
        <ele>212.11</ele>
        <time>2016-10-09T12:36:27Z</time>
      </trkpt>
      <trkpt lat="48.10853" lon="3.48446">
        <ele>212.59</ele>
        <time>2016-10-09T12:36:33Z</time>
      </trkpt>
      <trkpt lat="48.10847" lon="3.48452">
        <ele>212.59</ele>
        <time>2016-10-09T12:36:40Z</time>
      </trkpt>
      <trkpt lat="48.10839" lon="3.48461">
        <ele>213.07</ele>
        <time>2016-10-09T12:36:49Z</time>
      </trkpt>
      <trkpt lat="48.10831" lon="3.48472">
        <ele>214.51</ele>
        <time>2016-10-09T12:36:58Z</time>
      </trkpt>
      <trkpt lat="48.10828" lon="3.4848">
        <ele>214.99</ele>
        <time>2016-10-09T12:37:04Z</time>
      </trkpt>
      <trkpt lat="48.10824" lon="3.48489">
        <ele>214.99</ele>
        <time>2016-10-09T12:37:11Z</time>
      </trkpt>
      <trkpt lat="48.10821" lon="3.48498">
        <ele>215.47</ele>
        <time>2016-10-09T12:37:17Z</time>
      </trkpt>
      <trkpt lat="48.10818" lon="3.48512">
        <ele>215.47</ele>
        <time>2016-10-09T12:37:26Z</time>
      </trkpt>
      <trkpt lat="48.10816" lon="3.48525">
        <ele>215.95</ele>
        <time>2016-10-09T12:37:34Z</time>
      </trkpt>
      <trkpt lat="48.10813" lon="3.48538">
        <ele>217.4</ele>
        <time>2016-10-09T12:37:42Z</time>
      </trkpt>
      <trkpt lat="48.1081" lon="3.48553">
        <ele>218.36</ele>
        <time>2016-10-09T12:37:51Z</time>
      </trkpt>
      <trkpt lat="48.10807" lon="3.48566">
        <ele>218.84</ele>
        <time>2016-10-09T12:37:59Z</time>
      </trkpt>
      <trkpt lat="48.10805" lon="3.48578">
        <ele>218.84</ele>
        <time>2016-10-09T12:38:06Z</time>
      </trkpt>
      <trkpt lat="48.10803" lon="3.4859">
        <ele>217.88</ele>
        <time>2016-10-09T12:38:14Z</time>
      </trkpt>
      <trkpt lat="48.10802" lon="3.48594">
        <ele>218.36</ele>
        <time>2016-10-09T12:38:16Z</time>
      </trkpt>
      <trkpt lat="48.10796" lon="3.48611">
        <ele>220.28</ele>
        <time>2016-10-09T12:38:28Z</time>
      </trkpt>
      <trkpt lat="48.10793" lon="3.48625">
        <ele>218.84</ele>
        <time>2016-10-09T12:38:37Z</time>
      </trkpt>
      <trkpt lat="48.10791" lon="3.48635">
        <ele>218.36</ele>
        <time>2016-10-09T12:38:44Z</time>
      </trkpt>
      <trkpt lat="48.10781" lon="3.48637">
        <ele>218.36</ele>
        <time>2016-10-09T12:38:52Z</time>
      </trkpt>
      <trkpt lat="48.1077" lon="3.48639">
        <ele>218.36</ele>
        <time>2016-10-09T12:39:01Z</time>
      </trkpt>
      <trkpt lat="48.10762" lon="3.48638">
        <ele>219.8</ele>
        <time>2016-10-09T12:39:08Z</time>
      </trkpt>
      <trkpt lat="48.10751" lon="3.48638">
        <ele>220.76</ele>
        <time>2016-10-09T12:39:18Z</time>
      </trkpt>
      <trkpt lat="48.10744" lon="3.48636">
        <ele>221.72</ele>
        <time>2016-10-09T12:39:25Z</time>
      </trkpt>
      <trkpt lat="48.10737" lon="3.48633">
        <ele>221.72</ele>
        <time>2016-10-09T12:39:32Z</time>
      </trkpt>
      <trkpt lat="48.1073" lon="3.4863">
        <ele>221.24</ele>
        <time>2016-10-09T12:39:39Z</time>
      </trkpt>
      <trkpt lat="48.10722" lon="3.48627">
        <ele>220.76</ele>
        <time>2016-10-09T12:39:47Z</time>
      </trkpt>
      <trkpt lat="48.10715" lon="3.48624">
        <ele>220.76</ele>
        <time>2016-10-09T12:39:54Z</time>
      </trkpt>
      <trkpt lat="48.10713" lon="3.48623">
        <ele>220.76</ele>
        <time>2016-10-09T12:39:56Z</time>
      </trkpt>
      <trkpt lat="48.10705" lon="3.48619">
        <ele>221.24</ele>
        <time>2016-10-09T12:40:04Z</time>
      </trkpt>
      <trkpt lat="48.10702" lon="3.48616">
        <ele>221.24</ele>
        <time>2016-10-09T12:40:08Z</time>
      </trkpt>
      <trkpt lat="48.10695" lon="3.48613">
        <ele>221.24</ele>
        <time>2016-10-09T12:40:15Z</time>
      </trkpt>
      <trkpt lat="48.10689" lon="3.4861">
        <ele>220.76</ele>
        <time>2016-10-09T12:40:21Z</time>
      </trkpt>
      <trkpt lat="48.10681" lon="3.48607">
        <ele>220.76</ele>
        <time>2016-10-09T12:40:29Z</time>
      </trkpt>
      <trkpt lat="48.10675" lon="3.48604">
        <ele>220.76</ele>
        <time>2016-10-09T12:40:36Z</time>
      </trkpt>
      <trkpt lat="48.10668" lon="3.486">
        <ele>221.24</ele>
        <time>2016-10-09T12:40:43Z</time>
      </trkpt>
      <trkpt lat="48.10661" lon="3.48595">
        <ele>221.72</ele>
        <time>2016-10-09T12:40:50Z</time>
      </trkpt>
      <trkpt lat="48.1066" lon="3.48593">
        <ele>221.72</ele>
        <time>2016-10-09T12:40:52Z</time>
      </trkpt>
      <trkpt lat="48.10651" lon="3.48588">
        <ele>220.28</ele>
        <time>2016-10-09T12:41:01Z</time>
      </trkpt>
      <trkpt lat="48.10644" lon="3.48583">
        <ele>220.28</ele>
        <time>2016-10-09T12:41:08Z</time>
      </trkpt>
      <trkpt lat="48.10637" lon="3.4858">
        <ele>220.76</ele>
        <time>2016-10-09T12:41:15Z</time>
      </trkpt>
      <trkpt lat="48.1063" lon="3.48576">
        <ele>220.76</ele>
        <time>2016-10-09T12:41:23Z</time>
      </trkpt>
      <trkpt lat="48.10623" lon="3.48573">
        <ele>220.28</ele>
        <time>2016-10-09T12:41:30Z</time>
      </trkpt>
      <trkpt lat="48.10616" lon="3.48569">
        <ele>220.76</ele>
        <time>2016-10-09T12:41:37Z</time>
      </trkpt>
      <trkpt lat="48.10609" lon="3.48566">
        <ele>221.24</ele>
        <time>2016-10-09T12:41:44Z</time>
      </trkpt>
      <trkpt lat="48.10601" lon="3.48562">
        <ele>221.24</ele>
        <time>2016-10-09T12:41:52Z</time>
      </trkpt>
      <trkpt lat="48.10592" lon="3.48558">
        <ele>221.24</ele>
        <time>2016-10-09T12:42:00Z</time>
      </trkpt>
      <trkpt lat="48.10585" lon="3.48554">
        <ele>222.68</ele>
        <time>2016-10-09T12:42:08Z</time>
      </trkpt>
      <trkpt lat="48.10578" lon="3.48551">
        <ele>223.64</ele>
        <time>2016-10-09T12:42:15Z</time>
      </trkpt>
      <trkpt lat="48.1057" lon="3.48546">
        <ele>223.64</ele>
        <time>2016-10-09T12:42:23Z</time>
      </trkpt>
      <trkpt lat="48.10565" lon="3.48544">
        <ele>223.16</ele>
        <time>2016-10-09T12:42:28Z</time>
      </trkpt>
      <trkpt lat="48.10553" lon="3.4854">
        <ele>221.24</ele>
        <time>2016-10-09T12:42:38Z</time>
      </trkpt>
      <trkpt lat="48.10547" lon="3.4854">
        <ele>219.8</ele>
        <time>2016-10-09T12:42:44Z</time>
      </trkpt>
      <trkpt lat="48.10537" lon="3.48543">
        <ele>219.32</ele>
        <time>2016-10-09T12:42:53Z</time>
      </trkpt>
      <trkpt lat="48.10531" lon="3.48547">
        <ele>219.8</ele>
        <time>2016-10-09T12:43:00Z</time>
      </trkpt>
      <trkpt lat="48.10525" lon="3.48551">
        <ele>218.84</ele>
        <time>2016-10-09T12:43:06Z</time>
      </trkpt>
      <trkpt lat="48.10518" lon="3.48556">
        <ele>219.32</ele>
        <time>2016-10-09T12:43:13Z</time>
      </trkpt>
      <trkpt lat="48.10509" lon="3.48561">
        <ele>219.32</ele>
        <time>2016-10-09T12:43:21Z</time>
      </trkpt>
      <trkpt lat="48.10502" lon="3.48568">
        <ele>219.32</ele>
        <time>2016-10-09T12:43:29Z</time>
      </trkpt>
      <trkpt lat="48.10497" lon="3.48573">
        <ele>219.32</ele>
        <time>2016-10-09T12:43:35Z</time>
      </trkpt>
      <trkpt lat="48.10497" lon="3.48573">
        <ele>218.84</ele>
        <time>2016-10-09T12:43:36Z</time>
      </trkpt>
      <trkpt lat="48.10488" lon="3.48581">
        <ele>220.28</ele>
        <time>2016-10-09T12:43:46Z</time>
      </trkpt>
      <trkpt lat="48.1048" lon="3.48584">
        <ele>221.24</ele>
        <time>2016-10-09T12:43:53Z</time>
      </trkpt>
      <trkpt lat="48.10474" lon="3.48587">
        <ele>221.24</ele>
        <time>2016-10-09T12:43:59Z</time>
      </trkpt>
      <trkpt lat="48.10465" lon="3.48592">
        <ele>220.76</ele>
        <time>2016-10-09T12:44:07Z</time>
      </trkpt>
      <trkpt lat="48.10456" lon="3.48596">
        <ele>218.84</ele>
        <time>2016-10-09T12:44:15Z</time>
      </trkpt>
      <trkpt lat="48.10452" lon="3.48598">
        <ele>218.36</ele>
        <time>2016-10-09T12:44:20Z</time>
      </trkpt>
      <trkpt lat="48.10445" lon="3.48599">
        <ele>218.84</ele>
        <time>2016-10-09T12:44:28Z</time>
      </trkpt>
      <trkpt lat="48.10436" lon="3.48601">
        <ele>220.28</ele>
        <time>2016-10-09T12:44:35Z</time>
      </trkpt>
      <trkpt lat="48.10431" lon="3.48604">
        <ele>219.8</ele>
        <time>2016-10-09T12:44:40Z</time>
      </trkpt>
      <trkpt lat="48.10425" lon="3.48607">
        <ele>218.84</ele>
        <time>2016-10-09T12:44:47Z</time>
      </trkpt>
      <trkpt lat="48.10417" lon="3.48616">
        <ele>219.32</ele>
        <time>2016-10-09T12:44:55Z</time>
      </trkpt>
      <trkpt lat="48.10421" lon="3.48613">
        <ele>223.16</ele>
        <time>2016-10-09T12:44:59Z</time>
      </trkpt>
      <trkpt lat="48.10409" lon="3.48616">
        <ele>226.53</ele>
        <time>2016-10-09T12:45:07Z</time>
      </trkpt>
      <trkpt lat="48.10397" lon="3.48623">
        <ele>224.61</ele>
        <time>2016-10-09T12:45:16Z</time>
      </trkpt>
      <trkpt lat="48.10386" lon="3.48628">
        <ele>221.72</ele>
        <time>2016-10-09T12:45:25Z</time>
      </trkpt>
      <trkpt lat="48.10379" lon="3.48633">
        <ele>218.36</ele>
        <time>2016-10-09T12:45:32Z</time>
      </trkpt>
      <trkpt lat="48.10375" lon="3.48637">
        <ele>216.91</ele>
        <time>2016-10-09T12:45:37Z</time>
      </trkpt>
      <trkpt lat="48.10369" lon="3.48644">
        <ele>214.99</ele>
        <time>2016-10-09T12:45:45Z</time>
      </trkpt>
      <trkpt lat="48.10361" lon="3.48651">
        <ele>214.51</ele>
        <time>2016-10-09T12:45:53Z</time>
      </trkpt>
      <trkpt lat="48.10354" lon="3.48653">
        <ele>214.51</ele>
        <time>2016-10-09T12:46:00Z</time>
      </trkpt>
      <trkpt lat="48.10351" lon="3.48654">
        <ele>214.51</ele>
        <time>2016-10-09T12:46:02Z</time>
      </trkpt>
      <trkpt lat="48.10343" lon="3.48651">
        <ele>214.03</ele>
        <time>2016-10-09T12:46:10Z</time>
      </trkpt>
      <trkpt lat="48.10334" lon="3.48645">
        <ele>214.03</ele>
        <time>2016-10-09T12:46:19Z</time>
      </trkpt>
      <trkpt lat="48.10331" lon="3.48646">
        <ele>215.47</ele>
        <time>2016-10-09T12:46:26Z</time>
      </trkpt>
      <trkpt lat="48.1033" lon="3.48645">
        <ele>216.43</ele>
        <time>2016-10-09T12:46:36Z</time>
      </trkpt>
      <trkpt lat="48.10329" lon="3.48647">
        <ele>216.43</ele>
        <time>2016-10-09T12:46:43Z</time>
      </trkpt>
      <trkpt lat="48.10323" lon="3.48655">
        <ele>214.03</ele>
        <time>2016-10-09T12:46:52Z</time>
      </trkpt>
      <trkpt lat="48.10322" lon="3.48656">
        <ele>214.99</ele>
        <time>2016-10-09T12:46:58Z</time>
      </trkpt>
      <trkpt lat="48.10323" lon="3.48657">
        <ele>217.88</ele>
        <time>2016-10-09T12:47:13Z</time>
      </trkpt>
      <trkpt lat="48.10321" lon="3.48656">
        <ele>216.91</ele>
        <time>2016-10-09T12:47:32Z</time>
      </trkpt>
      <trkpt lat="48.10321" lon="3.48658">
        <ele>215.95</ele>
        <time>2016-10-09T12:47:47Z</time>
      </trkpt>
      <trkpt lat="48.10322" lon="3.48658">
        <ele>215.95</ele>
        <time>2016-10-09T12:48:02Z</time>
      </trkpt>
      <trkpt lat="48.10323" lon="3.48659">
        <ele>213.55</ele>
        <time>2016-10-09T12:48:20Z</time>
      </trkpt>
      <trkpt lat="48.10322" lon="3.48655">
        <ele>214.03</ele>
        <time>2016-10-09T12:48:26Z</time>
      </trkpt>
      <trkpt lat="48.10327" lon="3.48651">
        <ele>213.07</ele>
        <time>2016-10-09T12:48:34Z</time>
      </trkpt>
      <trkpt lat="48.10328" lon="3.48648">
        <ele>217.88</ele>
        <time>2016-10-09T12:48:52Z</time>
      </trkpt>
      <trkpt lat="48.10326" lon="3.48645">
        <ele>222.68</ele>
        <time>2016-10-09T12:49:06Z</time>
      </trkpt>
      <trkpt lat="48.10328" lon="3.48643">
        <ele>221.72</ele>
        <time>2016-10-09T12:49:16Z</time>
      </trkpt>
      <trkpt lat="48.10331" lon="3.48646">
        <ele>220.76</ele>
        <time>2016-10-09T12:49:33Z</time>
      </trkpt>
      <trkpt lat="48.1033" lon="3.48646">
        <ele>219.32</ele>
        <time>2016-10-09T12:49:45Z</time>
      </trkpt>
      <trkpt lat="48.1033" lon="3.48649">
        <ele>221.72</ele>
        <time>2016-10-09T12:49:55Z</time>
      </trkpt>
      <trkpt lat="48.1033" lon="3.4865">
        <ele>222.68</ele>
        <time>2016-10-09T12:50:05Z</time>
      </trkpt>
      <trkpt lat="48.10331" lon="3.48655">
        <ele>225.09</ele>
        <time>2016-10-09T12:50:17Z</time>
      </trkpt>
      <trkpt lat="48.1033" lon="3.48655">
        <ele>224.61</ele>
        <time>2016-10-09T12:50:29Z</time>
      </trkpt>
      <trkpt lat="48.10331" lon="3.48658">
        <ele>224.61</ele>
        <time>2016-10-09T12:50:37Z</time>
      </trkpt>
      <trkpt lat="48.10331" lon="3.4866">
        <ele>224.61</ele>
        <time>2016-10-09T12:50:38Z</time>
      </trkpt>
      <trkpt lat="48.10331" lon="3.48669">
        <ele>224.12</ele>
        <time>2016-10-09T12:50:45Z</time>
      </trkpt>
      <trkpt lat="48.10328" lon="3.48678">
        <ele>223.64</ele>
        <time>2016-10-09T12:50:52Z</time>
      </trkpt>
      <trkpt lat="48.10325" lon="3.48681">
        <ele>223.64</ele>
        <time>2016-10-09T12:50:59Z</time>
      </trkpt>
      <trkpt lat="48.10324" lon="3.48681">
        <ele>224.12</ele>
        <time>2016-10-09T12:51:13Z</time>
      </trkpt>
      <trkpt lat="48.10323" lon="3.48681">
        <ele>223.64</ele>
        <time>2016-10-09T12:51:30Z</time>
      </trkpt>
      <trkpt lat="48.10321" lon="3.48683">
        <ele>224.12</ele>
        <time>2016-10-09T12:51:42Z</time>
      </trkpt>
      <trkpt lat="48.10319" lon="3.48685">
        <ele>223.16</ele>
        <time>2016-10-09T12:51:49Z</time>
      </trkpt>
      <trkpt lat="48.10315" lon="3.48686">
        <ele>221.24</ele>
        <time>2016-10-09T12:51:54Z</time>
      </trkpt>
      <trkpt lat="48.10307" lon="3.4869">
        <ele>221.24</ele>
        <time>2016-10-09T12:52:02Z</time>
      </trkpt>
      <trkpt lat="48.10298" lon="3.48694">
        <ele>220.76</ele>
        <time>2016-10-09T12:52:10Z</time>
      </trkpt>
      <trkpt lat="48.10291" lon="3.48696">
        <ele>218.84</ele>
        <time>2016-10-09T12:52:17Z</time>
      </trkpt>
      <trkpt lat="48.10285" lon="3.48697">
        <ele>218.84</ele>
        <time>2016-10-09T12:52:25Z</time>
      </trkpt>
      <trkpt lat="48.10278" lon="3.48702">
        <ele>219.32</ele>
        <time>2016-10-09T12:52:33Z</time>
      </trkpt>
      <trkpt lat="48.10271" lon="3.48707">
        <ele>219.8</ele>
        <time>2016-10-09T12:52:40Z</time>
      </trkpt>
      <trkpt lat="48.10264" lon="3.48713">
        <ele>220.76</ele>
        <time>2016-10-09T12:52:48Z</time>
      </trkpt>
      <trkpt lat="48.10258" lon="3.48716">
        <ele>222.2</ele>
        <time>2016-10-09T12:52:55Z</time>
      </trkpt>
      <trkpt lat="48.10252" lon="3.4872">
        <ele>223.16</ele>
        <time>2016-10-09T12:53:01Z</time>
      </trkpt>
      <trkpt lat="48.10247" lon="3.48724">
        <ele>225.09</ele>
        <time>2016-10-09T12:53:08Z</time>
      </trkpt>
      <trkpt lat="48.1024" lon="3.48729">
        <ele>227.01</ele>
        <time>2016-10-09T12:53:15Z</time>
      </trkpt>
      <trkpt lat="48.10233" lon="3.48732">
        <ele>227.49</ele>
        <time>2016-10-09T12:53:21Z</time>
      </trkpt>
      <trkpt lat="48.10226" lon="3.48739">
        <ele>228.93</ele>
        <time>2016-10-09T12:53:29Z</time>
      </trkpt>
      <trkpt lat="48.10216" lon="3.48746">
        <ele>230.85</ele>
        <time>2016-10-09T12:53:38Z</time>
      </trkpt>
      <trkpt lat="48.10206" lon="3.48751">
        <ele>230.85</ele>
        <time>2016-10-09T12:53:47Z</time>
      </trkpt>
      <trkpt lat="48.102" lon="3.48756">
        <ele>231.81</ele>
        <time>2016-10-09T12:53:54Z</time>
      </trkpt>
      <trkpt lat="48.10194" lon="3.4876">
        <ele>232.78</ele>
        <time>2016-10-09T12:54:01Z</time>
      </trkpt>
      <trkpt lat="48.10187" lon="3.48766">
        <ele>233.26</ele>
        <time>2016-10-09T12:54:08Z</time>
      </trkpt>
      <trkpt lat="48.10181" lon="3.4877">
        <ele>233.26</ele>
        <time>2016-10-09T12:54:15Z</time>
      </trkpt>
      <trkpt lat="48.10175" lon="3.48773">
        <ele>232.78</ele>
        <time>2016-10-09T12:54:22Z</time>
      </trkpt>
      <trkpt lat="48.10167" lon="3.48779">
        <ele>231.33</ele>
        <time>2016-10-09T12:54:30Z</time>
      </trkpt>
      <trkpt lat="48.10166" lon="3.4878">
        <ele>231.33</ele>
        <time>2016-10-09T12:54:31Z</time>
      </trkpt>
      <trkpt lat="48.10159" lon="3.48785">
        <ele>231.33</ele>
        <time>2016-10-09T12:54:38Z</time>
      </trkpt>
      <trkpt lat="48.10149" lon="3.48793">
        <ele>231.33</ele>
        <time>2016-10-09T12:54:47Z</time>
      </trkpt>
      <trkpt lat="48.10144" lon="3.488">
        <ele>232.3</ele>
        <time>2016-10-09T12:54:54Z</time>
      </trkpt>
      <trkpt lat="48.10137" lon="3.48807">
        <ele>233.26</ele>
        <time>2016-10-09T12:55:02Z</time>
      </trkpt>
      <trkpt lat="48.10132" lon="3.48812">
        <ele>234.22</ele>
        <time>2016-10-09T12:55:10Z</time>
      </trkpt>
      <trkpt lat="48.10131" lon="3.48813">
        <ele>233.74</ele>
        <time>2016-10-09T12:55:12Z</time>
      </trkpt>
      <trkpt lat="48.10126" lon="3.48816">
        <ele>232.78</ele>
        <time>2016-10-09T12:55:19Z</time>
      </trkpt>
      <trkpt lat="48.10112" lon="3.48821">
        <ele>231.33</ele>
        <time>2016-10-09T12:55:27Z</time>
      </trkpt>
      <trkpt lat="48.10102" lon="3.48826">
        <ele>229.41</ele>
        <time>2016-10-09T12:55:35Z</time>
      </trkpt>
      <trkpt lat="48.10095" lon="3.48824">
        <ele>230.85</ele>
        <time>2016-10-09T12:55:44Z</time>
      </trkpt>
      <trkpt lat="48.10094" lon="3.48823">
        <ele>230.37</ele>
        <time>2016-10-09T12:55:59Z</time>
      </trkpt>
      <trkpt lat="48.10092" lon="3.48825">
        <ele>227.97</ele>
        <time>2016-10-09T12:56:19Z</time>
      </trkpt>
      <trkpt lat="48.10087" lon="3.48827">
        <ele>227.97</ele>
        <time>2016-10-09T12:56:28Z</time>
      </trkpt>
      <trkpt lat="48.1008" lon="3.4883">
        <ele>227.97</ele>
        <time>2016-10-09T12:56:38Z</time>
      </trkpt>
      <trkpt lat="48.10072" lon="3.48837">
        <ele>227.97</ele>
        <time>2016-10-09T12:56:46Z</time>
      </trkpt>
      <trkpt lat="48.10067" lon="3.4884">
        <ele>225.57</ele>
        <time>2016-10-09T12:56:53Z</time>
      </trkpt>
      <trkpt lat="48.10066" lon="3.48841">
        <ele>225.57</ele>
        <time>2016-10-09T12:56:54Z</time>
      </trkpt>
      <trkpt lat="48.10058" lon="3.48848">
        <ele>224.61</ele>
        <time>2016-10-09T12:57:03Z</time>
      </trkpt>
      <trkpt lat="48.10053" lon="3.48852">
        <ele>224.12</ele>
        <time>2016-10-09T12:57:10Z</time>
      </trkpt>
      <trkpt lat="48.10048" lon="3.48858">
        <ele>224.61</ele>
        <time>2016-10-09T12:57:18Z</time>
      </trkpt>
      <trkpt lat="48.10042" lon="3.48862">
        <ele>225.09</ele>
        <time>2016-10-09T12:57:25Z</time>
      </trkpt>
      <trkpt lat="48.10034" lon="3.48867">
        <ele>226.05</ele>
        <time>2016-10-09T12:57:34Z</time>
      </trkpt>
      <trkpt lat="48.10029" lon="3.4887">
        <ele>225.09</ele>
        <time>2016-10-09T12:57:40Z</time>
      </trkpt>
      <trkpt lat="48.10021" lon="3.48874">
        <ele>223.64</ele>
        <time>2016-10-09T12:57:48Z</time>
      </trkpt>
      <trkpt lat="48.10013" lon="3.48877">
        <ele>223.16</ele>
        <time>2016-10-09T12:57:55Z</time>
      </trkpt>
      <trkpt lat="48.10008" lon="3.48876">
        <ele>222.2</ele>
        <time>2016-10-09T12:58:02Z</time>
      </trkpt>
      <trkpt lat="48.10003" lon="3.48879">
        <ele>222.68</ele>
        <time>2016-10-09T12:58:06Z</time>
      </trkpt>
      <trkpt lat="48.09994" lon="3.48883">
        <ele>224.12</ele>
        <time>2016-10-09T12:58:14Z</time>
      </trkpt>
      <trkpt lat="48.09988" lon="3.48887">
        <ele>224.61</ele>
        <time>2016-10-09T12:58:21Z</time>
      </trkpt>
      <trkpt lat="48.09986" lon="3.48895">
        <ele>224.61</ele>
        <time>2016-10-09T12:58:29Z</time>
      </trkpt>
      <trkpt lat="48.09985" lon="3.489">
        <ele>225.09</ele>
        <time>2016-10-09T12:58:38Z</time>
      </trkpt>
      <trkpt lat="48.09981" lon="3.489">
        <ele>228.45</ele>
        <time>2016-10-09T12:58:49Z</time>
      </trkpt>
      <trkpt lat="48.09978" lon="3.48902">
        <ele>230.85</ele>
        <time>2016-10-09T12:59:01Z</time>
      </trkpt>
      <trkpt lat="48.09977" lon="3.48904">
        <ele>229.89</ele>
        <time>2016-10-09T12:59:13Z</time>
      </trkpt>
      <trkpt lat="48.09976" lon="3.48904">
        <ele>230.85</ele>
        <time>2016-10-09T12:59:21Z</time>
      </trkpt>
      <trkpt lat="48.09974" lon="3.48906">
        <ele>231.81</ele>
        <time>2016-10-09T12:59:33Z</time>
      </trkpt>
      <trkpt lat="48.09973" lon="3.48904">
        <ele>230.37</ele>
        <time>2016-10-09T12:59:46Z</time>
      </trkpt>
      <trkpt lat="48.09971" lon="3.48911">
        <ele>228.45</ele>
        <time>2016-10-09T12:59:54Z</time>
      </trkpt>
      <trkpt lat="48.0997" lon="3.48919">
        <ele>226.53</ele>
        <time>2016-10-09T13:00:01Z</time>
      </trkpt>
      <trkpt lat="48.09972" lon="3.48926">
        <ele>227.97</ele>
        <time>2016-10-09T13:00:04Z</time>
      </trkpt>
      <trkpt lat="48.09972" lon="3.48941">
        <ele>230.37</ele>
        <time>2016-10-09T13:00:12Z</time>
      </trkpt>
      <trkpt lat="48.09973" lon="3.48943">
        <ele>230.85</ele>
        <time>2016-10-09T13:00:13Z</time>
      </trkpt>
      <trkpt lat="48.09971" lon="3.48951">
        <ele>232.3</ele>
        <time>2016-10-09T13:00:19Z</time>
      </trkpt>
      <trkpt lat="48.0997" lon="3.48963">
        <ele>233.74</ele>
        <time>2016-10-09T13:00:27Z</time>
      </trkpt>
      <trkpt lat="48.09969" lon="3.48965">
        <ele>233.74</ele>
        <time>2016-10-09T13:00:29Z</time>
      </trkpt>
      <trkpt lat="48.0997" lon="3.48973">
        <ele>233.74</ele>
        <time>2016-10-09T13:00:35Z</time>
      </trkpt>
      <trkpt lat="48.09969" lon="3.48977">
        <ele>233.26</ele>
        <time>2016-10-09T13:00:37Z</time>
      </trkpt>
      <trkpt lat="48.09968" lon="3.48988">
        <ele>230.85</ele>
        <time>2016-10-09T13:00:44Z</time>
      </trkpt>
      <trkpt lat="48.09971" lon="3.48999">
        <ele>230.85</ele>
        <time>2016-10-09T13:00:51Z</time>
      </trkpt>
      <trkpt lat="48.09967" lon="3.4901">
        <ele>231.81</ele>
        <time>2016-10-09T13:00:58Z</time>
      </trkpt>
      <trkpt lat="48.09966" lon="3.49016">
        <ele>230.85</ele>
        <time>2016-10-09T13:01:04Z</time>
      </trkpt>
      <trkpt lat="48.09963" lon="3.49029">
        <ele>230.85</ele>
        <time>2016-10-09T13:01:11Z</time>
      </trkpt>
      <trkpt lat="48.09961" lon="3.49042">
        <ele>231.81</ele>
        <time>2016-10-09T13:01:18Z</time>
      </trkpt>
      <trkpt lat="48.09956" lon="3.49056">
        <ele>233.26</ele>
        <time>2016-10-09T13:01:26Z</time>
      </trkpt>
      <trkpt lat="48.09954" lon="3.49065">
        <ele>233.26</ele>
        <time>2016-10-09T13:01:33Z</time>
      </trkpt>
      <trkpt lat="48.09948" lon="3.49076">
        <ele>234.7</ele>
        <time>2016-10-09T13:01:39Z</time>
      </trkpt>
      <trkpt lat="48.09945" lon="3.4909">
        <ele>235.18</ele>
        <time>2016-10-09T13:01:46Z</time>
      </trkpt>
      <trkpt lat="48.09942" lon="3.49102">
        <ele>234.22</ele>
        <time>2016-10-09T13:01:53Z</time>
      </trkpt>
      <trkpt lat="48.09942" lon="3.49111">
        <ele>234.7</ele>
        <time>2016-10-09T13:01:59Z</time>
      </trkpt>
      <trkpt lat="48.09938" lon="3.49122">
        <ele>236.62</ele>
        <time>2016-10-09T13:02:06Z</time>
      </trkpt>
      <trkpt lat="48.09939" lon="3.49129">
        <ele>237.1</ele>
        <time>2016-10-09T13:02:11Z</time>
      </trkpt>
      <trkpt lat="48.09936" lon="3.4914">
        <ele>237.58</ele>
        <time>2016-10-09T13:02:17Z</time>
      </trkpt>
      <trkpt lat="48.09934" lon="3.49153">
        <ele>238.06</ele>
        <time>2016-10-09T13:02:23Z</time>
      </trkpt>
      <trkpt lat="48.09928" lon="3.49166">
        <ele>239.02</ele>
        <time>2016-10-09T13:02:31Z</time>
      </trkpt>
      <trkpt lat="48.09927" lon="3.4917">
        <ele>239.02</ele>
        <time>2016-10-09T13:02:33Z</time>
      </trkpt>
      <trkpt lat="48.09928" lon="3.4918">
        <ele>238.54</ele>
        <time>2016-10-09T13:02:39Z</time>
      </trkpt>
      <trkpt lat="48.09924" lon="3.49194">
        <ele>237.58</ele>
        <time>2016-10-09T13:02:47Z</time>
      </trkpt>
      <trkpt lat="48.09919" lon="3.49208">
        <ele>236.62</ele>
        <time>2016-10-09T13:02:55Z</time>
      </trkpt>
      <trkpt lat="48.09916" lon="3.49221">
        <ele>237.58</ele>
        <time>2016-10-09T13:03:02Z</time>
      </trkpt>
      <trkpt lat="48.09914" lon="3.4923">
        <ele>237.58</ele>
        <time>2016-10-09T13:03:06Z</time>
      </trkpt>
      <trkpt lat="48.09913" lon="3.49244">
        <ele>237.58</ele>
        <time>2016-10-09T13:03:14Z</time>
      </trkpt>
      <trkpt lat="48.09912" lon="3.49246">
        <ele>238.06</ele>
        <time>2016-10-09T13:03:15Z</time>
      </trkpt>
      <trkpt lat="48.0991" lon="3.49255">
        <ele>238.54</ele>
        <time>2016-10-09T13:03:21Z</time>
      </trkpt>
      <trkpt lat="48.09907" lon="3.49271">
        <ele>238.54</ele>
        <time>2016-10-09T13:03:29Z</time>
      </trkpt>
      <trkpt lat="48.09904" lon="3.49283">
        <ele>238.06</ele>
        <time>2016-10-09T13:03:37Z</time>
      </trkpt>
      <trkpt lat="48.09902" lon="3.49295">
        <ele>239.02</ele>
        <time>2016-10-09T13:03:43Z</time>
      </trkpt>
      <trkpt lat="48.09901" lon="3.49308">
        <ele>239.51</ele>
        <time>2016-10-09T13:03:51Z</time>
      </trkpt>
      <trkpt lat="48.09897" lon="3.49321">
        <ele>238.54</ele>
        <time>2016-10-09T13:03:58Z</time>
      </trkpt>
      <trkpt lat="48.09895" lon="3.49332">
        <ele>238.06</ele>
        <time>2016-10-09T13:04:04Z</time>
      </trkpt>
      <trkpt lat="48.09893" lon="3.49342">
        <ele>238.06</ele>
        <time>2016-10-09T13:04:10Z</time>
      </trkpt>
      <trkpt lat="48.09891" lon="3.49355">
        <ele>238.06</ele>
        <time>2016-10-09T13:04:17Z</time>
      </trkpt>
      <trkpt lat="48.09888" lon="3.49363">
        <ele>238.54</ele>
        <time>2016-10-09T13:04:22Z</time>
      </trkpt>
      <trkpt lat="48.09885" lon="3.4938">
        <ele>239.02</ele>
        <time>2016-10-09T13:04:32Z</time>
      </trkpt>
      <trkpt lat="48.09884" lon="3.49385">
        <ele>239.99</ele>
        <time>2016-10-09T13:04:35Z</time>
      </trkpt>
      <trkpt lat="48.09879" lon="3.494">
        <ele>239.02</ele>
        <time>2016-10-09T13:04:44Z</time>
      </trkpt>
      <trkpt lat="48.09879" lon="3.49402">
        <ele>239.02</ele>
        <time>2016-10-09T13:04:45Z</time>
      </trkpt>
      <trkpt lat="48.09878" lon="3.49407">
        <ele>238.06</ele>
        <time>2016-10-09T13:04:48Z</time>
      </trkpt>
      <trkpt lat="48.09875" lon="3.49422">
        <ele>237.58</ele>
        <time>2016-10-09T13:04:56Z</time>
      </trkpt>
      <trkpt lat="48.09872" lon="3.49432">
        <ele>237.1</ele>
        <time>2016-10-09T13:05:02Z</time>
      </trkpt>
      <trkpt lat="48.0987" lon="3.49446">
        <ele>236.14</ele>
        <time>2016-10-09T13:05:10Z</time>
      </trkpt>
      <trkpt lat="48.09867" lon="3.49459">
        <ele>236.14</ele>
        <time>2016-10-09T13:05:17Z</time>
      </trkpt>
      <trkpt lat="48.09865" lon="3.4947">
        <ele>234.7</ele>
        <time>2016-10-09T13:05:24Z</time>
      </trkpt>
      <trkpt lat="48.09861" lon="3.49486">
        <ele>234.7</ele>
        <time>2016-10-09T13:05:32Z</time>
      </trkpt>
      <trkpt lat="48.0986" lon="3.49495">
        <ele>235.18</ele>
        <time>2016-10-09T13:05:38Z</time>
      </trkpt>
      <trkpt lat="48.09858" lon="3.49505">
        <ele>235.18</ele>
        <time>2016-10-09T13:05:43Z</time>
      </trkpt>
      <trkpt lat="48.09855" lon="3.49518">
        <ele>235.66</ele>
        <time>2016-10-09T13:05:51Z</time>
      </trkpt>
      <trkpt lat="48.09852" lon="3.49534">
        <ele>234.7</ele>
        <time>2016-10-09T13:06:00Z</time>
      </trkpt>
      <trkpt lat="48.09849" lon="3.49549">
        <ele>233.74</ele>
        <time>2016-10-09T13:06:08Z</time>
      </trkpt>
      <trkpt lat="48.09846" lon="3.49562">
        <ele>233.26</ele>
        <time>2016-10-09T13:06:16Z</time>
      </trkpt>
      <trkpt lat="48.09842" lon="3.49577">
        <ele>234.22</ele>
        <time>2016-10-09T13:06:24Z</time>
      </trkpt>
      <trkpt lat="48.09839" lon="3.49589">
        <ele>234.7</ele>
        <time>2016-10-09T13:06:31Z</time>
      </trkpt>
      <trkpt lat="48.09838" lon="3.49601">
        <ele>234.7</ele>
        <time>2016-10-09T13:06:38Z</time>
      </trkpt>
      <trkpt lat="48.09835" lon="3.49617">
        <ele>235.18</ele>
        <time>2016-10-09T13:06:46Z</time>
      </trkpt>
      <trkpt lat="48.09835" lon="3.4962">
        <ele>235.66</ele>
        <time>2016-10-09T13:06:49Z</time>
      </trkpt>
      <trkpt lat="48.09831" lon="3.49636">
        <ele>236.14</ele>
        <time>2016-10-09T13:06:58Z</time>
      </trkpt>
      <trkpt lat="48.09828" lon="3.4965">
        <ele>236.14</ele>
        <time>2016-10-09T13:07:05Z</time>
      </trkpt>
      <trkpt lat="48.09826" lon="3.4966">
        <ele>235.66</ele>
        <time>2016-10-09T13:07:12Z</time>
      </trkpt>
      <trkpt lat="48.09823" lon="3.49673">
        <ele>235.18</ele>
        <time>2016-10-09T13:07:19Z</time>
      </trkpt>
      <trkpt lat="48.0982" lon="3.49689">
        <ele>233.74</ele>
        <time>2016-10-09T13:07:28Z</time>
      </trkpt>
      <trkpt lat="48.09818" lon="3.49695">
        <ele>232.78</ele>
        <time>2016-10-09T13:07:32Z</time>
      </trkpt>
      <trkpt lat="48.09816" lon="3.49706">
        <ele>232.3</ele>
        <time>2016-10-09T13:07:38Z</time>
      </trkpt>
      <trkpt lat="48.09813" lon="3.49721">
        <ele>232.3</ele>
        <time>2016-10-09T13:07:47Z</time>
      </trkpt>
      <trkpt lat="48.09811" lon="3.49732">
        <ele>233.74</ele>
        <time>2016-10-09T13:07:54Z</time>
      </trkpt>
      <trkpt lat="48.09808" lon="3.49749">
        <ele>235.66</ele>
        <time>2016-10-09T13:08:03Z</time>
      </trkpt>
      <trkpt lat="48.09805" lon="3.4976">
        <ele>236.14</ele>
        <time>2016-10-09T13:08:10Z</time>
      </trkpt>
      <trkpt lat="48.09805" lon="3.49766">
        <ele>236.14</ele>
        <time>2016-10-09T13:08:13Z</time>
      </trkpt>
      <trkpt lat="48.09802" lon="3.49774">
        <ele>234.7</ele>
        <time>2016-10-09T13:08:18Z</time>
      </trkpt>
      <trkpt lat="48.09798" lon="3.49791">
        <ele>234.7</ele>
        <time>2016-10-09T13:08:28Z</time>
      </trkpt>
      <trkpt lat="48.09795" lon="3.49805">
        <ele>234.7</ele>
        <time>2016-10-09T13:08:35Z</time>
      </trkpt>
      <trkpt lat="48.09793" lon="3.49817">
        <ele>234.7</ele>
        <time>2016-10-09T13:08:42Z</time>
      </trkpt>
      <trkpt lat="48.0979" lon="3.4983">
        <ele>236.14</ele>
        <time>2016-10-09T13:08:50Z</time>
      </trkpt>
      <trkpt lat="48.09789" lon="3.4984">
        <ele>237.1</ele>
        <time>2016-10-09T13:08:57Z</time>
      </trkpt>
      <trkpt lat="48.09787" lon="3.49854">
        <ele>237.58</ele>
        <time>2016-10-09T13:09:05Z</time>
      </trkpt>
      <trkpt lat="48.09783" lon="3.49869">
        <ele>238.06</ele>
        <time>2016-10-09T13:09:14Z</time>
      </trkpt>
      <trkpt lat="48.0978" lon="3.49882">
        <ele>239.02</ele>
        <time>2016-10-09T13:09:22Z</time>
      </trkpt>
      <trkpt lat="48.09778" lon="3.49895">
        <ele>239.02</ele>
        <time>2016-10-09T13:09:30Z</time>
      </trkpt>
      <trkpt lat="48.09775" lon="3.49908">
        <ele>239.51</ele>
        <time>2016-10-09T13:09:38Z</time>
      </trkpt>
      <trkpt lat="48.09772" lon="3.49926">
        <ele>239.99</ele>
        <time>2016-10-09T13:09:47Z</time>
      </trkpt>
      <trkpt lat="48.0977" lon="3.49939">
        <ele>239.51</ele>
        <time>2016-10-09T13:09:56Z</time>
      </trkpt>
      <trkpt lat="48.09765" lon="3.49954">
        <ele>238.06</ele>
        <time>2016-10-09T13:10:04Z</time>
      </trkpt>
      <trkpt lat="48.09765" lon="3.49967">
        <ele>238.54</ele>
        <time>2016-10-09T13:10:13Z</time>
      </trkpt>
      <trkpt lat="48.09763" lon="3.49982">
        <ele>238.06</ele>
        <time>2016-10-09T13:10:21Z</time>
      </trkpt>
      <trkpt lat="48.09761" lon="3.49989">
        <ele>238.06</ele>
        <time>2016-10-09T13:10:25Z</time>
      </trkpt>
      <trkpt lat="48.09757" lon="3.50009">
        <ele>239.51</ele>
        <time>2016-10-09T13:10:35Z</time>
      </trkpt>
      <trkpt lat="48.09756" lon="3.50017">
        <ele>239.99</ele>
        <time>2016-10-09T13:10:39Z</time>
      </trkpt>
      <trkpt lat="48.09754" lon="3.50028">
        <ele>240.47</ele>
        <time>2016-10-09T13:10:46Z</time>
      </trkpt>
      <trkpt lat="48.09754" lon="3.50033">
        <ele>240.47</ele>
        <time>2016-10-09T13:10:49Z</time>
      </trkpt>
      <trkpt lat="48.09751" lon="3.50046">
        <ele>240.95</ele>
        <time>2016-10-09T13:10:57Z</time>
      </trkpt>
      <trkpt lat="48.09748" lon="3.50061">
        <ele>242.39</ele>
        <time>2016-10-09T13:11:05Z</time>
      </trkpt>
      <trkpt lat="48.09747" lon="3.50065">
        <ele>243.35</ele>
        <time>2016-10-09T13:11:08Z</time>
      </trkpt>
      <trkpt lat="48.09744" lon="3.50081">
        <ele>244.79</ele>
        <time>2016-10-09T13:11:17Z</time>
      </trkpt>
      <trkpt lat="48.09741" lon="3.50096">
        <ele>244.31</ele>
        <time>2016-10-09T13:11:25Z</time>
      </trkpt>
      <trkpt lat="48.0974" lon="3.50102">
        <ele>244.31</ele>
        <time>2016-10-09T13:11:29Z</time>
      </trkpt>
      <trkpt lat="48.09742" lon="3.50115">
        <ele>243.35</ele>
        <time>2016-10-09T13:11:36Z</time>
      </trkpt>
      <trkpt lat="48.09745" lon="3.50129">
        <ele>244.31</ele>
        <time>2016-10-09T13:11:44Z</time>
      </trkpt>
      <trkpt lat="48.09749" lon="3.50138">
        <ele>245.27</ele>
        <time>2016-10-09T13:11:50Z</time>
      </trkpt>
      <trkpt lat="48.0975" lon="3.50142">
        <ele>245.75</ele>
        <time>2016-10-09T13:11:53Z</time>
      </trkpt>
      <trkpt lat="48.09753" lon="3.50162">
        <ele>246.72</ele>
        <time>2016-10-09T13:12:03Z</time>
      </trkpt>
      <trkpt lat="48.09754" lon="3.50172">
        <ele>247.68</ele>
        <time>2016-10-09T13:12:10Z</time>
      </trkpt>
      <trkpt lat="48.09757" lon="3.50189">
        <ele>248.64</ele>
        <time>2016-10-09T13:12:20Z</time>
      </trkpt>
      <trkpt lat="48.0976" lon="3.50204">
        <ele>249.12</ele>
        <time>2016-10-09T13:12:28Z</time>
      </trkpt>
      <trkpt lat="48.09763" lon="3.50218">
        <ele>249.12</ele>
        <time>2016-10-09T13:12:36Z</time>
      </trkpt>
      <trkpt lat="48.09765" lon="3.50232">
        <ele>248.16</ele>
        <time>2016-10-09T13:12:44Z</time>
      </trkpt>
      <trkpt lat="48.09769" lon="3.5025">
        <ele>248.64</ele>
        <time>2016-10-09T13:12:54Z</time>
      </trkpt>
      <trkpt lat="48.0977" lon="3.50254">
        <ele>249.12</ele>
        <time>2016-10-09T13:12:57Z</time>
      </trkpt>
      <trkpt lat="48.09772" lon="3.50267">
        <ele>249.12</ele>
        <time>2016-10-09T13:13:04Z</time>
      </trkpt>
      <trkpt lat="48.09774" lon="3.50277">
        <ele>249.6</ele>
        <time>2016-10-09T13:13:11Z</time>
      </trkpt>
      <trkpt lat="48.09776" lon="3.50292">
        <ele>248.64</ele>
        <time>2016-10-09T13:13:20Z</time>
      </trkpt>
      <trkpt lat="48.09779" lon="3.50307">
        <ele>248.64</ele>
        <time>2016-10-09T13:13:30Z</time>
      </trkpt>
      <trkpt lat="48.09781" lon="3.50317">
        <ele>248.64</ele>
        <time>2016-10-09T13:13:37Z</time>
      </trkpt>
      <trkpt lat="48.09784" lon="3.50334">
        <ele>248.64</ele>
        <time>2016-10-09T13:13:45Z</time>
      </trkpt>
      <trkpt lat="48.09786" lon="3.50337">
        <ele>248.16</ele>
        <time>2016-10-09T13:13:47Z</time>
      </trkpt>
      <trkpt lat="48.0979" lon="3.50346">
        <ele>247.68</ele>
        <time>2016-10-09T13:13:52Z</time>
      </trkpt>
      <trkpt lat="48.09792" lon="3.5036">
        <ele>248.64</ele>
        <time>2016-10-09T13:13:59Z</time>
      </trkpt>
      <trkpt lat="48.09791" lon="3.50378">
        <ele>248.16</ele>
        <time>2016-10-09T13:14:09Z</time>
      </trkpt>
      <trkpt lat="48.09791" lon="3.50383">
        <ele>248.16</ele>
        <time>2016-10-09T13:14:17Z</time>
      </trkpt>
      <trkpt lat="48.09789" lon="3.50384">
        <ele>247.68</ele>
        <time>2016-10-09T13:14:31Z</time>
      </trkpt>
      <trkpt lat="48.0979" lon="3.5039">
        <ele>246.72</ele>
        <time>2016-10-09T13:14:44Z</time>
      </trkpt>
      <trkpt lat="48.09793" lon="3.50394">
        <ele>246.72</ele>
        <time>2016-10-09T13:14:51Z</time>
      </trkpt>
      <trkpt lat="48.09789" lon="3.50397">
        <ele>242.39</ele>
        <time>2016-10-09T13:15:02Z</time>
      </trkpt>
      <trkpt lat="48.09786" lon="3.50398">
        <ele>241.43</ele>
        <time>2016-10-09T13:15:13Z</time>
      </trkpt>
      <trkpt lat="48.09784" lon="3.504">
        <ele>240.47</ele>
        <time>2016-10-09T13:15:28Z</time>
      </trkpt>
      <trkpt lat="48.09785" lon="3.50401">
        <ele>241.91</ele>
        <time>2016-10-09T13:15:37Z</time>
      </trkpt>
      <trkpt lat="48.09785" lon="3.50405">
        <ele>243.83</ele>
        <time>2016-10-09T13:15:49Z</time>
      </trkpt>
      <trkpt lat="48.09788" lon="3.50406">
        <ele>248.64</ele>
        <time>2016-10-09T13:16:02Z</time>
      </trkpt>
      <trkpt lat="48.09789" lon="3.5041">
        <ele>252.48</ele>
        <time>2016-10-09T13:16:15Z</time>
      </trkpt>
      <trkpt lat="48.09792" lon="3.50409">
        <ele>251.04</ele>
        <time>2016-10-09T13:16:25Z</time>
      </trkpt>
      <trkpt lat="48.09793" lon="3.50406">
        <ele>252.96</ele>
        <time>2016-10-09T13:16:33Z</time>
      </trkpt>
      <trkpt lat="48.0979" lon="3.50406">
        <ele>253.44</ele>
        <time>2016-10-09T13:16:44Z</time>
      </trkpt>
      <trkpt lat="48.09788" lon="3.50406">
        <ele>253.44</ele>
        <time>2016-10-09T13:16:59Z</time>
      </trkpt>
      <trkpt lat="48.09788" lon="3.50403">
        <ele>255.37</ele>
        <time>2016-10-09T13:17:12Z</time>
      </trkpt>
      <trkpt lat="48.09787" lon="3.50403">
        <ele>252.48</ele>
        <time>2016-10-09T13:17:19Z</time>
      </trkpt>
      <trkpt lat="48.09787" lon="3.50411">
        <ele>246.23</ele>
        <time>2016-10-09T13:17:29Z</time>
      </trkpt>
      <trkpt lat="48.09789" lon="3.50418">
        <ele>243.83</ele>
        <time>2016-10-09T13:17:34Z</time>
      </trkpt>
      <trkpt lat="48.09791" lon="3.50426">
        <ele>240.47</ele>
        <time>2016-10-09T13:17:41Z</time>
      </trkpt>
      <trkpt lat="48.09792" lon="3.50434">
        <ele>236.62</ele>
        <time>2016-10-09T13:17:48Z</time>
      </trkpt>
      <trkpt lat="48.09794" lon="3.50448">
        <ele>233.74</ele>
        <time>2016-10-09T13:17:56Z</time>
      </trkpt>
      <trkpt lat="48.09794" lon="3.50455">
        <ele>232.78</ele>
        <time>2016-10-09T13:18:00Z</time>
      </trkpt>
      <trkpt lat="48.09798" lon="3.50465">
        <ele>232.3</ele>
        <time>2016-10-09T13:18:07Z</time>
      </trkpt>
      <trkpt lat="48.098" lon="3.50471">
        <ele>232.78</ele>
        <time>2016-10-09T13:18:11Z</time>
      </trkpt>
      <trkpt lat="48.09803" lon="3.50482">
        <ele>233.26</ele>
        <time>2016-10-09T13:18:19Z</time>
      </trkpt>
      <trkpt lat="48.09803" lon="3.50487">
        <ele>232.78</ele>
        <time>2016-10-09T13:18:22Z</time>
      </trkpt>
      <trkpt lat="48.09807" lon="3.50501">
        <ele>232.78</ele>
        <time>2016-10-09T13:18:31Z</time>
      </trkpt>
      <trkpt lat="48.09807" lon="3.5051">
        <ele>233.26</ele>
        <time>2016-10-09T13:18:36Z</time>
      </trkpt>
      <trkpt lat="48.09809" lon="3.50517">
        <ele>233.74</ele>
        <time>2016-10-09T13:18:41Z</time>
      </trkpt>
      <trkpt lat="48.09811" lon="3.50523">
        <ele>233.74</ele>
        <time>2016-10-09T13:18:46Z</time>
      </trkpt>
      <trkpt lat="48.09812" lon="3.50527">
        <ele>234.22</ele>
        <time>2016-10-09T13:18:49Z</time>
      </trkpt>
      <trkpt lat="48.09813" lon="3.50532">
        <ele>234.7</ele>
        <time>2016-10-09T13:18:53Z</time>
      </trkpt>
      <trkpt lat="48.09817" lon="3.50549">
        <ele>234.7</ele>
        <time>2016-10-09T13:19:02Z</time>
      </trkpt>
      <trkpt lat="48.09818" lon="3.50553">
        <ele>234.7</ele>
        <time>2016-10-09T13:19:05Z</time>
      </trkpt>
      <trkpt lat="48.09819" lon="3.50556">
        <ele>234.7</ele>
        <time>2016-10-09T13:19:07Z</time>
      </trkpt>
      <trkpt lat="48.0982" lon="3.50567">
        <ele>234.7</ele>
        <time>2016-10-09T13:19:16Z</time>
      </trkpt>
      <trkpt lat="48.09823" lon="3.50578">
        <ele>235.18</ele>
        <time>2016-10-09T13:19:23Z</time>
      </trkpt>
      <trkpt lat="48.09824" lon="3.50589">
        <ele>234.22</ele>
        <time>2016-10-09T13:19:30Z</time>
      </trkpt>
      <trkpt lat="48.09825" lon="3.50601">
        <ele>233.26</ele>
        <time>2016-10-09T13:19:37Z</time>
      </trkpt>
      <trkpt lat="48.09826" lon="3.50602">
        <ele>232.78</ele>
        <time>2016-10-09T13:19:38Z</time>
      </trkpt>
      <trkpt lat="48.09827" lon="3.50611">
        <ele>231.81</ele>
        <time>2016-10-09T13:19:44Z</time>
      </trkpt>
      <trkpt lat="48.09829" lon="3.50618">
        <ele>232.3</ele>
        <time>2016-10-09T13:19:49Z</time>
      </trkpt>
      <trkpt lat="48.09832" lon="3.50636">
        <ele>232.3</ele>
        <time>2016-10-09T13:19:59Z</time>
      </trkpt>
      <trkpt lat="48.09835" lon="3.50644">
        <ele>232.78</ele>
        <time>2016-10-09T13:20:06Z</time>
      </trkpt>
      <trkpt lat="48.09836" lon="3.50653">
        <ele>234.22</ele>
        <time>2016-10-09T13:20:13Z</time>
      </trkpt>
      <trkpt lat="48.09837" lon="3.50659">
        <ele>234.7</ele>
        <time>2016-10-09T13:20:19Z</time>
      </trkpt>
      <trkpt lat="48.09838" lon="3.50664">
        <ele>235.18</ele>
        <time>2016-10-09T13:20:22Z</time>
      </trkpt>
      <trkpt lat="48.0984" lon="3.50676">
        <ele>235.18</ele>
        <time>2016-10-09T13:20:30Z</time>
      </trkpt>
      <trkpt lat="48.09842" lon="3.50686">
        <ele>234.7</ele>
        <time>2016-10-09T13:20:36Z</time>
      </trkpt>
      <trkpt lat="48.09844" lon="3.50696">
        <ele>234.7</ele>
        <time>2016-10-09T13:20:42Z</time>
      </trkpt>
      <trkpt lat="48.09847" lon="3.50708">
        <ele>234.7</ele>
        <time>2016-10-09T13:20:51Z</time>
      </trkpt>
      <trkpt lat="48.0985" lon="3.50722">
        <ele>234.22</ele>
        <time>2016-10-09T13:20:58Z</time>
      </trkpt>
      <trkpt lat="48.09854" lon="3.50738">
        <ele>234.7</ele>
        <time>2016-10-09T13:21:05Z</time>
      </trkpt>
      <trkpt lat="48.09858" lon="3.50755">
        <ele>235.18</ele>
        <time>2016-10-09T13:21:13Z</time>
      </trkpt>
      <trkpt lat="48.09862" lon="3.5077">
        <ele>235.66</ele>
        <time>2016-10-09T13:21:21Z</time>
      </trkpt>
      <trkpt lat="48.09865" lon="3.50782">
        <ele>237.1</ele>
        <time>2016-10-09T13:21:29Z</time>
      </trkpt>
      <trkpt lat="48.09866" lon="3.50786">
        <ele>237.58</ele>
        <time>2016-10-09T13:21:32Z</time>
      </trkpt>
      <trkpt lat="48.09868" lon="3.50799">
        <ele>237.1</ele>
        <time>2016-10-09T13:21:40Z</time>
      </trkpt>
      <trkpt lat="48.09868" lon="3.50802">
        <ele>237.1</ele>
        <time>2016-10-09T13:21:42Z</time>
      </trkpt>
      <trkpt lat="48.09866" lon="3.50811">
        <ele>236.14</ele>
        <time>2016-10-09T13:21:47Z</time>
      </trkpt>
      <trkpt lat="48.0986" lon="3.50813">
        <ele>234.7</ele>
        <time>2016-10-09T13:21:53Z</time>
      </trkpt>
      <trkpt lat="48.09853" lon="3.50814">
        <ele>233.26</ele>
        <time>2016-10-09T13:22:00Z</time>
      </trkpt>
      <trkpt lat="48.09844" lon="3.50817">
        <ele>230.85</ele>
        <time>2016-10-09T13:22:07Z</time>
      </trkpt>
      <trkpt lat="48.09839" lon="3.50817">
        <ele>229.41</ele>
        <time>2016-10-09T13:22:13Z</time>
      </trkpt>
      <trkpt lat="48.09831" lon="3.5082">
        <ele>230.37</ele>
        <time>2016-10-09T13:22:21Z</time>
      </trkpt>
      <trkpt lat="48.09824" lon="3.50824">
        <ele>232.3</ele>
        <time>2016-10-09T13:22:28Z</time>
      </trkpt>
      <trkpt lat="48.09816" lon="3.50825">
        <ele>233.26</ele>
        <time>2016-10-09T13:22:35Z</time>
      </trkpt>
      <trkpt lat="48.09805" lon="3.50824">
        <ele>234.7</ele>
        <time>2016-10-09T13:22:44Z</time>
      </trkpt>
      <trkpt lat="48.09801" lon="3.50824">
        <ele>234.7</ele>
        <time>2016-10-09T13:22:47Z</time>
      </trkpt>
      <trkpt lat="48.09792" lon="3.50827">
        <ele>235.66</ele>
        <time>2016-10-09T13:22:55Z</time>
      </trkpt>
      <trkpt lat="48.09785" lon="3.50826">
        <ele>237.58</ele>
        <time>2016-10-09T13:23:02Z</time>
      </trkpt>
      <trkpt lat="48.09775" lon="3.50827">
        <ele>241.91</ele>
        <time>2016-10-09T13:23:09Z</time>
      </trkpt>
      <trkpt lat="48.09768" lon="3.50828">
        <ele>245.27</ele>
        <time>2016-10-09T13:23:17Z</time>
      </trkpt>
      <trkpt lat="48.09761" lon="3.50831">
        <ele>248.64</ele>
        <time>2016-10-09T13:23:24Z</time>
      </trkpt>
      <trkpt lat="48.09756" lon="3.50831">
        <ele>249.6</ele>
        <time>2016-10-09T13:23:29Z</time>
      </trkpt>
      <trkpt lat="48.09745" lon="3.5083">
        <ele>249.6</ele>
        <time>2016-10-09T13:23:37Z</time>
      </trkpt>
      <trkpt lat="48.09734" lon="3.5083">
        <ele>250.56</ele>
        <time>2016-10-09T13:23:45Z</time>
      </trkpt>
      <trkpt lat="48.09726" lon="3.50828">
        <ele>251.04</ele>
        <time>2016-10-09T13:23:52Z</time>
      </trkpt>
      <trkpt lat="48.09718" lon="3.50827">
        <ele>249.6</ele>
        <time>2016-10-09T13:23:59Z</time>
      </trkpt>
      <trkpt lat="48.09712" lon="3.50826">
        <ele>249.12</ele>
        <time>2016-10-09T13:24:06Z</time>
      </trkpt>
      <trkpt lat="48.09706" lon="3.50826">
        <ele>249.12</ele>
        <time>2016-10-09T13:24:14Z</time>
      </trkpt>
      <trkpt lat="48.09699" lon="3.50826">
        <ele>250.08</ele>
        <time>2016-10-09T13:24:22Z</time>
      </trkpt>
      <trkpt lat="48.09692" lon="3.50826">
        <ele>252.96</ele>
        <time>2016-10-09T13:24:29Z</time>
      </trkpt>
      <trkpt lat="48.09687" lon="3.50826">
        <ele>255.85</ele>
        <time>2016-10-09T13:24:36Z</time>
      </trkpt>
      <trkpt lat="48.09679" lon="3.50826">
        <ele>259.21</ele>
        <time>2016-10-09T13:24:43Z</time>
      </trkpt>
      <trkpt lat="48.09674" lon="3.50824">
        <ele>261.62</ele>
        <time>2016-10-09T13:24:49Z</time>
      </trkpt>
      <trkpt lat="48.09667" lon="3.50824">
        <ele>263.54</ele>
        <time>2016-10-09T13:24:56Z</time>
      </trkpt>
      <trkpt lat="48.09661" lon="3.50824">
        <ele>264.98</ele>
        <time>2016-10-09T13:25:03Z</time>
      </trkpt>
      <trkpt lat="48.09653" lon="3.50824">
        <ele>265.94</ele>
        <time>2016-10-09T13:25:10Z</time>
      </trkpt>
      <trkpt lat="48.09646" lon="3.50822">
        <ele>266.9</ele>
        <time>2016-10-09T13:25:17Z</time>
      </trkpt>
      <trkpt lat="48.0964" lon="3.50819">
        <ele>266.9</ele>
        <time>2016-10-09T13:25:24Z</time>
      </trkpt>
      <trkpt lat="48.09631" lon="3.50815">
        <ele>265.46</ele>
        <time>2016-10-09T13:25:34Z</time>
      </trkpt>
      <trkpt lat="48.0961" lon="3.50814">
        <ele>255.85</ele>
        <time>2016-10-09T13:25:43Z</time>
      </trkpt>
      <trkpt lat="48.09601" lon="3.50811">
        <ele>252</ele>
        <time>2016-10-09T13:25:53Z</time>
      </trkpt>
      <trkpt lat="48.096" lon="3.50806">
        <ele>250.56</ele>
        <time>2016-10-09T13:26:05Z</time>
      </trkpt>
      <trkpt lat="48.09602" lon="3.50801">
        <ele>249.12</ele>
        <time>2016-10-09T13:26:18Z</time>
      </trkpt>
      <trkpt lat="48.09603" lon="3.508">
        <ele>249.12</ele>
        <time>2016-10-09T13:26:29Z</time>
      </trkpt>
      <trkpt lat="48.09602" lon="3.50799">
        <ele>249.12</ele>
        <time>2016-10-09T13:26:41Z</time>
      </trkpt>
      <trkpt lat="48.09598" lon="3.50805">
        <ele>248.64</ele>
        <time>2016-10-09T13:26:50Z</time>
      </trkpt>
      <trkpt lat="48.09597" lon="3.50801">
        <ele>248.16</ele>
        <time>2016-10-09T13:26:58Z</time>
      </trkpt>
      <trkpt lat="48.09595" lon="3.50799">
        <ele>247.68</ele>
        <time>2016-10-09T13:27:08Z</time>
      </trkpt>
      <trkpt lat="48.09592" lon="3.50795">
        <ele>247.68</ele>
        <time>2016-10-09T13:27:15Z</time>
      </trkpt>
      <trkpt lat="48.09591" lon="3.50794">
        <ele>247.68</ele>
        <time>2016-10-09T13:27:22Z</time>
      </trkpt>
      <trkpt lat="48.09589" lon="3.5079">
        <ele>246.72</ele>
        <time>2016-10-09T13:27:29Z</time>
      </trkpt>
      <trkpt lat="48.09588" lon="3.50786">
        <ele>247.2</ele>
        <time>2016-10-09T13:27:37Z</time>
      </trkpt>
      <trkpt lat="48.09587" lon="3.50785">
        <ele>247.2</ele>
        <time>2016-10-09T13:27:51Z</time>
      </trkpt>
      <trkpt lat="48.09586" lon="3.50784">
        <ele>247.2</ele>
        <time>2016-10-09T13:27:58Z</time>
      </trkpt>
      <trkpt lat="48.09589" lon="3.50782">
        <ele>245.27</ele>
        <time>2016-10-09T13:28:11Z</time>
      </trkpt>
      <trkpt lat="48.09591" lon="3.50781">
        <ele>244.79</ele>
        <time>2016-10-09T13:28:21Z</time>
      </trkpt>
      <trkpt lat="48.09595" lon="3.50786">
        <ele>242.39</ele>
        <time>2016-10-09T13:28:28Z</time>
      </trkpt>
      <trkpt lat="48.09599" lon="3.50789">
        <ele>240.47</ele>
        <time>2016-10-09T13:28:35Z</time>
      </trkpt>
      <trkpt lat="48.09601" lon="3.50791">
        <ele>241.91</ele>
        <time>2016-10-09T13:28:44Z</time>
      </trkpt>
      <trkpt lat="48.09599" lon="3.508">
        <ele>242.87</ele>
        <time>2016-10-09T13:28:58Z</time>
      </trkpt>
      <trkpt lat="48.09598" lon="3.50797">
        <ele>244.31</ele>
        <time>2016-10-09T13:29:05Z</time>
      </trkpt>
      <trkpt lat="48.09596" lon="3.50796">
        <ele>244.31</ele>
        <time>2016-10-09T13:29:18Z</time>
      </trkpt>
      <trkpt lat="48.09597" lon="3.50793">
        <ele>245.27</ele>
        <time>2016-10-09T13:29:30Z</time>
      </trkpt>
    </trkseg>
  </trk>
</gpx>